     2.11           OBSERVATION DATA    G (GPS)             RINEX VERSION / TYPE
teqc 2010Oct21 OPUS Account 20111027 19:28:54UTC            PGM / RUN BY / DATE
M 1526                                                      MARKER NAME
3048                                                        MARKER NUMBER
CSMIDDLETON NGS                                             OBSERVER / AGENCY
4624K01583 TRIMBLE NETR5 4.41                               REC # / TYPE / VERS
60154430 TRM41249.00 NONE                                   ANT # / TYPE
  -752605.8824 -5569825.9245  3005098.3261                  APPROX POSITION XYZ
        2.0000        0.0000        0.0000                  ANTENNA: DELTA H/E/N
     1     1                                                WAVELENGTH FACT L1/2
     5    L1    L2    C1    P1    P2                        # / TYPES OF OBSERV
    15                                                      LEAP SECONDS
  2011     8    19    15    56   30.0000000     GPS         TIME OF FIRST OBS
                                                            END OF HEADER
 11  8 19 15 56 30.0000000  0 10G03G13G06G16G19G23G08G10G20G07
 109719451.78018  85495729.53856  20878924.891                    20878932.348
 105794625.74618  82437397.13156  20132048.641                    20132055.152
 117987594.14617  91938504.60655  22452315.805                    22452323.949
 119251842.27317  92923534.39055  22692871.281                    22692878.586
 112210699.86118  87436931.96656  21352986.586                    21352991.832
 105803600.46618  82444382.76056  20133756.078                    20133761.129
 128928348.28716 100463679.31653  24534248.602                    24534258.297
 125385774.58516  97703238.32454  23860119.969                    23860128.961
 128320706.56316  99990191.21853  24418619.367                    24418628.203
 118447172.95617  92296515.60617  22539747.727                    22539755.691
 11  8 19 15 57  0.0000000  0 10G03G13G06G16G19G23G08G10G20G07
 109742226.504 8  85513476.05145  20883258.656                    20883266.449
 105770149.104 8  82418324.42046  20127391.008                    20127397.289
 118037571.772 7  91977448.17545  22461826.625                    22461834.391
 119340324.628 7  92992481.64144  22709708.852                    22709715.590
 112161218.279 8  87398374.90146  21343570.344                    21343575.512
 105836308.962 8  82469869.87146  20139980.609                    20139985.051
 128863967.490 6 100413512.50043  24521997.688                    24522007.500
 125385043.422 7  97702668.55043  23859980.867                    23859989.223
 128406023.878 6 100056672.14643  24434854.516                    24434863.285
 118390970.591 7  92252721.584 7  22529052.641                    22529060.289
 11  8 19 15 57 30.0000000  0 10G03G13G06G16G19G23G08G10G20G07
 109765621.188 8  85531705.66246  20887710.617                    20887718.031
 105746201.451 7  82399663.89046  20122833.750                    20122840.422
 118088042.252 7  92016775.79745  22471430.828                    22471438.156
 119428885.885 7  93061490.36844  22726561.500                    22726568.465
 112112239.952 8  87360209.98346  21334249.555                    21334255.594
 105869578.916 8  82495794.48746  20146311.477                    20146316.477
 128799523.809 6 100363296.66643  24509734.359                    24509743.855
 125384797.652 6  97702476.99944  23859933.953                    23859942.750
 128491224.669 6 100123062.26143  24451067.383                    24451076.984
 118334779.887 7  92208936.638 6  22518360.305                    22518367.590
 11  8 19 15 58  0.0000000  0 10G03G13G06G16G19G23G08G10G20G07
 109789636.182 8  85550418.62246  20892280.703                    20892287.988
 105722785.509 7  82381417.69846  20118377.867                    20118384.457
 118139005.008 7  92056486.98545  22481128.703                    22481136.234
 119517524.853 7  93130559.62944  22743429.070                    22743435.711
 112063768.206 8  87322439.80046  21325025.789                    21325031.824
 105903410.802 8  82522156.97846  20152749.313                    20152754.172
 128735017.958 6 100313032.39043  24497459.211                    24497468.715
 125385037.422 7  97702663.80644  23859979.469                    23859988.375
 128576307.977 6 100189360.79343  24467258.250                    24467268.566
 118278602.418 7  92165161.999 6  22507669.836                    22507677.266
 11  8 19 15 58 30.0000000  0 10G03G13G06G16G19G23G08G10G20G07
 109814271.132 8  85569614.66246  20896968.609                    20896976.129
 105699903.453 8  82363587.51646  20114023.859                    20114030.238
 118190458.914 7  92096580.90645  22490920.234                    22490927.871
 119606239.457 7  93199687.85044  22760311.055                    22760318.285
 112015805.212 8  87285066.04946  21315898.969                    21315904.457
 105937804.793 8  82548957.46346  20159294.516                    20159299.449
 128670450.081 6 100262719.80543  24485171.859                    24485181.512
 125385761.962 6  97703228.32944  23860117.414                    23860126.813
 128661271.87916 100255566.29153  24483426.508                    24483436.887
 118222438.745 7  92121398.106 6  22496982.453                    22496989.750
 11  8 19 15 59  0.0000000  0 10G03G13G06G16G19G23G08G10G20G07
 109839525.268 8  85589293.18546  20901773.969                    20901781.996
 105677556.443 7  82346174.25846  20109771.148                    20109777.820
 118242402.211 7  92137056.16745  22500804.609                    22500812.555
 119695027.921 7  93268873.61844  22777206.969                    22777213.777
 111968353.959 8  87248091.05846  21306869.227                    21306874.980
 105972760.089 8  82576195.32546  20165946.258                    20165950.992
 128605820.262 6 100212358.95343  24472873.094                    24472882.211
 125386970.500 6  97704170.02144  23860347.680                    23860356.559
 128746113.625 6 100321676.64843  24499571.250                    24499582.012
 118166289.230 7  92077645.255 7  22486297.563                    22486304.895
 11  8 19 15 59 30.0000000  0 10G03G13G06G16G19G23G08G10G20G07
 109865398.343 8  85609454.00145  20906697.672                    20906705.512
 105655746.870 8  82329179.77946  20105621.016                    20105627.262
 118294833.973 7  92177912.05345  22510782.016                    22510789.855
 119783888.621 7  93338115.67545  22794116.625                    22794123.523
 111921416.756 8  87211516.60846  21297937.078                    21297943.488
 106008277.010 8  82603870.81346  20172704.875                    20172709.848
 128541128.460 6 100161949.81243  24460563.523                    24460571.969
 125388662.195 6  97705488.22544  23860669.180                    23860678.961
 128830831.00516 100387690.02353  24515692.289                    24515702.539
 118110154.690 7  92033904.048 7  22475615.469                    22475623.566
 11  8 19 16  1  0.0000000  0 10G03G13G06G16G19G23G08G10G20G07
 109946644.43418  85672811.31656  20922169.867                    20922176.969
 105593668.41618  82280703.97556  20093783.570                    20093790.211
 118455024.19117  92302737.09155  22541265.977                    22541273.449
 120050852.00017  93546152.85954  22844920.680                    22844927.426
 111783576.48218  87104199.90356  21271730.531                    21271736.719
 106118198.01918  82689505.54656  20193617.859                    20193622.645
 128346758.39616 100010422.46553  24423556.469                    24423566.535
 125396574.97616  97711679.79853  23862182.102                    23862191.152
 129083992.17116 100585133.58153  24563907.922                    24563917.570
 117941912.63417  91902739.13617  22443583.328                    22443591.180
 11  8 19 16  1 30.0000000  0 10G03G13G06G16G19G23G08G10G20G07
 109974984.849 8  85694894.72945  20927562.477                    20927570.258
 105574025.534 8  82265397.81846  20090045.805                    20090052.383
 118509394.015 7  92345103.15645  22551611.867                    22551619.934
 120139981.646 7  93615604.47344  22861881.984                    22861888.699
 111738720.464 8  87069247.18746  21263194.383                    21263200.398
 106155956.864 8  82718927.99046  20200803.102                    20200807.992
 128281816.641 6  99959818.53643  24411199.352                    24411208.211
 125400191.958 7  97714498.20444  23862870.766                    23862879.543
 129168190.347 6 100650742.37743  24579930.086                    24579940.129
 117885843.167 7  91859048.651 7  22432914.070                    22432921.672
 11  8 19 16  2  0.0000000  0 10G03G13G06G16G19G23G08G10G20G07
 110003938.839 8  85717456.24345  20933072.055                    20933080.129
 105554926.930 8  82250515.78246  20086411.578                    20086418.082
 118564242.902 7  92387842.49845  22562049.313                    22562057.563
 120229172.441 7  93685103.73444  22878854.438                    22878860.977
 111694388.970 8  87034703.19946  21254758.461                    21254764.563
 106194273.532 8  82748785.10446  20208094.656                    20208099.496
 128216810.886 7  99909164.75143  24398828.711                    24398838.688
 125404286.514 6  97717688.71543  23863649.586                    23863658.773
 129252251.645 6 100716244.57043  24595926.820                    24595936.387
 117829789.578 7  91815370.562 7  22422247.461                    22422255.105
 11  8 19 16  2 30.0000000  0 10G03G13G06G16G19G23G08G10G20G07
 110033505.786 8  85740495.38945  20938699.422                    20938706.770
 105536374.359 8  82236059.22946  20082881.063                    20082887.391
 118619569.621 7  92430954.19445  22572577.906                    22572585.871
 120318422.320 7  93754649.04044  22895838.063                    22895844.906
 111650584.642 8  87000569.97646  21246422.602                    21246428.379
 106233147.906 8  82779076.80046  20215491.961                    20215497.684
 128151740.932 7  99858460.97444  24386446.563                    24386456.129
 125408857.534 6  97721250.52044  23864520.289                    23864529.449
 129336173.732 6 100781638.26643  24611895.984                    24611906.203
 117773752.833 7  91771705.579 7  22411583.930                    22411591.453
 11  8 19 16  3  0.0000000  0 10G03G13G06G16G19G23G08G10G20G07
 110063684.788 8  85764011.45945  20944441.703                    20944448.980
 105518369.522 8  82222029.46546  20079454.664                    20079461.512
 118675372.353 7  92474436.79845  22583196.914                    22583204.691
 120407729.683 7  93824239.13244  22912832.758                    22912839.633
 111607309.455 8  86966849.07346  21238187.820                    21238193.520
 106272579.266 8  82809802.50846  20222995.617                    20223000.398
 128086606.700 7  99807707.05443  24374051.961                    24374061.477
 125413904.291 6  97725183.02544  23865480.148                    23865489.617
 129419954.505 6 100846921.85743  24627838.813                    24627849.016
 117717733.512 7  91728054.170 7  22400923.813                    22400931.520
 11  8 19 16  3 30.0000000  0 10G03G13G06G16G19G23G08G10G20G07
 110094475.001 8  85788003.81145  20950300.977                    20950308.480
 105500914.046 8  82208427.78246  20076133.000                    20076139.535
 118731649.515 7  92518289.09545  22593905.914                    22593913.797
 120497092.239 7  93893872.24944  22929837.633                    22929844.539
 111564565.706 8  86933542.27246  21230053.656                    21230059.695
 106312566.844 8  82840961.62846  20230605.086                    20230609.719
 128021408.115 6  99756903.02843  24361644.594                    24361654.324
 125419425.514 7  97729485.23144  23866530.867                    23866540.289
 129503591.732 6 100912093.59943  24643755.273                    24643764.359
 117661731.971 7  91684416.626 7  22390267.000                    22390274.551
 11  8 19 16  4  0.0000000  0 10G03G13G06G16G19G23G08G10G20G07
 110125874.875 7  85812471.21745  20956276.500                    20956283.305
 105484009.019 8  82195255.02746  20072916.313                    20072922.742
 118788399.064 7  92562509.50045  22604705.359                    22604713.016
 120586507.835 7  93963546.65344  22946853.422                    22946860.023
 111522355.487 8  86900651.20446  21222021.453                    21222027.117
 106353109.913 8  82872553.59946  20238320.180                    20238324.992
 127956145.225 6  99706048.92243  24349225.344                    24349235.016
 125425420.126 7  97734156.32244  23867671.867                    23867681.055
 129587082.862 6 100977151.53243  24659642.586                    24659652.195
 117605748.378 7  91640793.065 7  22379613.695                    22379620.961
 11  8 19 16  4 30.0000000  0 10G03G13G06G16G19G23G08G10G20G07
 110157883.820 7  85837413.23445  20962367.297                    20962374.883
 105467656.209 8  82182512.56746  20069804.109                    20069810.855
 118845619.524 7  92607096.80845  22615593.555                    22615601.809
 120675974.910 7  94033261.20944  22963877.648                    22963885.285
 111480681.022 8  86868177.60346  21214091.195                    21214096.770
 106394207.970 8  82904578.02746  20246140.664                    20246145.941
 127890817.689 6  99655144.38943  24336793.922                    24336803.418
 125431887.005 7  97739195.45144  23868902.211                    23868911.586
 129670425.700 6 101042093.89143  24675502.844                    24675511.980
 117549783.602 7  91597184.168 7  22368963.930                    22368971.609
 11  8 19 16  5  0.0000000  0 10G03G13G06G16G19G23G08G10G20G07
 110190500.534 7  85862828.83745  20968573.914                    20968581.227
 105451857.142 8  82170201.59546  20066798.023                    20066804.656
 118903309.218 7  92652049.77845  22626571.578                    22626579.633
 120765491.564 7  94103014.36644  22980912.531                    22980919.051
 111439544.409 8  86836123.10046  21206262.797                    21206268.641
 106435860.388 8  82937034.42646  20254067.094                    20254072.176
 127825425.267 6  99604189.34443  24324350.141                    24324360.262
 125438825.241 7  97744601.83444  23870222.219                    23870232.047
 129753618.147 6 101106919.09543  24691333.031                    24691342.801
 117493838.135 7  91553590.316 7  22358318.047                    22358325.234
 11  8 19 16  5 30.0000000  0 10G03G13G06G16G19G23G08G10G20G07
 110223724.348 8  85888717.50645  20974896.188                    20974904.055
 105436613.481 8  82158323.40446  20063897.250                    20063904.016
 118961466.404 7  92697367.01145  22637638.805                    22637646.559
 120855055.936 7  94172804.72444  22997956.320                    22997962.684
 111398947.872 8  86804489.42346  21198537.555                    21198542.965
 106478066.701 8  82969922.42946  20262098.383                    20262103.695
 127759968.025 6  99553183.72143  24311894.500                    24311903.434
 125446233.551 7  97750374.50144  23871631.805                    23871641.660
 129836658.164 6 101171625.45643  24707135.164                    24707145.625
 117437912.860 7  91510012.207 7  22347675.797                    22347682.887
 11  8 19 16  6  0.0000000  0 10G03G13G06G16G19G23G08G10G20G07
 110257553.667 8  85915077.99945  20981333.852                    20981341.395
 105421925.908 8  82146878.53246  20061102.352                    20061109.184
 119020089.068 7  92743046.95445  22648794.086                    22648801.996
 120944665.722 7  94242630.48444  23015008.852                    23015015.332
 111358893.392 8  86773278.14246  21190915.703                    21190921.883
 106520825.649 8  83003241.06146  20270235.484                    20270240.688
 127694445.571 6  99502127.31743  24299426.172                    24299434.875
 125454110.444 6  97756512.30643  23873131.031                    23873140.691
 129919543.138 6 101236211.03443  24722908.617                    24722918.676
 117382007.837 7  91466449.867 7  22337037.375                    22337045.164
 11  8 19 16  6 30.0000000  0 10G03G13G06G16G19G23G08G10G20G07
 110291987.115 8  85941909.24145  20987886.930                    20987893.996
 105407795.813 8  82135868.05146  20058413.352                    20058419.887
 119079175.267 7  92789088.11444  22660038.172                    22660045.828
 121034319.123 7  94312490.22244  23032069.055                    23032075.879
 111319382.678 8  86742490.56246  21183397.109                    21183402.875
 106564136.264 8  83036989.56746  20278477.102                    20278482.598
 127628857.865 6  99451020.05743  24286943.922                    24286953.863
 125462454.944 7  97763014.49444  23874719.563                    23874729.020
 130002270.676 6 101300673.95743  24738651.070                    24738660.930
 117326123.472 7  91422903.616 7  22326402.875                    22326410.418
 11  8 19 16  7  0.0000000  0 10G03G13G06G16G19G23G08G10G20G07
 110327024.182 8  85969210.83545  20994553.609                    20994561.359
 105394225.134 8  82125293.48346  20055830.883                    20055837.375
 119138723.541 7  92835489.32144  22671369.320                    22671377.727
 121124014.201 7  94382382.43944  23049137.219                    23049144.273
 111280418.094 8  86712128.55446  21175982.164                    21175988.383
 106607998.099 8  83071167.58746  20286823.695                    20286828.887
 127563205.081 6  99399862.08242  24274450.539                    24274460.434
 125471266.014 7  97769880.20644  23876395.492                    23876405.199
 130084838.674 6 101365012.61442  24754362.609                    24754373.137
 117270260.700 7  91379374.186 7  22315772.750                    22315779.938
 11  8 19 16  7 30.0000000  0 10G03G13G06G16G19G23G08G10G20G07
 110362663.440 8  85996981.67745  21001335.531                    21001343.402
 105381215.080 8  82115155.75646  20053355.320                    20053362.004
 119198732.013 7  92882249.12244  22682788.945                    22682797.383
 121213749.263 7  94452305.80044  23066213.500                    23066220.133
 111242001.724 8  86682193.71646  21168672.063                    21168677.711
 106652410.677 8  83105774.76446  20295275.461                    20295280.656
 127497486.934 6  99348653.19543  24261945.727                    24261954.320
 125480542.192 7  97777108.37644  23878161.688                    23878170.582
 130167245.170 6 101429225.37843  24770044.086                    24770054.879
 117214419.773 7  91335861.767 7  22305146.172                    22305153.594
 11  8 19 16  8  0.0000000  0 10G03G13G06G16G19G23G08G10G20G07
 110398903.372 8  86025220.57145  21008231.758                    21008239.094
 105368766.240 8  82105455.35246  20050986.430                    20050993.137
 119259198.068 7  92929365.48644  22694295.383                    22694303.281
 121303521.863 7  94522258.43444  23083296.453                    23083303.242
 111204134.737 8  86652686.97346  21161466.266                    21161471.750
 106697372.170 8  83140809.66346  20303831.305                    20303836.352
 127431703.031 6  99297393.06643  24249427.734                    24249436.043
 125490281.737 7  97784697.60043  23880013.797                    23880024.047
 130249487.288 6 101493310.04943  24785694.875                    24785704.637
 117158600.829 7  91292366.496 7  22294524.109                    22294531.793
 11  8 19 16  8 30.0000000  0  9G03G13G06G16G19G23G08G10G07
 110435742.828 8  86053926.62845  21015242.422                    21015249.996
 105356880.186 8  82096193.46746  20048724.820                    20048731.184
 119320119.826 7  92976836.93244  22705888.219                    22705896.563
 121393329.976 7  94592238.74344  23100386.477                    23100393.520
 111166819.153 8  86623609.89746  21154365.039                    21154370.879
 106742881.747 8  83176271.64946  20312491.508                    20312496.563
 127365853.073 6  99246081.47143  24236896.281                    24236905.109
 125500483.504 7  97792647.01644  23881955.945                    23881965.039
 117102804.264 7  91248888.668 7  22283906.523                    22283913.887
 11  8 19 16  9  0.0000000  0  9G03G13G06G16G19G23G08G10G07
 110473180.707 8  86083098.99545  21022366.711                    21022374.199
 105345558.589 8  82087371.43346  20046570.188                    20046576.770
 119381496.486 7  93024662.87144  22717567.953                    22717575.816
 121483172.606 7  94662245.92944  23117482.766                    23117489.961
 111130057.757 8  86594964.64546  21147369.656                    21147375.211
 106788939.315 8  83212160.63346  20321255.898                    20321260.848
 127299937.911 7  99194719.09143  24224353.625                    24224362.109
 125511146.488 6  97800955.79943  23883985.195                    23883994.719
 117047032.110 7  91205429.854 7  22273293.641                    22273300.910
 11  8 19 16  9 30.0000000  0  9G03G13G06G16G19G23G08G10G07
 110511215.578 8  86112736.54645  21029604.258                    21029611.961
 105334802.445 8  82078990.00546  20044523.484                    20044529.820
 119443325.316 7  93072841.13544  22729333.570                    22729341.586
 121573047.697 7  94732278.40444  23134586.008                    23134592.754
 111093852.004 8  86566752.37346  21140479.906                    21140485.777
 106835543.314 8  83248475.40346  20330124.367                    20330129.434
 127233956.930 7  99143305.38143  24211797.586                    24211806.133
 125522269.112 7  97809622.76144  23886101.445                    23886110.980
 116991283.581 7  91161989.461 7  22262684.852                    22262692.500
 11  8 19 16 10  0.0000000  0  9G03G13G06G16G19G23G08G10G07
 110549846.244 8  86142838.33345  21036955.477                    21036963.105
 105324612.981 8  82071050.14746  20042584.102                    20042591.051
 119505604.825 7  93121370.59544  22741184.453                    22741192.750
 121662953.165 7  94802334.54544  23151694.555                    23151701.430
 111058203.917 8  86538974.63046  21133696.336                    21133701.898
 106882693.242 8  83285215.57046  20339096.703                    20339102.191
 127167909.999 6  99091840.33843  24199228.492                    24199238.387
 125533850.276 7  97818647.02644  23888305.281                    23888314.766
 116935559.851 7  91118568.395 7  22252081.094                    22252088.328
 11  8 19 16 10 30.0000000  0  9G03G13G06G16G19G23G08G10G07
 110589071.233 8  86173403.22745  21044419.945                    21044427.719
 105314991.418 8  82063552.81846  20040752.969                    20040759.574
 119568333.031 7  93170249.69744  22753121.711                    22753129.926
 121752887.268 7  94872413.01244  23168808.195                    23168815.066
 111023115.237 8  86511632.79346  21127019.125                    21127024.570
 106930387.982 8  83322380.26946  20348172.547                    20348178.117
 127101797.165 6  99040323.90243  24186647.766                    24186656.918
 125545888.670 6  97828027.59043  23890596.008                    23890605.941
 116879861.790 7  91075167.314 7  22241481.625                    22241489.012
 11  8 19 16 11  0.0000000  0  9G03G13G06G16G19G23G08G10G07
 110628889.466 8  86204430.37545  21051996.992                    21052004.457
 105305939.103 8  82056499.05146  20039030.625                    20039037.168
 119631508.134 7  93219477.01845  22765143.156                    22765151.840
 121842848.484 7  94942512.60144  23185927.500                    23185934.578
 110988587.610 8  86484728.14846  21120448.641                    21120454.734
 106978626.784 8  83359968.91346  20357352.195                    20357357.461
 127035618.624 6  98988756.25643  24174054.820                    24174063.754
 125558382.904 7  97837763.33544  23892973.563                    23892983.418
 116824189.763 7  91031786.520 7  22230887.875                    22230895.184
 11  8 19 16 11 30.0000000  0  9G03G13G06G16G19G23G08G10G07
 110669299.510 8  86235918.69445  21059686.773                    21059693.891
 105297457.104 8  82049889.68446  20037416.922                    20037423.688
 119695127.901 7  93269050.82745  22777249.977                    22777258.379
 121932834.612 7  95012631.60444  23203050.750                    23203058.277
 110954623.139 8  86458262.32246  21113985.438                    21113991.504
 107027408.261 8  83397980.41846  20366635.086                    20366640.582
 126969374.070 6  98937137.18843  24161448.398                    24161458.215
 125571331.398 7  97847853.04944  23895437.453                    23895446.648
 116768544.354 7  90988426.479 7  22220299.008                    22220306.355
 11  8 19 16 12  0.0000000  0  9G03G13G06G16G19G23G08G10G07
 110710299.703 8  86267866.86745  21067488.922                    21067496.688
 105289546.382 7  82043725.46946  20035911.406                    20035917.973
 119759190.440 7  93318969.66244  22789440.516                    22789449.242
 122022843.850 7  95082768.60344  23220179.867                    23220186.789
 110921223.642 8  86432236.73346  21107629.734                    21107635.645
 107076731.473 8  83436414.05146  20376021.000                    20376026.223
 126903063.461 6  98885466.60643  24148829.805                    24148839.402
 125584732.548 7  97858295.47343  23897987.688                    23897996.941
 116712926.316 8  90945087.766 7  22209715.281                    22209722.379
 11  8 19 16 12 30.0000000  0  9G03G13G06G16G19G23G08G10G07
 110751888.814 8  86300273.94445  21075402.641                    21075410.840
 105282208.015 7  82038007.24946  20034515.266                    20034521.836
 119823693.647 7  93369231.89244  22801715.656                    22801723.191
 122112874.824 7  95152922.56244  23237312.055                    23237318.980
 110888390.318 8  86406652.32446  21101381.828                    21101387.621
 107126595.204 8  83475268.86846  20385509.766                    20385514.809
 126836686.729 6  98833744.53543  24136198.758                    24136208.367
 125598585.030 7  97869089.60843  23900624.383                    23900633.527
 116657335.947 8  90901770.596 7  22199136.922                    22199144.336
 11  8 19 16 13  0.0000000  0  9G03G13G06G16G19G23G08G10G07
 110794065.255 8  86333138.65845  21083429.188                    21083436.699
 105275443.334 8  82032736.05546  20033227.695                    20033234.496
 119888635.597 7  93419835.98345  22814073.656                    22814081.523
 122202925.339 7  95223091.73344  23254448.742                    23254454.941
 110856125.377 8  86381510.81646  21095242.023                    21095247.742
 107176998.413 8  83514544.06046  20395101.289                    20395106.414
 126770244.060 6  98781971.09843  24123555.094                    24123564.902
 125612887.375 6  97880234.24143  23903345.750                    23903355.703
 116601774.119 8  90858475.695 7  22188563.680                    22188571.211
 11  8 19 16 13 30.0000000  0  9G03G13G06G16G19G23G08G10G07
 110836827.098 8  86366459.55545  21091566.391                    21091573.516
 105269252.770 8  82027912.23546  20032049.781                    20032056.406
 119954013.883 7  93470780.07544  22826514.555                    22826522.324
 122292993.551 7  95293274.70844  23271587.430                    23271594.848
 110824430.139 8  86356813.21746  21089210.711                    21089216.281
 107227939.686 8  83554238.52446  20404795.133                    20404800.336
 126703735.012 6  98730145.90843  24110899.055                    24110908.602
 125627638.035 6  97891728.25444  23906152.414                    23906162.227
 116546241.320 7  90815203.403 7  22177995.891                    22178003.484
 11  8 19 16 14  0.0000000  0 10G03G13G06G16G28G19G23G08G10G07
 110880173.329 8  86400235.81945  21099814.320                    21099822.285
 105263638.070 8  82023537.13346  20030981.398                    20030987.996
 120019826.971 7  93522062.99245  22839038.391                    22839046.680
 122383078.028 7  95363470.34744  23288730.055                    23288736.664
 129643491.22716 101020878.16352  24670321.555                    24670331.039
 110793306.515 8  86332561.04446  21083288.047                    21083293.738
 107279418.229 8  83594351.64046  20414591.398                    20414596.621
 126637159.839 6  98678269.22343  24098229.867                    24098239.609
 125642835.549 6  97903570.44543  23909044.406                    23909054.156
 116490738.298 7  90771954.316 7  22167434.633                    22167441.910
 11  8 19 16 14 30.0000000  0 11G03G13G06G16G28G19G11G23G08G10G07
 110924104.125 8  86434467.58045  21108174.445                    21108182.324
 105258601.486 8  82019612.51446  20030022.891                    20030029.406
 120086074.477 7  93573684.38544  22851644.352                    22851653.320
 122473178.573 7  95433678.50144  23305875.750                    23305882.477
 129569943.589 6 100963568.38943  24656326.414                    24656335.547
 110762757.800 8  86308756.84946  21077474.961                    21077480.641
 130187708.51616 101444822.88053  24773852.617                    24773862.605
 107331434.779 8  83634883.98446  20424489.797                    20424494.863
 126570520.015 6  98626342.13543  24085548.891                    24085557.266
 125658480.202 6  97915761.06643  23912021.391                    23912031.449
 116435267.640 8  90728730.449 7  22156878.641                    22156885.684
 11  8 19 16 15  0.0000000  0 11G03G13G06G16G28G19G11G23G08G10G07
 110968616.716 8  86469152.68545  21116645.320                    21116652.637
 105254143.023 8  82016138.39146  20029174.617                    20029181.316
 120152753.057 7  93625641.68544  22864333.648                    22864341.613
 122563292.116 7  95503896.81344  23323023.375                    23323030.633
 129496610.445 6 100906425.74643  24642371.523                    24642380.645
 110732784.488 8  86285401.02046  21071771.023                    21071776.723
 130114666.555 6 101387907.09843  24759952.648                    24759962.855
 107383986.892 8  83675833.65346  20434489.633                    20434494.941
 126503814.504 6  98574363.87643  24072855.063                    24072864.402
 125674569.232 7  97928297.92144  23915083.367                    23915092.910
 116379828.779 7  90685531.369 7  22146329.336                    22146336.199
 11  8 19 16 15 30.0000000  0 11G03G13G06G16G28G19G11G23G08G10G07
 111013708.523 8  86504289.14145  21125225.805                    21125233.477
 105250263.091 8  82013115.06346  20028436.039                    20028443.004
 120219859.782 7  93677932.59744  22877103.141                    22877111.953
 122653416.333 7  95574123.41244  23340173.609                    23340180.680
 129423491.724 6 100849450.09943  24628456.969                    24628466.336
 110703387.374 8  86262494.17546  21066177.258                    21066182.723
 130041468.337 6 101330869.53942  24746023.648                    24746033.945
 107437072.452 8  83717198.99446  20444591.797                    20444597.168
 126437042.805 6  98522334.04943  24060149.008                    24060158.676
 125691099.995 6  97941178.99143  23918228.977                    23918238.863
 116324421.534 8  90642356.914 7  22135785.102                    22135792.379
 11  8 19 16 16  0.0000000  0 11G03G13G06G16G28G19G11G23G08G10G07
 111059377.987 8  86539875.70645  21133916.391                    21133924.172
 105246962.871 8  82010543.46746  20027807.852                    20027814.477
 120287392.644 7  93730555.55945  22889954.602                    22889962.688
 122743549.566 7  95644357.02944  23357325.000                    23357332.574
 129350587.942 6 100792642.00243  24614584.328                    24614593.488
 110674568.046 7  86240037.55246  21060693.047                    21060698.703
 129968115.952 6 101273711.83942  24732064.070                    24732074.906
 107490690.018 8  83758978.89646  20454794.844                    20454800.332
 126370204.732 6  98470252.45743  24047430.055                    24047439.555
 125708070.934 7  97954403.06543  23921458.430                    23921467.184
 116269046.724 7  90599207.731 7  22125247.523                    22125255.164
 11  8 19 16 16 30.0000000  0 11G03G13G06G16G28G19G11G23G08G10G07
 111105623.498 8  86575911.14845  21142716.609                    21142724.598
 105244242.010 8  82008423.31146  20027290.586                    20027297.215
 120355349.405 7  93783508.84844  22902886.477                    22902894.820
 122833689.907 7  95714596.18444  23374479.102                    23374486.352
 129277898.934 6 100736001.28143  24600751.422                    24600761.176
 110646327.827 8  86218032.18146  21055318.992                    21055324.418
 129894611.602 6 101216435.66842  24718077.414                    24718087.598
 107544838.295 8  83801172.33146  20465098.961                    20465104.816
 126303299.849 6  98418118.82843  24034698.641                    24034708.000
 125725480.262 7  97967968.71143  23924771.789                    23924780.016
 116213704.730 7  90556084.105 7  22114716.430                    22114723.570
 11  8 19 16 17  0.0000000  0 11G03G13G06G16G28G19G11G23G08G10G07
 111152443.027 8  86612393.87345  21151625.852                    21151633.863
 105242101.728 7  82006755.55146  20026882.938                    20026889.758
 120423727.607 7  93836790.52444  22915898.070                    22915906.773
 122923835.387 7  95784839.35344  23391632.922                    23391640.840
 129205425.954 6 100679528.79242  24586960.164                    24586970.102
 110618667.952 8  86196479.03746  21050055.328                    21050061.219
 129820957.477 6 101159042.91542  24704061.359                    24704071.980
 107599515.773 8  83843778.13346  20475503.750                    20475509.168
 126236328.453 6  98365933.35843  24021953.797                    24021963.945
 125743326.361 7  97981874.71443  23928167.773                    23928176.789
 116158396.245 8  90512986.594 7  22104191.836                    22104199.012
 11  8 19 16 17 30.0000000  0 11G03G13G06G16G28G19G11G23G08G10G07
 111199835.211 8  86649322.83345  21160644.250                    21160652.406
 105240543.357 8  82005541.23646  20026586.398                    20026593.289
 120492525.605 7  93890399.28744  22928990.273                    22928998.176
 123013984.619 7  95855085.44344  23408787.766                    23408795.254
 129133168.971 6 100623224.68043  24573210.680                    24573220.410
 110591590.353 8  86175379.61246  21044902.570                    21044908.488
 129747156.240 6 101101535.44152  24690017.445                    24690028.008
 107654721.503 8  83886795.55546  20486009.141                    20486014.344
 126169290.732 6  98313696.18743  24009197.406                    24009206.777
 125761607.794 7  97996119.96543  23931646.602                    23931655.879
 116103122.198 8  90469915.921 7  22093673.125                    22093680.879
 11  8 19 16 18  0.0000000  0 11G03G13G06G16G28G19G11G23G08G10G07
 111247798.020 8  86686696.44445  21169771.367                    21169779.270
 105239567.055 7  82004780.47146  20026400.430                    20026407.223
 120561741.079 7  93944333.37144  22942161.242                    22942169.520
 123104136.047 7  95925333.25044  23425942.898                    23425950.410
 129061128.381 6 100567089.17342  24559501.508                    24559510.895
 110565096.239 8  86154734.84146  21039860.898                    21039866.723
 129673209.630 6 101043914.75242  24675945.484                    24675956.168
 107710454.173 8  83930223.58746  20496614.586                    20496619.875
 126102186.570 6  98261407.29443  23996427.484                    23996436.824
 125780322.840 7  98010703.06943  23935207.734                    23935217.188
 116047883.005 7  90426872.404 7  22083161.125                    22083168.813
 11  8 19 16 18 30.0000000  0 11G03G13G06G16G28G19G11G23G08G10G07
 111296330.096 8  86724513.63945  21179006.469                    21179014.449
 105239174.113 8  82004474.27646  20026325.539                    20026332.676
 120631371.823 7  93998591.04644  22955411.742                    22955419.922
 123194287.816 7  95995581.32444  23443099.039                    23443105.570
 128989304.897 6 100511122.82343  24545833.781                    24545844.090
 110539187.203 8  86134545.99046  21034930.734                    21034936.258
 129599120.121 6 100986182.72742  24661847.852                    24661857.473
 107766712.300 8  83974061.07046  20507320.031                    20507325.777
 126035016.233 6  98209066.76743  23983646.141                    23983654.641
 125799469.695 6  98025622.63043  23938850.750                    23938860.891
 115992679.718 7  90383856.876 7  22072656.484                    22072663.898
 11  8 19 16 19  0.0000000  0 11G03G13G06G16G28G19G11G23G08G10G07
 111345429.428 8  86762772.84845  21188350.102                    21188358.258
 105239365.359 7  82004623.28746  20026362.383                    20026368.996
 120701416.008 7  94053170.89144  22968740.781                    22968749.391
 123284438.251 7  96065828.33344  23460253.820                    23460261.371
 128917698.965 6 100455325.99143  24532208.492                    24532217.078
 110513864.772 8  86114814.22946  21030112.156                    21030117.492
 129524890.218 6 100928341.26942  24647721.375                    24647732.195
 107823494.723 8  84018307.07946  20518125.695                    20518130.660
 125967780.185 6  98156675.05643  23970850.586                    23970860.324
 125819047.041 7  98040877.68443  23942576.125                    23942586.520
 115937513.340 7  90340870.105 7  22062158.500                    22062165.953
 11  8 19 16 19 30.0000000  0 11G03G13G06G16G28G19G11G23G08G10G07
 111395094.541 8  86801472.92745  21197801.117                    21197809.398
 105240141.748 7  82005228.25346  20026510.281                    20026516.855
 120771871.251 7  94108071.04544  22982148.102                    22982156.234
 123374585.841 7  96136073.16144  23477408.102                    23477415.625
 128846310.993 6 100399699.03543  24518623.195                    24518633.047
 110489129.944 8  86095540.35246  21025405.180                    21025410.770
 129450522.210 6 100870392.28242  24633569.570                    24633580.379
 107880799.876 8  84062960.41246  20529030.469                    20529035.605
 125900478.094 6  98104231.89743  23958043.336                    23958052.992
 125839053.050 7  98056466.74843  23946383.461                    23946392.754
 115882384.459 8  90297912.550 7  22051668.234                    22051675.348
 11  8 19 16 20  0.0000000  0 11G03G13G06G16G28G19G11G23G08G10G07
 111445323.194 8  86840612.11245  21207359.406                    21207367.059
 105241503.614 8  82006289.43946  20026769.164                    20026775.500
 120842735.277 7  94163289.73244  22995633.578                    22995641.418
 123464728.945 7  96206314.47144  23494561.625                    23494569.281
 128775141.224 6 100344242.08143  24505079.883                    24505089.543
 110464984.156 8  86076725.46246  21020810.555                    21020816.121
 129376018.402 6 100812337.45543  24619392.563                    24619402.492
 107938626.221 8  84108019.87546  20540034.672                    20540039.648
 125833110.149 6  98051737.43543  23945224.359                    23945232.902
 125859485.769 6  98072388.34743  23950272.031                    23950281.023
 115827293.917 7  90254984.863 7  22041184.680                    22041192.148
 11  8 19 16 20 30.0000000  0 11G03G13G06G16G28G19G11G23G08G10G07
 111496113.966 8  86880189.30845  21217024.578                    21217032.484
 105243451.640 8  82007807.37446  20027139.758                    20027146.684
 120914005.983 7  94218825.29344  23009195.430                    23009203.660
 123554865.799 7  96276550.92644  23511714.234                    23511721.574
 128704190.273 6 100288955.73143  24491578.609                    24491588.074
 110441428.939 8  86058370.75546  21016328.055                    21016333.801
 129301381.011 6 100754178.47943  24605189.359                    24605199.273
 107996972.394 8  84153484.39646  20551137.219                    20551142.531
 125765676.093 7  97999191.44143  23932392.297                    23932400.625
 125880343.499 6  98088641.10343  23954240.359                    23954250.137
 115772242.065 7  90212087.331 7  22030708.445                    22030715.969
 11  8 19 16 21  0.0000000  0 11G03G13G06G16G28G19G11G23G08G10G07
 111547464.892 8  86920202.97845  21226796.211                    21226803.727
 105245986.525 8  82009782.58746  20027622.305                    20027628.965
 120985681.148 7  94274676.03044  23022834.695                    23022842.668
 123644995.118 6  96346781.49744  23528865.273                    23528872.746
 128633458.578 6 100233840.16543  24478118.266                    24478128.473
 110418465.512 8  86040477.17846  21011958.094                    21011964.035
 129226612.395 6 100695917.31843  24590961.352                    24590971.383
 108055837.036 8  84199352.90646  20562339.133                    20562344.215
 125698176.238 7  97946594.20743  23919547.008                    23919555.750
 125901624.480 6  98105223.64443  23958290.883                    23958299.527
 115717230.213 7  90169220.951 7  22020240.414                    22020247.473
 11  8 19 16 21 30.0000000  0 11G03G13G06G16G28G19G11G23G08G10G07
 111599373.978 8  86960651.58245  21236674.313                    21236682.027
 105249108.842 8  82012215.54746  20028216.828                    20028223.500
 121057758.529 7  94330840.20344  23036550.500                    23036558.957
 123735115.075 7  96417004.76844  23546014.445                    23546022.121
 128562946.36916 100178895.69053  24464700.719                    24464709.777
 110396095.048 8  86023045.65446  21007700.930                    21007707.070
 129151714.964 7 100637555.80343  24576709.141                    24576718.930
 108115218.673 8  84245624.28246  20573638.930                    20573644.645
 125630610.723 7  97893945.79643  23906690.117                    23906698.680
 125923326.843 7  98122134.54743  23962421.055                    23962429.340
 115662259.085 7  90126386.310 7  22009779.625                    22009787.156
 11  8 19 16 22  0.0000000  0 11G03G13G06G16G28G19G11G23G08G10G07
 111651839.605 8  87001533.85745  21246658.477                    21246665.617
 105252819.263 8  82015106.76646  20028922.680                    20028929.578
 121130236.133 7  94387316.22544  23050343.086                    23050351.668
 123825223.966 6  96487219.43243  23563161.594                    23563169.266
 128492653.992 6 100124122.49243  24451324.063                    24451333.520
 110374318.961 8  86006077.28546  21003557.195                    21003563.004
 129076690.969 6 100579095.66543  24562431.711                    24562442.301
 108175115.746 8  84292297.29246  20585036.867                    20585042.480
 125562979.435 7  97841246.13343  23893819.813                    23893828.465
 125945448.930 7  98139372.48243  23966629.984                    23966638.813
 115607329.308 8  90083583.913 7  21999326.602                    21999334.051
 11  8 19 16 22 30.0000000  0 11G03G13G06G16G28G19G11G23G08G10G07
 111704859.926 8  87042848.35145  21256747.758                    21256755.238
 105257118.589 8  82018456.87046  20029740.500                    20029747.078
 121203111.535 7  94444102.23544  23064210.555                    23064218.793
 123915320.483 7  96557424.43543  23580306.953                    23580314.148
 128422581.981 6 100069521.07143  24437989.984                    24437999.527
 110353138.396 8  85989572.95146  20999526.836                    20999532.609
 129001542.942 6 100520538.87243  24548131.211                    24548142.035
 108235526.757 8  84339370.77546  20596532.906                    20596538.336
 125495282.612 7  97788495.41544  23880937.375                    23880946.824
 125967988.917 6  98156936.08043  23970919.711                    23970929.223
 115552441.930 8  90040814.539 7  21988882.219                    21988889.492
 11  8 19 16 23  0.0000000  0 11G03G13G06G16G28G19G11G23G08G10G07
 111758432.887 8  87084593.46745  21266942.305                    21266949.715
 105262007.428 8  82022266.33746  20030671.188                    20030677.668
 121276382.583 7  94501196.52644  23078153.563                    23078161.871
 124005403.020 7  96627618.56444  23597449.227                    23597456.578
 128352730.522 6 100015091.44643  24424697.641                    24424707.105
 110332554.602 8  85973533.65146  20995609.766                    20995615.164
 128926273.128 6 100461887.17843  24533808.219                    24533818.668
 108296450.249 8  84386843.59146  20608126.219                    20608131.594
 125427520.687 7  97735693.96443  23868042.570                    23868051.582
 125990945.076 6  98174823.98843  23975287.531                    23975297.910
 115497597.615 8  89998078.678 7  21978445.875                    21978453.117
 11  8 19 16 23 30.0000000  0 11G03G13G06G16G28G19G11G23G08G10G07
 111812556.494 8  87126767.66945  21277241.586                    21277249.195
 105267486.442 8  82026535.68046  20031713.445                    20031720.348
 121350046.983 7  94558597.31144  23092171.305                    23092179.883
 124095470.075 6  96697800.62344  23614588.133                    23614595.453
 128283100.127 6  99960834.09843  24411447.164                    24411456.934
 110312568.610 8  85957960.15546  20991806.492                    20991812.230
 128850884.051 6 100403142.56143  24519462.039                    24519471.547
 108357884.422 8  84434714.33746  20619817.016                    20619822.555
 125359693.886 7  97682841.94843  23855136.180                    23855144.363
 126014315.301 6  98193034.50143  23979735.305                    23979745.234
 115442797.242 7  89955377.127 7  21968017.734                    21968024.996
 11  8 19 16 24  0.0000000  0 11G03G13G06G16G28G19G11G23G08G10G07
 111867228.685 8  87169369.33545  21287645.477                    21287653.043
 105273555.843 8  82031265.06046  20032868.797                    20032875.281
 121424102.483 7  94616302.84744  23106264.203                    23106272.426
 124185520.066 6  96767969.38744  23631723.773                    23631732.344
 128213690.690 6  99906748.95143  24398238.563                    24398248.883
 110293181.613 8  85942853.41146  20988117.469                    20988122.828
 128775378.058 7 100344306.83443  24505094.375                    24505103.320
 108419827.908 8  84482981.95546  20631604.438                    20631609.605
 125291802.125 7  97629939.31843  23842216.531                    23842225.512
 126038097.643 6  98211566.18043  23984260.773                    23984270.863
 115388041.793 7  89912710.559 7  21957598.031                    21957605.328
 11  8 19 16 24 30.0000000  0 11G03G13G06G16G28G19G11G23G08G10G07
 111922447.542 8  87212396.96945  21298153.563                    21298161.027
 105280216.182 8  82036454.91246  20034135.859                    20034143.332
 121498546.661 7  94674311.25444  23120429.961                    23120438.594
 124275551.477 6  96838123.66444  23648856.289                    23648864.621
 128144503.046 6  99852836.56543  24385072.086                    24385082.484
 110274394.650 8  85928214.23046  20984542.523                    20984547.930
 128699757.528 6 100285381.82443  24490703.984                    24490713.504
 108482279.039 8  84531645.13446  20643488.516                    20643493.852
 125223845.501 7  97576986.16544  23829284.250                    23829293.711
 126062290.430 6  98230417.66843  23988865.570                    23988873.902
 115333332.171 7  89870079.692 7  21947186.664                    21947194.094
 11  8 19 16 25  0.0000000  0 11G03G13G06G16G28G19G11G23G08G10G07
 111978210.919 8  87255848.91345  21308764.844                    21308772.328
 105287467.815 8  82042105.52146  20035515.664                    20035522.598
 121573377.233 7  94732620.74444  23134670.109                    23134678.242
 124365562.647 7  96908262.16244  23665985.273                    23665992.840
 128075537.333 6  99799097.18843  24371948.320                    24371958.535
 110256208.953 8  85914043.55146  20981081.758                    20981087.121
 128624024.687 6 100226369.30743  24476291.609                    24476301.555
 108545236.074 8  84580702.52246  20655468.992                    20655474.574
 125155824.312 7  97523982.67143  23816340.313                    23816348.961
 126086891.518 6  98249587.32443  23993546.695                    23993555.469
 115278669.151 7  89827485.144 7  21936784.984                    21936791.961
 11  8 19 16 25 30.0000000  0 11G03G13G06G16G28G19G11G23G08G10G07
 112034517.116 8  87299723.84845  21319479.477                    21319487.391
 105295311.906 8  82048217.78446  20037008.734                    20037015.781
 121648592.244 7  94791229.78744  23148983.203                    23148991.277
 124455552.207 7  96978383.84244  23683109.500                    23683117.859
 128006793.699 7  99745530.81243  24358867.961                    24358877.035
 110238625.778 8  85900342.38546  20977735.914                    20977741.473
 128548182.572 6 100167271.64543  24461859.836                    24461869.273
 108608697.640 8  84630153.05546  20667544.898                    20667550.020
 125087738.795 7  97470929.08444  23803384.336                    23803393.449
 126111899.318 6  98269073.87043  23998305.242                    23998314.500
 115224053.868 7  89784927.774 7  21926392.063                    21926399.133
 11  8 19 16 26  0.0000000  0 11G03G13G06G16G28G19G11G23G08G10G07
 112091364.064 7  87344020.14145  21330296.922                    21330305.039
 105303747.687 8  82054791.10046  20038614.109                    20038621.156
 121724188.843 7  94850136.18744  23163368.344                    23163377.238
 124545518.596 7  97048487.44744  23700229.266                    23700237.227
 127938272.312 7  99692137.59643  24345828.211                    24345837.719
 110221645.626 8  85887111.10246  20974504.500                    20974509.973
 128472232.892 6 100108090.11843  24447407.367                    24447416.566
 108672661.677 8  84679995.12046  20679716.844                    20679722.688
 125019588.813 7  97417825.24344  23790415.883                    23790424.723
 126137311.607 6  98288875.58243  24003140.570                    24003150.449
 115169486.678 7  89742407.889 7  21916008.570                    21916015.297
 11  8 19 16 26 30.0000000  0 11G03G13G06G16G28G19G11G23G08G10G07
 112148749.693 7  87388736.18445  21341217.125                    21341224.676
 105312776.373 8  82061826.41946  20040332.156                    20040339.074
 121800165.157 7  94909338.45244  23177826.336                    23177834.746
 124635460.263 6  97118571.80844  23717345.117                    23717352.836
 127869973.691 7  99638917.94043  24332831.211                    24332841.438
 110205269.415 8  85874350.42046  20971388.125                    20971394.012
 128396178.206 6 100048826.78742  24432934.008                    24432944.176
 108737126.902 8  84730227.71446  20691984.555                    20691990.063
 124951374.791 7  97364671.49144  23777435.242                    23777444.109
 126163126.743 6  98308991.24743  24008053.805                    24008063.168
 115114968.840 8  89699926.474 7  21905633.766                    21905641.230
 11  8 19 16 27  0.0000000  0 11G03G13G06G16G28G19G11G23G08G10G07
 112206671.750 8  87433870.23545  21352239.289                    21352247.270
 105322397.959 8  82069323.73846  20042163.031                    20042169.922
 121876518.694 7  94968834.65744  23192355.586                    23192364.664
 124725375.801 7  97188635.78144  23734455.672                    23734463.465
 127801898.022 6  99585871.99743  24319877.031                    24319886.855
 110189498.343 8  85862061.27346  20968386.938                    20968392.820
 128320021.352 6  99989483.88043  24418441.828                    24418451.391
 108802091.445 8  84780849.40146  20704346.750                    20704352.500
 124883097.025 7  97311468.09644  23764442.234                    23764451.348
 126189342.429 6  98329418.98243  24013042.625                    24013051.445
 115060501.328 8  89657484.277 7  21895268.852                    21895276.102
 11  8 19 16 27 30.0000000  0 11G03G13G06G16G28G19G11G23G08G10G07
 112265128.220 7  87479420.70745  21363363.391                    21363371.320
 105332613.006 8  82077283.49746  20044106.867                    20044113.668
 121953247.365 7  95028623.18044  23206957.063                    23206965.434
 124815263.774 7  97258678.27743  23751560.617                    23751568.324
 127734045.453 7  99532999.91343  24306965.602                    24306974.484
 110174333.409 8  85850244.44046  20965501.195                    20965506.840
 128243764.593 6  99930063.12242  24403929.516                    24403940.523
 108867553.427 8  84831858.69646  20716803.633                    20716809.504
 124814755.626 7  97258215.09543  23751436.859                    23751446.016
 126215956.540 6  98350157.23743  24018106.961                    24018116.332
 115006084.951 7  89615081.922 7  21884913.648                    21884921.102
 11  8 19 16 28  0.0000000  0 11G03G13G06G16G28G19G11G23G08G10G07
 112324116.914 8  87525385.91345  21374588.281                    21374596.574
 105343421.740 8  82085705.86846  20046163.906                    20046170.645
 122030348.451 7  95088701.89544  23221628.750                    23221637.188
 124905122.899 7  97328698.30944  23768660.344                    23768668.246
 127666416.249 6  99480301.87143  24294095.875                    24294105.141
 110159775.491 8  85838900.60746  20962731.000                    20962736.320
 128167410.381 6  99870566.36843  24389401.086                    24389411.012
 108933511.115 8  84883254.25046  20729355.328                    20729360.715
 124746350.754 7  97204912.65144  23738419.766                    23738429.324
 126242967.337 6  98371204.54543  24023246.438                    24023256.422
 114951720.545 8  89572720.076 7  21874568.594                    21874575.984
 11  8 19 16 28 30.0000000  0 11G03G13G06G16G28G19G11G23G08G10G07
 112383635.554 8  87571764.06245  21385914.484                    21385922.441
 105354824.377 8  82094591.01046  20048333.789                    20048340.719
 122107819.683 7  95149069.04744  23236371.180                    23236379.742
 124994951.356 7  97398694.42944  23785754.211                    23785761.707
 127599010.522 7  99427777.93143  24281268.906                    24281277.402
 110145825.340 8  85828030.36946  20960076.313                    20960082.125
 128090960.986 6  99810995.50443  24374852.734                    24374862.559
 108999962.670 8  84935034.64846  20742000.602                    20742006.176
 124677882.847 7  97151561.07443  23725390.711                    23725400.273
 126270373.020 6  98392559.58143  24028461.359                    24028471.602
 114897409.024 8  89530399.433 7  21864233.148                    21864240.617
 11  8 19 16 29  0.0000000  0 11G03G13G06G16G28G19G11G23G08G10G07
 112443681.958 8  87618553.44645  21397341.461                    21397348.934
 105366820.983 8  82103938.99146  20050616.430                    20050623.168
 122185658.543 7  95209722.66144  23251183.078                    23251191.719
 125084747.923 7  97468665.72144  23802841.484                    23802849.316
 127531828.654 6  99375428.50343  24268483.984                    24268493.418
 110132483.808 8  85817634.37146  20957537.547                    20957543.363
 128014419.044 6  99751352.50943  24360287.039                    24360296.664
 109066906.310 8  84987198.47846  20754739.719                    20754745.387
 124609351.822 6  97098160.30743  23712349.734                    23712359.539
 126298171.265 6  98414220.50643  24033752.289                    24033761.133
 114843151.298 7  89488120.706 7  21853908.602                    21853915.840
 11  8 19 16 29 30.0000000  0 11G03G13G06G16G28G19G11G23G08G10G07
 112504254.025 7  87665752.43345  21408867.602                    21408875.477
 105379411.732 8  82113749.94046  20053012.633                    20053019.168
 122263862.840 7  95270661.02244  23266065.352                    23266073.781
 125174510.868 6  97538610.79643  23819923.820                    23819931.395
 127464870.805 7  99323253.58443  24255742.875                    24255751.559
 110119751.393 8  85807713.00646  20955114.414                    20955120.309
 127937787.014 6  99691639.30143  24345705.047                    24345714.109
 109134340.310 8  85039744.41846  20767571.531                    20767577.113
 124540758.022 7  97044710.65344  23699296.898                    23699306.324
 126326359.729 6  98436185.51343  24039116.117                    24039125.746
 114788948.247 7  89445884.585 7  21843594.148                    21843601.336
 11  8 19 16 30  0.0000000  0 11G03G13G06G16G28G19G11G23G08G10G07
 112565349.714 8  87713359.42445  21420494.070                    21420501.918
 105392597.231 8  82124024.33646  20055521.797                    20055528.508
 122342430.248 7  95331882.34244  23281015.875                    23281024.383
 125264239.502 7  97608529.15044  23836998.094                    23837006.215
 127398137.189 6  99271253.39843  24243043.016                    24243052.918
 110107629.572 8  85798267.43046  20952807.797                    20952813.563
 127861067.366 6  99631857.91143  24331105.633                    24331115.027
 109202262.840 8  85092671.02446  20780497.055                    20780502.664
 124472101.873 6  96991212.39344  23686232.211                    23686240.941
 126354936.821 6  98458453.35343  24044554.031                    24044563.758
 114734801.383 7  89403692.244 7  21833289.875                    21833297.223
 11  8 19 16 30 30.0000000  0 11G03G13G06G16G28G19G11G23G08G10G07
 112626966.894 8  87761372.78445  21432218.570                    21432226.992
 105406377.493 8  82134762.18046  20058143.984                    20058150.906
 122421358.591 7  95393384.89744  23296035.406                    23296043.969
 125353931.794 6  97678419.18844  23854065.969                    23854073.973
 127331628.021 6  99219428.12943  24230387.797                    24230397.070
 110096119.065 8  85789298.20546  20950617.641                    20950622.832
 127784262.810 6  99572010.29843  24316490.453                    24316499.773
 109270672.154 8  85145976.94646  20793515.008                    20793520.504
 124403383.508 7  96937665.65444  23673156.055                    23673165.035
 126383900.251 6  98481022.22643  24050065.328                    24050074.965
 114680711.480 7  89361544.286 7  21822997.234                    21823004.266
 11  8 19 16 31  0.0000000  0 11G03G13G06G16G28G19G11G23G08G10G07
 112689103.018 7  87809790.52545  21444043.211                    21444051.102
 105420752.959 8  82145963.82346  20060879.617                    20060886.551
 122500645.155 7  95455166.60444  23311123.063                    23311131.699
 125443586.378 6  97748279.86144  23871127.000                    23871134.781
 127265343.389 6  99167777.82443  24217773.102                    24217783.668
 110085220.202 8  85780805.58846  20948543.469                    20948549.203
 127707375.936 6  99512098.56243  24301858.641                    24301868.109
 109339566.453 8  85199660.78446  20806625.195                    20806630.844
 124334603.217 7  96884070.66044  23660066.945                    23660076.109
 126413248.237 6  98503890.73243  24055649.813                    24055659.492
 114626679.281 7  89319441.279 7  21812715.359                    21812722.313
 11  8 19 16 31 30.0000000  0 11G03G13G06G16G28G19G11G23G08G10G07
 112751755.825 7  87858610.85145  21455965.516                    21455973.512
 105435723.440 8  82157629.11146  20063728.430                    20063735.344
 122580287.601 7  95517225.60244  23326279.344                    23326287.375
 125533202.267 6  97818110.34243  23888179.695                    23888187.848
 127199283.488 6  99116302.61543  24205202.734                    24205212.441
 110074933.526 8  85772789.99746  20946585.914                    20946591.797
 127630409.038 6  99452124.45143  24287212.680                    24287221.762
 109408943.379 8  85253720.69046  20819827.430                    20819832.781
 124265761.454 7  96830427.76643  23646966.625                    23646975.402
 126442978.163 6  98527056.91443  24061307.633                    24061316.824
 114572706.114 8  89277384.296 7  21802444.188                    21802451.586
 11  8 19 16 32  0.0000000  0 11G03G13G06G16G28G19G11G23G08G10G07
 112814923.390 7  87907832.30845  21467985.828                    21467993.844
 105451288.652 8  82169757.83146  20066690.219                    20066697.023
 122660283.498 7  95579560.02744  23341501.789                    23341510.438
 125622777.692 6  97887909.30543  23905225.891                    23905233.266
 127133448.445 6  99065002.63443  24192675.156                    24192683.371
 110065259.883 8  85765252.09146  20944745.172                    20944750.875
 127553364.635 6  99392089.97843  24272551.305                    24272560.609
 109478801.416 8  85308155.48746  20833120.445                    20833126.250
 124196858.288 7  96776737.03944  23633854.688                    23633864.117
 126473087.956 6  98550519.04243  24067037.555                    24067047.465
 114518792.601 7  89235373.780 7  21792184.727                    21792192.309
 11  8 19 16 32 30.0000000  0 11G03G13G06G16G28G19G11G23G08G10G07
 112878603.093 7  87957452.81945  21480104.469                    21480112.188
 105467449.092 8  82182350.37246  20069765.688                    20069772.426
 122740630.438 7  95642167.97644  23356791.375                    23356800.055
 125712311.463 7  97957675.80944  23922264.133                    23922271.559
 127067838.212 6  99013877.82043  24180189.445                    24180198.152
 110056200.085 8  85758192.52846  20943021.352                    20943026.762
 127476245.286 6  99331997.07043  24257876.094                    24257885.617
 109549138.504 8  85362963.56646  20846505.359                    20846510.840
 124127894.367 7  96722998.94744  23620732.102                    23620740.176
 126503575.785 6  98574275.75343  24072839.000                    24072848.758
 114464939.849 8  89193410.600 7  21781937.125                    21781944.273
 11  8 19 16 33  0.0000000  0 11G03G13G06G16G28G19G11G23G08G10G07
 112942792.658 7  88007470.64745  21492318.773                    21492326.867
 105484204.762 8  82195406.72146  20072954.188                    20072961.039
 122821326.202 7  95705047.75444  23372147.094                    23372155.883
 125801802.283 7  98027408.83343  23939293.805                    23939300.805
 127002453.090 6  98962928.41343  24167746.961                    24167756.266
 110047754.667 8  85751611.69846  20941414.078                    20941419.488
 127399053.507 6  99271847.71843  24243187.000                    24243196.293
 109619952.698 8  85418143.42146  20859981.070                    20859986.332
 124058869.573 7  96669213.45744  23607596.914                    23607605.484
 126534439.268 6  98598325.20843  24078711.414                    24078721.582
 114411148.850 8  89151495.543 7  21771700.758                    21771708.273
 11  8 19 16 33 30.0000000  0 11G03G13G06G16G28G19G11G23G08G10G07
 113007489.913 8  88057884.05745  21504630.609                    21504638.395
 105501555.748 8  82208926.95746  20076256.023                    20076262.535
 122902368.176 7  95768197.27444  23387568.734                    23387577.699
 125891249.192 7  98097107.64143  23956314.578                    23956322.219
 126937293.127 6  98912154.43443  24155348.398                    24155356.758
 110039924.077 8  85745509.94546  20939924.117                    20939929.371
 127321791.818 6  99211643.94543  24228484.461                    24228493.953
 109691242.023 8  85473693.50446  20873547.086                    20873552.301
 123989784.616 7  96615381.05144  23594450.828                    23594459.328
 126565676.156 6  98622665.62943  24084655.938                    24084665.988
 114357420.755 8  89109629.506 7  21761476.906                    21761484.031
 11  8 19 16 34  0.0000000  0 11G03G13G06G16G28G19G11G23G08G10G07
 113072692.735 7  88108691.43845  21517037.930                    21517046.145
 105519502.192 8  82222911.19246  20079670.797                    20079677.641
 122983754.194 6  95831614.90244  23403056.148                    23403064.883
 125980650.287 7  98166770.74843  23973327.203                    23973334.938
 126872358.839 6  98861556.37043  24142991.086                    24143001.145
 110032709.360 8  85739888.12246  20938550.867                    20938556.508
 127244463.085 6  99151387.88443  24213768.938                    24213778.785
 109763004.722 8  85529612.45546  20887203.047                    20887208.430
 123920639.887 7  96561502.08244  23581292.352                    23581301.227
 126597284.695 6  98647295.65543  24090671.734                    24090681.516
 114303757.034 8  89067813.628 7  21751265.367                    21751272.258
 11  8 19 16 34 30.0000000  0 11G03G13G06G16G28G19G11G23G08G10G07
 113138398.386 8  88159890.60345  21529541.680                    21529549.688
 105538043.616 8  82237359.04546  20083199.383                    20083205.703
 123065481.452 6  95895298.42144  23418608.273                    23418616.930
 126070004.388 6  98236397.24343  23990331.039                    23990338.141
 126807650.021 6  98811133.98043  24130677.289                    24130686.785
 110026110.367 8  85734746.05446  20937295.359                    20937300.691
 127167069.727 7  99091081.45043  24199042.180                    24199051.289
 109835238.465 8  85585898.44246  20900948.508                    20900954.020
 123851435.406 6  96507576.55544  23568123.313                    23568131.867
 126629262.337 6  98672213.26043  24096756.602                    24096766.301
 114250158.268 8  89026048.355 7  21741065.273                    21741072.762
 11  8 19 16 35  0.0000000  0 11G03G13G06G16G28G19G11G23G08G10G07
 113204604.752 8  88211479.95145  21542140.086                    21542147.910
 105557180.138 8  82252270.60846  20086840.938                    20086847.746
 123147547.645 6  95959246.07144  23434225.102                    23434233.977
 126159310.312 6  98305986.18643  24007325.063                    24007332.762
 126743166.654 6  98760887.26543  24118406.477                    24118415.855
 110020127.833 8  85730084.34246  20936157.008                    20936162.297
 127089614.313 7  99030726.69043  24184302.039                    24184311.816
 109907941.393 8  85642550.02946  20914783.680                    20914789.051
 123782171.546 7  96453604.77944  23554942.383                    23554951.176
 126661606.822 6  98697416.74943  24102911.000                    24102920.992
 114196625.525 8  88984334.530 7  21730878.547                    21730885.918
 11  8 19 16 35 30.0000000  0 11G03G13G06G16G28G19G11G23G08G10G07
 113271309.166 8  88263457.37845  21554833.664                    21554841.402
 105576911.460 8  82267645.65746  20090595.578                    20090602.219
 123229950.347 6  96023455.91144  23449906.398                    23449914.617
 126248566.610 6  98375536.47043  24024310.203                    24024317.469
 126678908.911 6  98710816.35843  24106179.039                    24106187.969
 110014762.249 8  85725903.36446  20935135.992                    20935141.516
 127012099.462 6  98970325.59943  24169551.352                    24169560.508
 109981111.520 8  85699565.67546  20928707.461                    20928712.734
 123712848.850 7  96399587.14744  23541750.375                    23541759.309
 126694316.091 6  98722904.46743  24109135.367                    24109145.324
 114143160.082 8  88942673.144 7  21720704.484                    21720711.840
 11  8 19 16 36  0.0000000  0 11G03G13G06G16G28G19G11G23G08G10G07
 113338509.502 7  88315821.25545  21567621.250                    21567629.289
 105597237.768 8  82283484.33146  20094463.453                    20094470.172
 123312687.290 7  96087926.21244  23465649.914                    23465658.879
 126337772.210 6  98445047.27443  24041285.430                    24041293.262
 126614876.753 6  98660921.29143  24093993.797                    24094002.543
 110010014.288 8  85722203.65546  20934232.227                    20934237.957
 126934527.773 6  98909880.16643  24154789.820                    24154799.191
 110054747.108 8  85756944.01246  20942719.641                    20942725.699
 123643467.528 7  96345523.82144  23528548.352                    23528556.605
 126727388.159 6  98748674.88043  24115429.289                    24115439.727
 114089763.099 8  88901065.120 7  21710543.445                    21710550.480
 11  8 19 16 36 30.0000000  0 11G03G13G06G16G28G19G11G23G08G10G07
 113406203.455 7  88368569.76645  21580502.828                    21580510.750
 105618159.096 8  82299786.65346  20098444.836                    20098451.488
 123395755.879 7  96152654.93244  23481458.367                    23481466.316
 126426925.871 6  98514517.55243  24058250.414                    24058258.969
 126551070.590 6  98611202.27343  24081851.094                    24081860.813
 110005884.339 8  85718985.51246  20933446.664                    20933452.082
 126856901.997 6  98849392.66243  24140018.055                    24140028.246
 110128845.739 8  85814683.16346  20956820.117                    20956825.387
 123574027.886 7  96291415.05843  23515333.750                    23515342.008
 126760820.396 6  98774725.92943  24121791.250                    24121800.922
 114036435.394 8  88859511.068 7  21700395.109                    21700402.582
 11  8 19 16 37  0.0000000  0 11G03G13G06G16G28G19G11G23G08G10G07
 113474388.751 7  88421701.13745  21593478.398                    21593486.375
 105639674.778 8  82316552.10646  20102539.203                    20102545.852
 123479153.490 6  96217640.04044  23497327.633                    23497336.449
 126516026.194 6  98583946.34343  24075206.398                    24075214.027
 126487489.839 6  98561658.91143  24069752.742                    24069761.680
 110002372.331 8  85716248.87446  20932778.031                    20932783.605
 126779224.474 6  98788864.81643  24125236.961                    24125246.188
 110203405.047 8  85872781.28046  20971008.578                    20971014.211
 123504530.423 7  96237261.22844  23502109.047                    23502117.828
 126794610.389 6  98801055.75543  24128221.094                    24128231.227
 113983178.127 8  88818011.911 7  21690260.813                    21690268.004
 11  8 19 16 37 30.0000000  0 11G03G13G06G16G28G19G11G23G08G10G07
 113543062.585 7  88475213.20245  21606546.992                    21606554.402
 105661784.931 8  82333780.78346  20106746.531                    20106753.324
 123562877.828 7  96282879.72544  23513259.945                    23513268.426
 126605072.088 6  98653332.70043  24092151.461                    24092158.297
 126424134.944 6  98512291.50343  24057696.547                    24057705.223
 109999479.124 8  85713994.43046  20932227.469                    20932233.266
 126701498.139 6  98728298.88643  24110445.766                    24110455.145
 110278423.145 8  85931236.88946  20985284.039                    20985289.969
 123434975.652 7  96183062.74944  23488873.531                    23488882.098
 126828756.337 6  98827662.92343  24134719.531                    24134728.559
 113929992.427 8  88776568.520 7  21680139.406                    21680146.762
 11  8 19 16 38  0.0000000  0 11G03G13G06G16G28G19G11G23G08G10G07
 113612222.513 7  88529104.04045  21619707.500                    21619715.477
 105684489.010 8  82351472.25546  20111066.813                    20111073.832
 123646926.352 6  96348372.02744  23529253.992                    23529262.309
 126694062.507 7  98722675.81443  24109085.703                    24109092.633
 126361005.655 6  98463099.95143  24045683.047                    24045692.676
 109997204.465 8  85712221.97246  20931794.711                    20931800.328
 126623725.368 6  98667696.77943  24095646.555                    24095655.258
 110353898.172 8  85990048.55346  20999646.625                    20999651.922
 123365363.744 7  96128819.76844  23475627.094                    23475635.344
 126863255.673 6  98854545.52743  24141284.484                    24141293.586
 113876879.737 8  88735182.012 7  21670033.109                    21670040.355
 11  8 19 16 38 30.0000000  0 11G03G13G06G16G28G19G11G23G08G10G07
 113681866.037 7  88583371.68545  21632959.977                    21632968.250
 105707787.312 8  82369626.75946  20115500.469                    20115507.457
 123731296.543 6  96414114.96544  23545308.953                    23545318.133
 126782995.939 7  98791974.51044  24126009.633                    24126016.621
 126298102.471 6  98414084.55043  24033713.586                    24033722.156
 109995548.805 8  85710931.84646  20931479.703                    20931484.973
 126545908.857 7  98607060.60043  24080838.375                    24080847.141
 110429827.845 8  86049214.48846  21014095.594                    21014101.223
 123295695.573 7  96074532.92944  23462369.203                    23462377.605
 126898106.115 6  98881701.65843  24147915.758                    24147925.879
 113823840.967 8  88693853.115 7  21659939.828                    21659947.207
 11  8 19 16 39  0.0000000  0 11G03G13G06G16G28G19G11G23G08G10G07
 113751990.935 7  88638014.43145  21646304.531                    21646312.820
 105731679.124 8  82388243.74046  20120046.898                    20120053.855
 123815986.005 7  96480106.68944  23561425.156                    23561433.836
 126871871.154 6  98861227.86744  24142921.297                    24142930.059
 126235424.968 6  98365245.02044  24021786.383                    24021795.254
 109994512.872 8  85710124.62646  20931282.586                    20931288.219
 126468051.366 7  98546392.49843  24066022.414                    24066031.586
 110506209.928 8  86108732.95246  21028630.633                    21028636.434
 123225971.175 7  96020202.24844  23449100.508                    23449110.121
 126933305.590 6  98909129.82143  24154614.133                    24154623.730
 113770877.044 8  88652582.548 7  21649861.570                    21649868.160
 11  8 19 16 39 30.0000000  0 11G03G13G06G16G28G19G11G23G08G10G07
 113822594.383 7  88693030.06245  21659739.719                    21659747.883
 105756164.205 8  82407323.00546  20124706.695                    20124712.910
 123900992.274 7  96546345.29144  23577601.344                    23577610.152
 126960686.858 6  98930434.81343  24159821.750                    24159830.926
 126172973.288 6  98316581.43743  24009901.914                    24009910.898
 109994096.719 8  85709800.34246  20931203.477                    20931208.969
 126390155.483 7  98485694.46143  24051198.977                    24051207.750
 110583042.391 8  86168602.35646  21043251.117                    21043257.070
 123156191.295 7  95965828.33744  23435822.602                    23435831.262
 126968851.852 6  98936828.15643  24161378.695                    24161388.371
 113717989.414 8  88611371.432 7  21639796.906                    21639804.055
 11  8 19 16 40  0.0000000  0 11G03G13G06G16G28G19G11G23G08G10G07
 113893674.105 7  88748416.82345  21673266.125                    21673273.637
 105781242.196 8  82426864.27646  20129478.500                    20129485.195
 123986312.725 6  96612828.69244  23593836.984                    23593846.391
 127049442.247 6  98999594.79144  24176712.039                    24176720.563
 126110747.525 6  98268093.88943  23998060.500                    23998069.793
 109994300.426 8  85709959.05546  20931242.148                    20931247.805
 126312223.858 7  98424968.58443  24036369.320                    24036378.176
 110660323.196 8  86228821.10346  21057957.469                    21057963.074
 123086356.394 7  95911411.55944  23422532.602                    23422541.199
 127004742.077 6  98964794.53143  24168207.617                    24168218.055
 113665179.402 8  88570220.800 7  21629747.836                    21629755.117
 11  8 19 16 40 30.0000000  0 11G03G13G06G16G28G19G11G23G08G10G07
 113965227.659 8  88804172.80445  21686881.719                    21686889.695
 105806912.657 8  82446867.22446  20134363.531                    20134370.480
 124071944.947 7  96679555.03744  23610132.320                    23610141.168
 127138135.853 6  99068706.61843  24193589.258                    24193598.398
 126048747.256 6  98219782.01543  23986262.492                    23986271.426
 109995124.026 8  85710600.82046  20931399.008                    20931404.484
 126234259.481 7  98364217.20043  24021532.008                    24021542.379
 110738049.743 8  86289387.20146  21072748.352                    21072754.141
 123016466.598 7  95856952.00644  23409233.406                    23409242.402
 127040974.054 6  98993027.19043  24175103.445                    24175112.684
 113612447.648 8  88529131.143 7  21619713.055                    21619720.434
 11  8 19 16 41  0.0000000  0 11G03G13G06G16G28G19G11G23G08G10G07
 114037252.229 8  88860295.81245  21700587.906                    21700595.871
 105833175.213 8  82467331.52346  20139360.891                    20139368.195
 124157886.387 7  96746522.31944  23626486.711                    23626495.520
 127226766.515 6  99137769.41043  24210455.180                    24210464.270
 125986972.889 6  98171646.20543  23974507.133                    23974515.543
 109996567.789 8  85711725.81846  20931673.508                    20931678.969
 126156264.748 7  98303442.15343  24006690.945                    24006699.820
 110816219.859 8  86350298.93546  21087623.727                    21087629.262
 122946522.537 7  95802450.16344  23395923.336                    23395931.902
 127077545.635 6  99021524.52443  24182062.125                    24182072.688
 113559795.448 8  88488103.493 7  21609693.766                    21609701.102
 11  8 19 16 41 30.0000000  0 11G03G13G06G16G28G19G11G23G08G10G07
 114109745.333 7  88916783.91845  21714383.055                    21714390.953
 105860029.454 8  82488256.89146  20144471.328                    20144477.945
 124244134.368 7  96813728.50144  23642898.992                    23642908.059
 127315333.311 6  99206782.38243  24227308.781                    24227317.297
 125925424.140 6  98123686.21743  23962794.609                    23962803.309
 109998631.908 7  85713334.22346  20932066.375                    20932071.773
 126078242.240 7  98242645.44543  23991843.766                    23991852.270
 110894831.419 8  86411554.64646  21102582.805                    21102588.738
 122876524.954 7  95747906.63044  23382603.578                    23382612.055
 127114454.468 7  99050284.61243  24189085.969                    24189095.641
 113507224.235 8  88447138.939 7  21599689.945                    21599697.012
 11  8 19 16 42  0.0000000  0 11G03G13G06G16G28G19G11G23G08G10G07
 114182704.910 7  88973635.51745  21728266.523                    21728274.973
 105887475.219 8  82509643.17746  20149694.188                    20149700.676
 124330686.731 6  96881171.81644  23659370.273                    23659378.258
 127403835.098 6  99275744.75343  24244150.508                    24244159.238
 125864100.976 6  98075901.98343  23951125.203                    23951134.602
 110001316.533 8  85715426.13746  20932577.320                    20932582.957
 126000194.864 6  98181829.34643  23976991.609                    23977000.828
 110973882.331 8  86473152.71246  21117625.531                    21117631.668
 122806474.366 7  95693321.81944  23369272.859                    23369282.305
 127151698.115 6  99079305.60143  24196172.992                    24196182.641
 113454735.297 8  88406238.494 7  21589701.289                    21589708.836
 11  8 19 16 42 30.0000000  0 11G03G13G06G16G28G19G11G23G08G10G07
 114256127.910 8  89030848.19945  21742238.531                    21742246.770
 105915511.906 8  82531489.92146  20155029.047                    20155036.063
 124417540.845 7  96948850.32243  23675897.688                    23675905.949
 127492270.410 6  99344655.30443  24260979.875                    24260987.953
 125803003.204 6  98028293.37143  23939498.695                    23939507.781
 110004621.223 8  85718001.22446  20933206.227                    20933211.723
 125922125.097 7  98120995.82643  23962135.344                    23962145.109
 111053369.917 8  86535091.04346  21132752.055                    21132757.855
 122736371.214 7  95638696.03744  23355933.180                    23355942.207
 127189274.112 6  99108585.55743  24203322.781                    24203333.320
 113402329.602 8  88365402.903 7  21579728.773                    21579736.254
 11  8 19 16 43  0.0000000  0 11G03G13G06G16G28G19G11G23G08G10G07
 114330012.107 7  89088420.27045  21756298.781                    21756305.789
 105944138.941 8  82553796.68746  20160477.008                    20160483.891
 124504694.128 6  97016761.94144  23692482.328                    23692491.281
 127580638.361 6  99413513.34343  24277795.383                    24277804.020
 125742130.822 6  97980860.44143  23927915.352                    23927923.758
 110008546.358 8  85721059.77646  20933953.102                    20933958.371
 125844035.944 7  98060147.21243  23947275.406                    23947284.184
 111133292.266 8  86597368.14745  21147960.813                    21147966.195
 122666215.613 7  95584029.35744  23342582.352                    23342591.281
 127227180.030 6  99138122.58643  24210536.992                    24210546.715
 113350008.463 8  88324633.215 7  21569772.328                    21569779.461
 11  8 19 16 43 30.0000000  0 11G03G13G06G16G28G19G11G23G08G10G07
 114404354.238 8  89146349.17445  21770446.031                    21770453.348
 105973355.583 8  82576562.87746  20166036.492                    20166043.379
 124592143.772 6  97084904.44644  23709123.367                    23709131.953
 127668937.788 6  99482318.02843  24294599.109                    24294606.730
 125681483.604 6  97933602.93043  23916373.922                    23916382.273
 110013091.850 8  85724601.72446  20934817.750                    20934823.547
 125765929.936 6  97999285.45543  23932412.922                    23932421.117
 111213647.217 8  86659982.34146  21163251.836                    21163257.699
 122596008.475 7  95529322.53444  23329222.547                    23329231.652
 127265413.486 6  99167914.86643  24217812.195                    24217822.844
 113297772.773 8  88283930.094 7  21559832.367                    21559839.563
 11  8 19 16 44  0.0000000  0 11G03G13G06G16G28G19G11G23G08G10G07
 114479151.981 7  89204633.09845  21784678.836                    21784686.813
 106003161.558 8  82599788.29446  20171708.680                    20171715.391
 124679887.650 6  97153276.27844  23725820.969                    23725829.512
 127757167.512 6  99551068.42643  24311388.508                    24311396.133
 125621061.877 6  97886521.09743  23904876.063                    23904885.164
 110018257.761 8  85728627.11046  20935801.289                    20935806.543
 125687809.819 6  97938412.70643  23917546.430                    23917555.289
 111294432.088 8  86722931.54146  21178624.563                    21178630.305
 122525750.163 7  95474575.83744  23315853.094                    23315861.906
 127303971.918 6  99197960.35443  24225150.063                    24225159.859
 113245624.257 8  88243294.891 7  21549908.969                    21549915.910
 11  8 19 16 44 30.0000000  0 11G03G13G06G16G28G19G11G23G08G10G07
 114554403.055 7  89263270.26545  21798998.484                    21799006.645
 106033556.200 8  82623472.40046  20177492.461                    20177499.551
 124767923.346 6  97221875.46844  23742572.938                    23742581.930
 127845326.627 6  99619763.77843  24328164.570                    24328172.008
 125560865.208 6  97839614.67343  23893421.422                    23893430.496
 110024044.317 8  85733136.10046  20936902.555                    20936907.855
 125609678.496 7  97877531.22143  23902678.844                    23902687.395
 111375645.009 8  86786214.27646  21194078.797                    21194084.660
 122455441.485 7  95419789.89944  23302473.477                    23302482.328
 127342853.043 6  99228257.27143  24232548.633                    24232559.195
 113193564.227 8  88202728.660 7  21540002.031                    21540009.352
 11  8 19 16 45  0.0000000  0 11G03G13G06G16G28G19G11G23G08G10G07
 114630104.543 7  89322258.41345  21813403.758                    21813412.254
 106064538.987 8  82647614.81646  20183388.172                    20183395.141
 124856248.130 6  97290699.93644  23759380.914                    23759389.691
 127933414.234 6  99688403.43843  24344926.758                    24344934.645
 125500893.618 6  97792883.63543  23882008.844                    23882017.066
 110030450.987 8  85738128.29946  20938121.516                    20938126.875
 125531538.759 6  97816643.21743  23887809.547                    23887818.152
 111457283.127 8  86849828.33245  21209614.211                    21209620.055
 122385082.665 7  95364964.89344  23289084.680                    23289093.172
 127382054.520 6  99258803.85643  24240008.523                    24240018.883
 113141593.711 8  88162232.161 7  21530112.891                    21530119.746
 11  8 19 16 45 30.0000000  0 11G03G13G06G16G28G19G11G23G08G10G07
 114706254.288 7  89381595.83944  21827895.242                    21827903.059
 106096109.407 8  82672215.12446  20189396.094                    20189402.895
 124944859.511 6  97359747.70144  23776243.516                    23776252.699
 128021429.190 6  99756986.48143  24361675.984                    24361683.457
 125441147.016 6  97746327.89943  23870639.125                    23870648.016
 110037477.799 8  85743603.72346  20939458.531                    20939464.012
 125453393.269 7  97755750.67543  23872938.742                    23872946.961
 111539344.535 8  86913772.23445  21225230.070                    21225235.953
 122314674.263 7  95310101.22844  23275686.203                    23275694.848
 127421573.695 6  99289597.96643  24247528.414                    24247538.836
 113089714.010 8  88121806.437 7  21520240.164                    21520246.996
 11  8 19 16 46  0.0000000  0 11G03G13G06G16G28G19G11G23G08G10G07
 114782849.058 7  89441280.03945  21842470.305                    21842478.629
 106128266.683 8  82697272.71746  20195515.445                    20195522.410
 125033754.939 6  97429016.82644  23793159.023                    23793169.012
 128109370.330 6  99825511.99143  24378410.234                    24378418.070
 125381624.916 6  97699947.13043  23859312.570                    23859321.875
 110045124.606 8  85749562.25546  20940913.539                    20940919.121
 125375244.705 7  97694855.75143  23858067.422                    23858075.738
 111621826.692 8  86978043.99546  21240926.023                    21240931.672
 122244217.550 7  95255199.93544  23262278.602                    23262287.102
 127461408.160 6  99320637.78643  24255109.258                    24255118.949
 113037926.289 8  88081452.383 7  21510385.336                    21510392.242
 11  8 19 16 46 30.0000000  0 11G03G13G06G16G28G19G11G23G08G10G07
 114859886.383 7  89501309.07645  21857129.906                    21857138.492
 106161009.740 8  82722786.77346  20201745.828                    20201753.016
 125122931.712 6  97498505.14343  23810129.313                    23810138.609
 128197236.318 6  99893978.93043  24395131.211                    24395138.281
 125322327.479 6  97653741.40343  23848028.750                    23848037.875
 110053391.036 8  85756003.62646  20942486.648                    20942492.371
 125297095.909 6  97633960.65443  23843195.992                    23843204.469
 111704727.093 8  87042641.64945  21256701.422                    21256707.211
 122173712.573 7  95200261.02944  23248862.586                    23248871.332
 127501555.252 6  99351921.16043  24262748.625                    24262758.883
 112986231.890 8  88041171.031 7  21500548.078                    21500554.895
 11  8 19 16 47  0.0000000  0 11G03G13G06G16G28G19G11G23G08G10G07
 114937363.713 7  89561680.97545  21871874.219                    21871882.191
 106194338.165 8  82748756.95746  20208088.195                    20208095.156
 125212387.498 7  97568210.90043  23827152.375                    23827161.117
 128285026.244 6  99962386.61543  24411836.430                    24411844.645
 125263254.590 6  97607710.65743  23836787.063                    23836796.590
 110062277.257 8  85762927.94846  20944177.727                    20944183.086
 125218949.716 6  97573067.58143  23828325.391                    23828334.117
 111788043.637 8  87107563.57246  21272555.867                    21272561.613
 122103159.880 7  95145284.93544  23235436.250                    23235444.895
 127542012.840 6  99383446.50543  24270447.797                    24270457.477
 112934632.307 8  88000963.571 7  21490728.938                    21490735.910
 11  8 19 16 47 30.0000000  0 11G03G13G06G16G28G19G11G23G08G10G07
 115015278.113 7  89622393.44845  21886700.313                    21886708.762
 106228251.110 8  82775182.60546  20214541.602                    20214548.258
 125302119.647 7  97638132.01143  23844227.844                    23844236.211
 128372739.081 6 100030734.19643  24428528.242                    24428535.906
 125204405.838 6  97561854.55843  23825588.891                    23825597.539
 110071782.671 8  85770334.76446  20945987.063                    20945992.363
 125140809.059 6  97512178.81843  23813455.508                    23813464.750
 111871773.884 8  87172807.86645  21288489.320                    21288495.668
 122032560.157 7  95090272.20244  23222001.102                    23222010.473
 127582778.491 6  99415211.90143  24278205.109                    24278214.859
 112883128.667 8  87960830.862 7  21480928.266                    21480935.402
 11  8 19 16 48  0.0000000  0 11G03G13G06G16G28G19G11G23G08G10G07
 115093627.300 7  89683444.72245  21901610.250                    21901618.445
 106262748.152 8  82802063.39846  20221106.156                    20221113.066
 125392125.576 7  97708266.44944  23861355.078                    23861364.230
 128460374.207 6 100099021.20143  24445204.219                    24445212.469
 125145781.208 7  97516173.11643  23814433.672                    23814441.895
 110081907.120 8  85778223.93446  20947913.242                    20947919.082
 125062676.198 7  97451296.10943  23798587.484                    23798595.953
 111955915.327 8  87238372.57046  21304501.141                    21304507.000
 121961914.188 7  95035223.43444  23208558.609                    23208566.602
 127623849.516 6  99447215.27343  24286020.836                    24286030.848
 112831722.279 8  87920773.939 7  21471145.867                    21471152.824
 11  8 19 16 48 30.0000000  0 11G03G13G06G16G28G19G11G23G08G10G07
 115172408.329 7  89744832.49245  21916601.492                    21916609.395
 106297828.898 8  82829399.02646  20227781.453                    20227789.211
 125482403.053 6  97778612.48744  23878534.648                    23878543.594
 128547930.642 6 100167246.89243  24461866.008                    24461874.344
 125087380.567 7  97470666.18643  23803319.719                    23803328.430
 110092650.544 8  85786595.43446  20949957.391                    20949963.512
 124984554.285 7  97390421.94343  23783721.133                    23783729.973
 112040465.681 8  87304255.91445  21320590.461                    21320596.402
 121891222.560 7  94980139.06044  23195106.000                    23195115.137
 127665223.760 6  99479454.91043  24293894.047                    24293903.977
 112780414.544 8  87880793.892 7  21461382.141                    21461388.953
 11  8 19 16 49  0.0000000  0 11G03G13G06G16G28G19G11G23G08G10G07
 115251618.789 7  89806554.87845  21931674.711                    21931682.633
 106333491.949 8  82857188.39546  20234568.008                    20234575.223
 125572949.399 6  97849168.02544  23895765.156                    23895773.660
 128635407.432 6 100235410.55443  24478512.586                    24478520.398
 125029203.748 6  97425333.63044  23792248.805                    23792258.023
 110104012.960 8  85795449.26946  20952119.953                    20952125.102
 124906445.991 7  97329558.38743  23768857.711                    23768866.363
 112125422.409 8  87370455.90645  21336757.414                    21336763.375
 121820486.208 7  94925019.85144  23181644.656                    23181653.988
 127706898.216 6  99511928.45343  24301824.836                    24301833.613
 112729206.908 7  87840891.845 7  21451637.695                    21451644.586
 11  8 19 16 49 30.0000000  0 11G03G13G06G16G28G19G11G23G08G10G07
 115331255.691 7  89868609.56945  21946829.234                    21946837.234
 106369736.404 8  82885430.80246  20241465.328                    20241472.645
 125663762.078 6  97919931.08143  23913045.734                    23913055.254
 128722803.280 6 100303511.07343  24495143.875                    24495152.051
 124971250.329 6  97380175.17244  23781220.813                    23781230.105
 110115993.162 8  85804784.49446  20954399.391                    20954405.129
 124828354.319 7  97268707.76143  23753996.469                    23754006.066
 112210782.950 8  87436970.55746  21353000.938                    21353006.898
 121749705.445 7  94869866.04144  23168176.016                    23168185.246
 127748870.344 6  99544633.96843  24309811.430                    24309820.797
 112678100.732 7  87801068.861 7  21441912.578                    21441919.859
 11  8 19 16 50  0.0000000  0 11G03G13G06G16G28G19G11G23G08G10G07
 115411316.605 7  89930994.66845  21962064.398                    21962072.473
 106406561.503 8  82914125.65146  20248472.898                    20248479.992
 125754838.300 6  97990899.52643  23930376.828                    23930386.480
 128810117.611 6 100371548.10643  24511758.383                    24511767.078
 124913520.121 7  97335190.64544  23770234.977                    23770243.285
 110128591.299 8  85814601.23246  20956796.953                    20956802.473
 124750282.041 7  97207872.23043  23739140.586                    23739149.430
 112296544.912 8  87503797.98945  21369320.969                    21369327.285
 121678880.767 7  94814678.00444  23154698.602                    23154707.285
 127791137.582 6  99577569.37543  24317854.484                    24317864.453
 112627097.090 7  87761325.762 7  21432206.797                    21432213.922
 11  8 19 16 50 30.0000000  0 11G03G13G06G16G28G19G11G23G08G10G07
 115491798.599 7  89993707.88844  21977379.461                    21977387.875
 106443966.257 8  82943272.19146  20255591.250                    20255598.230
 125846175.747 6  98062071.49443  23947758.211                    23947767.512
 128897349.128 6 100439520.63643  24528358.250                    24528366.637
 124856012.980 7  97290379.91844  23759291.617                    23759300.000
 110141806.649 8  85824898.92046  20959311.844                    20959317.148
 124672231.783 6  97147053.86643  23724288.461                    23724296.547
 112382705.963 8  87570936.42345  21385716.984                    21385723.020
 121608013.132 7  94759456.50244  23141212.992                    23141221.402
 127833697.635 6  99610732.97743  24325953.438                    24325963.520
 112576197.448 8  87721663.709 7  21422520.742                    21422528.254
 11  8 19 16 51  0.0000000  0 11G03G13G06G16G28G19G11G23G08G10G07
 115572698.716 7  90056746.91144  21992774.266                    21992782.180
 106481950.359 8  82972870.16846  20262819.188                    20262825.945
 125937771.701 6  98133444.89044  23965188.438                    23965197.426
 128984496.682 6 100507427.72143  24544942.688                    24544950.508
 124798728.926 7  97245743.03243  23748390.750                    23748399.234
 110155638.749 8  85835677.19246  20961943.914                    20961949.012
 124594206.677 6  97086255.08943  23709439.563                    23709448.910
 112469263.184 8  87638383.56646  21402188.313                    21402194.344
 121537103.027 7  94704201.90144  23127719.398                    23127728.070
 127876548.036 6  99644122.87943  24334108.086                    24334117.770
 112525403.225 7  87682083.800 7  21412855.180                    21412862.465
 11  8 19 16 51 30.0000000  0 11G03G13G06G16G28G19G11G23G08G10G07
 115654014.438 7  90120109.76244  22008248.234                    22008256.188
 106520511.912 8  83002918.10246  20270157.422                    20270164.020
 126029623.704 7  98205017.82343  23982667.680                    23982676.195
 129071559.783 6 100575269.00943  24561509.766                    24561517.844
 124741667.119 7  97201279.34044  23737532.344                    23737541.047
 110170087.425 8  85846935.91746  20964693.109                    20964698.660
 124516209.265 6  97025477.89543  23694598.133                    23694606.938
 112556214.236 8  87706137.56845  21418734.602                    21418740.914
 121466151.272 7  94648914.85344  23114217.492                    23114226.012
 127919686.168 6  99677736.94343  24342317.320                    24342326.906
 112474715.839 8  87642587.151 7  21403209.656                    21403216.828
 11  8 19 16 52  0.0000000  0 11G03G13G06G16G28G19G11G23G08G10G07
 115735743.105 7  90183794.41144  22023800.539                    22023808.504
 106559650.201 8  83033415.44346  20277605.078                    20277611.934
 126121729.266 6  98276788.34543  24000194.758                    24000203.219
 129158537.183 7 100643043.53943  24578061.227                    24578069.633
 124684827.627 7  97156988.85744  23726716.203                    23726724.750
 110185152.301 8  85858674.80346  20967559.891                    20967565.090
 124438242.481 6  96964724.57743  23679761.102                    23679769.773
 112643556.950 8  87774196.77645  21435355.195                    21435361.422
 121395158.801 7  94593596.08144  23100708.102                    23100716.961
 127963109.318 6  99711573.11343  24350580.367                    24350590.387
 112424136.471 8  87603174.666 7  21393584.695                    21393591.922
 11  8 19 16 52 30.0000000  0 11G03G13G06G16G28G19G11G23G08G10G07
 115817881.694 7  90247798.46544  22039431.219                    22039438.938
 106599364.257 8  83064361.42946  20285162.328                    20285168.961
 126214085.533 6  98348754.22243  24017769.086                    24017778.156
 129245427.997 7 100710750.55643  24594595.945                    24594603.637
 124628210.082 7  97112871.34444  23715941.797                    23715950.430
 110200832.292 8  85870892.99046  20970543.805                    20970548.828
 124360309.142 6  96903997.33643  23664931.117                    23664939.883
 112731288.392 8  87842558.88446  21452050.055                    21452056.336
 121324125.855 7  94538245.77044  23087190.703                    23087199.152
 128006814.692 6  99745629.20643  24358896.742                    24358907.289
 112373666.225 8  87563847.219 7  21383980.766                    21383988.148
 11  8 19 16 53  0.0000000  0 11G03G13G06G16G28G19G11G23G08G10G07
 115900427.703 7  90312120.00444  22055139.445                    22055147.305
 106639653.463 8  83095755.59546  20292829.336                    20292835.992
 126306690.322 6  98420913.71843  24035391.688                    24035400.836
 129332231.637 6 100778389.68443  24611113.969                    24611122.258
 124571814.498 7  97068926.76644  23705210.625                    23705219.035
 110217127.324 8  85883590.41746  20973644.781                    20973650.645
 124282412.518 6  96843298.67343  23650107.680                    23650116.352
 112819406.359 8  87911222.17346  21468818.469                    21468824.496
 121253053.456 7  94482864.72044  23073666.852                    23073675.066
 128050799.916 6  99779903.37543  24367267.414                    24367277.371
 112323307.348 8  87524606.539 7  21374397.430                    21374404.957
 11  8 19 16 53 30.0000000  0 11G03G13G06G16G28G19G11G23G08G10G07
 115983378.277 7  90376756.78644  22070924.438                    22070932.102
 106680516.889 8  83127597.19746  20300605.477                    20300612.465
 126399541.159 6  98493264.98343  24053060.609                    24053069.340
 129418947.296 6 100845960.27443  24627616.008                    24627623.695
 124515640.468 7  97025154.84744  23694521.242                    23694529.043
 110234036.803 8  85896766.63146  20976862.344                    20976867.918
 124204554.981 6  96782630.49343  23635291.633                    23635300.766
 112907908.198 8  87980184.59045  21485659.492                    21485665.895
 121181942.563 7  94427453.66944  23060134.234                    23060143.203
 128095062.771 6  99814393.83643  24375689.836                    24375699.984
 112273061.247 8  87485453.745 7  21364836.094                    21364843.211
 11  8 19 16 54  0.0000000  0 11G03G13G06G16G28G19G11G23G08G10G07
 116066730.884 7  90441706.83644  22086785.625                    22086793.734
 106721953.134 8  83159885.16246  20308490.031                    20308496.816
 126492635.356 6  98565805.84943  24070775.734                    24070784.875
 129505574.037 6 100913461.55042  24644099.773                    24644108.227
 124459687.624 7  96981555.29743  23683873.289                    23683881.516
 110251560.235 8  85910421.24046  20980197.063                    20980202.500
 124126739.756 7  96721995.26243  23620484.297                    23620492.699
 112996791.510 8  88049444.26445  21502573.680                    21502579.570
 121110793.744 7  94372013.06244  23046595.414                    23046603.789
 128139600.271 6  99849098.32843  24384165.711                    24384175.781
 112222929.062 8  87446389.715 7  21355296.336                    21355303.723
 11  8 19 16 54 30.0000000  0 11G03G13G06G16G28G19G11G23G08G10G07
 116150482.317 7  90506967.66544  22102723.219                    22102731.387
 106763960.962 8  83192618.50546  20316484.148                    20316490.836
 126585970.039 7  98638534.12943  24088536.625                    24088545.383
 129592110.701 6 100980892.65043  24660566.813                    24660575.664
 124403955.750 7  96938127.91243  23673267.703                    23673276.352
 110269696.578 8  85924553.45746  20983648.273                    20983653.328
 124048969.588 7  96661395.15143  23605683.906                    23605693.656
 113086053.420 8  88118998.94145  21519559.609                    21519565.563
 121039607.656 7  94316543.41844  23033048.836                    23033057.496
 128184409.749 6  99884014.72543  24392692.375                    24392702.988
 112172911.849 8  87407415.283 7  21345778.203                    21345785.180
 11  8 19 16 55  0.0000000  0 11G03G13G06G16G28G19G11G23G08G10G07
 116234629.587 7  90572536.93245  22118735.805                    22118743.613
 106806539.218 8  83225796.34746  20324586.586                    20324593.473
 126679542.861 7  98711447.95743  24106343.203                    24106352.473
 129678556.480 6 101048253.00242  24677017.055                    24677026.012
 124348444.422 7  96894872.38244  23662704.117                    23662713.105
 110288445.283 8  85939162.81746  20987215.961                    20987221.719
 123971247.128 7  96600832.19744  23590895.367                    23590903.879
 113175691.654 8  88188846.86945  21536617.344                    21536623.320
 120968385.393 7  94261045.60144  23019495.961                    23019504.262
 128229488.629 6  99919141.05043  24401271.094                    24401280.371
 112123011.194 8  87368531.666 7  21336282.477                    21336289.980
 11  8 19 16 55 30.0000000  0 11G03G13G06G16G28G19G11G23G08G10G07
 116319170.448 7  90638412.91145  22134823.695                    22134831.113
 106849687.153 8  83259418.08846  20332797.406                    20332804.020
 126773351.455 6  98784545.51043  24124195.094                    24124203.707
 129764910.723 6 101115541.95742  24693450.461                    24693458.383
 124293153.419 7  96851788.55044  23652182.695                    23652191.473
 110307805.709 8  85954248.85646  20990900.469                    20990905.703
 123893575.593 6  96540308.94843  23576114.375                    23576123.816
 113265703.291 8  88258985.75145  21553745.883                    21553752.191
 120897127.618 7  94205520.08544  23005935.992                    23005944.801
 128274834.285 6  99954475.26943  24409900.336                    24409909.832
 112073228.872 8  87329740.269 7  21326809.328                    21326816.496
 11  8 19 16 56  0.0000000  0 11G03G13G06G16G28G19G11G23G08G10G07
 116404102.053 7  90704593.35745  22150985.688                    22150993.578
 106893403.536 8  83293482.78646  20341116.211                    20341123.133
 126867393.210 6  98857824.73444  24142090.727                    24142099.102
 129851172.877 6 101182759.11242  24709864.547                    24709874.348
 124238082.431 7  96808876.13744  23641703.242                    23641711.395
 110327777.395 8  85969811.21046  20994700.617                    20994706.160
 123815957.767 7  96479827.50743  23561344.469                    23561353.539
 113356086.232 8  88329413.95845  21570945.523                    21570951.488
 120825835.087 7  94149967.50244  22992369.234                    22992377.813
 128320444.496 6  99990015.67843  24418579.531                    24418589.535
 112023566.945 8  87291042.669 7  21317359.047                    21317366.207
 11  8 19 16 56 30.0000000  0 11G03G13G06G16G28G19G11G23G08G10G07
 116489421.427 7  90771075.96145  22167221.133                    22167229.273
 106937686.978 8  83327989.33546  20349543.141                    20349550.078
 126961665.304 6  98931283.47443  24160029.047                    24160038.668
 129937341.573 6 101249903.52242  24726262.711                    24726271.988
 124183230.763 7  96766134.62644  23631265.586                    23631273.207
 110348359.161 8  85985848.94846  20998617.336                    20998622.988
 123738396.533 6  96419390.21844  23546585.180                    23546594.121
 113446837.349 8  88400129.05445  21588215.031                    21588220.867
 120754508.804 7  94094388.60744  22978796.070                    22978804.566
 128366316.077 6 100025759.70243  24427308.234                    24427318.391
 111974025.424 8  87252438.895 7  21307931.641                    21307938.551
 11  8 19 16 57  0.0000000  0 11G03G13G06G16G28G19G11G23G08G10G07
 116575125.662 7  90837858.45044  22183530.094                    22183538.516
 106982536.038 8  83362936.63346  20358077.188                    20358084.695
 127056165.164 6  99004919.63043  24178012.547                    24178021.609
 130023416.318 6 101316974.65742  24742641.641                    24742651.059
 124128598.284 7  96723563.89844  23620869.336                    23620877.238
 110369550.482 8  86002361.65346  21002649.969                    21002655.480
 123660894.775 7  96358999.25943  23531837.063                    23531845.480
 113537954.013 8  88471128.98945  21605553.891                    21605559.922
 120683149.233 7  94038783.78844  22965217.039                    22965224.879
 128412446.399 6 100061705.35143  24436086.102                    24436096.355
 111924606.213 8  87213930.427 7  21298527.313                    21298534.383
 11  8 19 16 57 30.0000000  0 11G03G13G06G16G28G19G11G23G08G10G07
 116661211.794 7  90904938.51245  22199911.461                    22199920.195
 107027949.999 8  83398324.11346  20366719.680                    20366726.391
 127150890.633 6  99078731.62043  24196037.648                    24196046.660
 130109396.454 6 101383972.09942  24759004.852                    24759012.848
 124074185.062 7  96681164.00644  23610514.500                    23610522.844
 110391350.699 8  86019348.83246  21006798.094                    21006803.617
 123583455.460 6  96298656.96843  23517100.289                    23517109.363
 113629433.830 8  88542411.90445  21622961.750                    21622968.051
 120611757.820 7  93983154.13944  22951631.336                    22951639.938
 128458833.109 6 100097850.75643  24444913.586                    24444923.766
 111875311.385 8  87175518.876 7  21289146.594                    21289154.145
 11  8 19 16 58  0.0000000  0 11G03G13G06G16G28G19G11G23G08G10G07
 116747677.253 7  90972314.17644  22216365.617                    22216373.973
 107073927.222 8  83434150.49346  20375468.797                    20375475.461
 127245838.848 6  99152717.17843  24214105.375                    24214115.223
 130195280.577 6 101450894.72243  24775347.766                    24775355.883
 124019990.134 7  96638934.23144  23600201.539                    23600209.430
 110413758.554 8  86036809.48346  21011062.203                    21011068.039
 123506081.438 7  96238365.56943  23502376.984                    23502385.328
 113721274.194 8  88613975.75945  21640438.516                    21640444.469
 120540334.910 7  93927499.94244  22938040.422                    22938048.887
 128505473.463 6 100134193.86943  24453789.500                    24453799.230
 111826142.101 8  87137205.160 7  21279790.211                    21279797.375
 11  8 19 16 58 30.0000000  0 11G03G13G06G16G28G19G11G23G08G10G07
 116834519.029 7  91039983.06644  22232891.430                    22232899.578
 107120466.545 8  83470414.87746  20384324.789                    20384332.355
 127341007.392 6  99226874.39543  24232216.211                    24232225.398
 130281068.340 6 101517742.28743  24791672.031                    24791680.828
 123966013.540 7  96596874.57544  23589930.188                    23589938.203
 110436773.414 8  86054743.14146  21015442.000                    21015447.301
 123428775.658 7  96178127.33844  23487666.055                    23487674.105
 113813472.298 8  88685818.38745  21657983.289                    21657989.684
 120468881.303 7  93871821.84344  22924443.344                    22924451.547
 128552364.617 6 100170732.36443  24462711.320                    24462722.297
 111777099.763 8  87098990.364 7  21270457.852                    21270464.852
 11  8 19 16 59  0.0000000  0 11G03G13G06G16G28G19G11G23G08G10G07
 116921734.514 7  91107943.15144  22249487.461                    22249495.863
 107167566.513 8  83507116.11946  20393287.805                    20393294.895
 127436393.659 6  99301201.27443  24250367.453                    24250376.980
 130366759.041 6 101584514.19343  24807979.117                    24807987.691
 123912254.512 7  96554984.48044  23579699.719                    23579708.324
 110460394.458 8  86073149.13746  21019936.734                    21019942.609
 123351540.920 7  96117944.48844  23472968.922                    23472977.395
 113906025.417 7  88757937.63145  21675595.172                    21675601.863
 120397398.231 7  93816120.77744  22910840.359                    22910848.648
 128599503.857 7 100207464.18643  24471682.797                    24471692.813
 111728185.746 8  87060875.565 7  21261149.523                    21261156.602
 11  8 19 16 59 30.0000000  0 11G03G13G06G16G28G19G11G23G08G10G07
 117009321.178 7  91176192.48844  22266154.727                    22266163.691
 107215225.920 8  83544253.28946  20402357.125                    20402364.023
 127531994.972 6  99375695.74643  24268560.063                    24268569.383
 130452351.726 6 101651209.72343  24824266.016                    24824274.684
 123858712.897 7  96513263.79744  23569510.992                    23569519.539
 110484620.843 8  86092026.82546  21024546.945                    21024552.414
 123274380.347 7  96057819.39443  23458285.117                    23458293.914
 113998930.938 8  88830331.48345  21693274.914                    21693281.133
 120325886.219 7  93760397.16844  22897232.180                    22897240.316
 128646888.687 6 100244387.35443  24480699.922                    24480710.336
 111679401.842 8  87022862.142 7  21251866.570                    21251873.465
 11  8 19 17  0  0.0000000  0 11G03G13G06G16G28G19G11G23G08G10G07
 117097275.874 7  91244728.58844  22282892.180                    22282900.281
 107263443.297 8  83581825.25546  20411532.586                    20411539.605
 127627809.126 6  99450356.08543  24286792.953                    24286802.199
 130537845.634 6 101717828.29443  24840535.875                    24840543.637
 123805388.430 7  96471712.31143  23559364.164                    23559372.742
 110509451.700 8  86111375.53946  21029272.195                    21029277.742
 123197296.780 7  95997754.35044  23443616.484                    23443625.883
 114092186.464 8  88902998.05345  21711021.273                    21711027.168
 120254346.143 7  93704651.68245  22883618.172                    22883626.668
 128694516.634 6 100281499.98943  24489763.125                    24489773.555
 111630749.818 8  86984951.493 7  21242608.281                    21242615.309
 11  8 19 17  0 30.0000000  0 11G03G13G06G16G28G19G11G23G08G10G07
 117185595.372 7  91313548.95844  22299698.953                    22299707.152
 107312217.417 8  83619831.03046  20420813.992                    20420820.930
 127723833.343 7  99525180.06543  24305066.063                    24305075.133
 130623240.117 6 101784369.41243  24856785.953                    24856794.367
 123752280.607 7  96430329.64244  23549258.031                    23549265.992
 110534885.738 8  86131194.26546  21034112.273                    21034117.715
 123120293.186 7  95937751.57043  23428963.922                    23428971.816
 114185789.198 8  88975935.19745  21728832.664                    21728838.914
 120182779.304 7  93648885.35044  22869999.313                    22870008.758
 128742384.794 6 100318799.78243  24498871.750                    24498882.695
 111582230.860 8  86947144.519 7  21233375.203                    21233382.535
 11  8 19 17  1  0.0000000  0 11G03G13G06G16G28G19G11G23G08G10G07
 117274277.069 7  91382651.56444  22316574.266                    22316582.426
 107361546.923 8  83658269.57546  20430201.289                    20430208.414
 127820064.947 7  99600165.69243  24323378.367                    24323387.227
 130708534.583 6 101850832.58743  24873016.016                    24873025.148
 123699388.728 7  96389115.22044  23539192.688                    23539201.020
 110560922.191 8  86151482.40646  21039066.953                    21039072.352
 123043372.340 7  95877813.32843  23414325.664                    23414334.027
 114279736.067 8  89049140.50045  21746710.508                    21746716.949
 120111186.380 7  93593098.67744  22856375.477                    22856384.527
 128790490.459 6 100356284.65643  24508026.250                    24508036.824
 111533846.332 8  86909442.289 7  21224167.984                    21224175.383
 11  8 19 17  1 30.0000000  0 11G03G13G06G16G28G19G11G23G08G10G07
 117363318.130 7  91452034.19644  22333518.391                    22333526.578
 107411430.515 8  83697139.88246  20439693.734                    20439700.824
 127916501.872 7  99675311.29643  24341729.336                    24341738.492
 130793728.511 6 101917217.43243  24889228.500                    24889237.363
 123646712.856 7  96348069.14544  23529168.977                    23529176.770
 110587560.325 8  86172239.38146  21044136.063                    21044141.535
 122966537.595 7  95817942.12743  23399704.586                    23399713.395
 114374025.154 8  89122612.44145  21764653.539                    21764659.359
 120039568.411 7  93537292.50644  22842747.461                    22842756.191
 128838831.213 7 100393952.71843  24517225.125                    24517236.352
 111485598.203 8  86871846.344 7  21214986.453                    21214993.520
 11  8 19 17  2  0.0000000  0 10G03G13G06G28G19G11G23G08G10G07
 117452715.895 7  91521694.74744  22350530.438                    22350538.336
 107461866.552 8  83736440.65846  20449291.242                    20449298.410
 128013141.172 6  99750614.59943  24360118.578                    24360127.629
 123594252.345 7  96307190.88544  23519185.992                    23519194.203
 110614798.907 8  86193464.24446  21049319.289                    21049324.887
 122889791.805 7  95758140.28143  23385100.383                    23385108.859
 114468653.213 8  89196348.52945  21782660.109                    21782666.512
 119967926.614 7  93481467.78144  22829114.500                    22829122.773
 128887404.064 6 100431801.63343  24526468.008                    24526479.039
 111437488.071 8  86834357.943 7  21205831.820                    21205838.699
 11  8 19 17  2 30.0000000  0 10G03G13G06G28G19G11G23G08G10G07
 117542467.385 7  91591630.95444  22367609.523                    22367617.703
 107512853.584 8  83776170.78046  20458993.719                    20459000.797
 128109980.501 6  99826073.76043  24378547.148                    24378555.613
 123542006.683 7  96266480.05944  23509243.477                    23509252.289
 110642636.626 7  86215155.96646  21054616.477                    21054621.578
 122813137.703 7  95698409.86643  23370513.320                    23370521.926
 114563617.591 8  89270346.68045  21800731.641                    21800738.078
 119896261.535 7  93425624.90045  22815476.938                    22815485.363
 128936206.312 6 100469829.27343  24535755.328                    24535766.098
 111389517.360 8  86796978.179 7  21196703.195                    21196710.207
 11  8 19 17  3  0.0000000  0 10G03G13G06G28G19G11G23G08G10G07
 117632569.862 7  91661840.62544  22384754.984                    22384763.922
 107564390.973 8  83816329.75346  20468801.047                    20468807.867
 128207017.606 6  99901687.04243  24397012.484                    24397021.703
 123489975.939 7  96225936.66443  23499342.891                    23499350.855
 110671072.933 8  86237314.13446  21060027.313                    21060033.156
 122736578.627 7  95638753.49643  23355945.227                    23355953.770
 114658915.656 8  89344604.85045  21818866.219                    21818872.488
 119824574.627 7  93369765.01344  22801835.188                    22801843.563
 128985235.591 6 100508033.85643  24545084.547                    24545096.578
 111341687.937 8  86759708.507 7  21187601.344                    21187608.941
 11  8 19 17  3 30.0000000  0 10G03G13G06G28G19G11G23G08G10G07
 117723020.007 7  91732321.20744  22401967.383                    22401976.246
 107616475.615 8  83856915.16146  20478712.430                    20478719.684
 128304249.295 6  99977451.97843  24415514.938                    24415525.133
 123438158.934 7  96185559.82844  23489481.688                    23489490.723
 110700105.990 8  86259937.28746  21065552.680                    21065558.008
 122660116.935 7  95579173.02944  23341394.430                    23341403.113
 114754544.450 8  89419120.72545  21837064.133                    21837069.969
 119752866.492 7  93313888.57844  22788190.008                    22788197.719
 129034488.660 6 100546412.80843  24554458.117                    24554468.113
 111294000.638 8  86722549.577 7  21178526.672                    21178534.148
 11  8 19 17  4  0.0000000  0 10G03G13G06G28G19G11G23G08G10G07
 117813815.049 7  91803070.55544  22419245.336                    22419253.566
 107669106.447 8  83897926.16046  20488727.984                    20488735.113
 128401673.164 6 100053366.60043  24434055.023                    24434063.410
 123386555.117 7  96145349.11844  23479662.609                    23479669.695
 110729734.694 8  86283024.59546  21071190.891                    21071196.238
 122583755.806 7  95519670.89744  23326863.570                    23326871.641
 114850501.310 8  89493892.25045  21855323.867                    21855330.555
 119681137.891 7  93257996.20344  22774539.773                    22774548.391
 129083963.023 6 100584964.19843  24563872.813                    24563882.645
 111246457.241 8  86685502.790 7  21169479.586                    21169486.695
 11  8 19 17  4 30.0000000  0 10G03G13G06G28G19G11G23G08G10G07
 117904952.152 7  91874086.43644  22436588.430                    22436596.215
 107722281.915 8  83939361.56546  20498846.891                    20498853.988
 128499286.910 6 100129429.16143  24452629.539                    24452639.746
 123335164.435 6  96105304.51744  23469882.609                    23469891.012
 110759958.391 8  86306575.53846  21076942.297                    21076947.512
 122507498.361 7  95460249.55644  23312352.219                    23312360.898
 114946783.526 8  89568917.28045  21873645.844                    21873651.965
 119609390.092 7  93202088.86344  22760886.750                    22760895.516
 129133655.862 6 100623685.78543  24573328.391                    24573339.328
 111199059.650 8  86648569.603 7  21160460.109                    21160467.578
 11  8 19 17  5  0.0000000  0 10G03G13G06G28G19G11G23G08G10G07
 117996428.748 7  91945366.86744  22453995.547                    22454003.883
 107776000.612 8  83981220.25146  20509069.359                    20509076.520
 128597087.957 5 100205637.67043  24471240.766                    24471250.762
 123283986.433 7  96065425.59744  23460143.734                    23460152.410
 110790775.671 8  86330589.01346  21082806.617                    21082811.953
 122431347.644 7  95400911.38744  23297861.438                    23297869.605
 115043388.221 8  89644193.58845  21892029.133                    21892035.031
 119537624.206 7  93146167.41944  22747230.813                    22747238.867
 129183564.369 6 100662575.47243  24582826.477                    24582836.457
 111151809.657 8  86611751.444 7  21151468.813                    21151475.684
 11  8 19 17  5 30.0000000  0 10G03G13G06G28G19G11G23G08G10G07
 118088241.626 7  92016909.32344  22471466.852                    22471475.438
 107830261.073 8  84023501.10046  20519394.586                    20519402.082
 128695073.863 5 100281990.19543  24489886.625                    24489896.707
 123233020.621 7  96025712.04644  23450445.305                    23450453.719
 110822185.611 8  86355064.30146  21088783.164                    21088788.914
 122355306.649 7  95341658.71444  23283391.008                    23283399.578
 115140312.850 8  89719719.20845  21910473.547                    21910479.879
 119465841.348 7  93090232.75044  22733570.328                    22733578.715
 129233686.126 6 100701631.27543  24592364.531                    24592375.063
 111104708.650 8  86575049.378 7  21142505.578                    21142512.594
 11  8 19 17  6  0.0000000  0 10G03G13G06G28G19G11G23G08G10G07
 118180387.901 7  92088711.56044  22489001.992                    22489010.070
 107885061.349 8  84066202.58346  20529822.922                    20529829.863
 128793241.839 6 100358484.63643  24508567.172                    24508577.605
 123182266.204 7  95986163.21444  23440786.945                    23440795.551
 110854186.483 8  86380000.05646  21094873.008                    21094878.461
 122279378.086 7  95282493.64243  23268941.789                    23268950.801
 115237554.651 8  89795491.96445  21928978.266                    21928984.313
 119394042.393 7  93034285.53644  22719907.188                    22719915.762
 129284018.113 6 100740850.93143  24601942.586                    24601952.074
 111057758.022 8  86538464.501 7  21133571.242                    21133578.605
 11  8 19 17  6 30.0000000  0 10G03G13G06G28G19G11G23G08G10G07
 118272864.676 7  92160771.33744  22506599.203                    22506607.504
 107940399.857 8  84109323.46046  20540353.398                    20540360.563
 128891589.354 6 100435118.96643  24527283.367                    24527292.820
 123131722.865 6  95946778.84544  23431168.047                    23431176.988
 110886776.930 8  86405395.21346  21101074.688                    21101080.371
 122203565.078 7  95223418.62444  23254515.656                    23254524.055
 115335110.471 8  89871509.40945  21947542.172                    21947548.672
 119322228.223 7  92978326.46145  22706242.234                    22706250.367
 129334557.530 6 100780232.16543  24611559.703                    24611569.313
 111010959.421 8  86501998.080 7  21124665.797                    21124672.797
 11  8 19 17  7  0.0000000  0 10G03G13G06G28G19G11G23G08G10G07
 118365669.145 7  92233086.46244  22524259.672                    22524268.129
 107996274.671 8  84152862.24446  20550985.703                    20550993.098
 128990113.884 6 100511891.24943  24546031.430                    24546041.137
 123081389.804 7  95907558.33344  23421590.414                    23421599.305
 110919955.793 8  86431248.87746  21107388.477                    21107393.809
 122127870.498 7  95164435.87044  23240110.859                    23240119.516
 115432977.495 8  89947769.34945  21966165.977                    21966171.852
 119250399.812 7  92922356.29044  22692573.750                    22692582.113
 129385301.723 6 100819773.03342  24621216.172                    24621225.945
 110964314.313 8  86465651.255 7  21115789.758                    21115796.801
 11  8 19 17  7 30.0000000  0 10G03G13G06G28G19G11G23G08G10G07
 118458798.202 7  92305654.53644  22541981.563                    22541989.867
 108052684.441 8  84196817.86646  20561720.531                    20561727.902
 129088813.067 6 100588799.62943  24564813.977                    24564822.859
 123031266.756 7  95868501.48744  23412052.508                    23412060.891
 110953721.959 8  86457560.16246  21113813.805                    21113819.410
 122052297.508 7  95105547.89144  23225730.367                    23225738.645
 115531153.264 8  90024269.87045  21984848.258                    21984854.434
 119178558.169 7  92866375.81244  22678902.484                    22678910.285
 129436248.273 6 100859471.57743  24630910.906                    24630921.055
 110917824.749 8  86429425.635 7  21106943.094                    21106949.445
 11  8 19 17  8  0.0000000  0 10G03G13G06G28G19G11G23G08G10G07
 118552249.192 7  92378473.44144  22559764.555                    22559773.027
 108109627.052 8  84241188.69546  20572556.289                    20572563.473
 129187684.114 6 100665841.93243  24583628.250                    24583637.367
 122981353.032 7  95829607.71344  23402554.500                    23402563.035
 110988073.820 8  86484327.84946  21120350.898                    21120356.461
 121976849.072 7  95046756.95744  23211373.578                    23211381.473
 115629634.764 8  90101008.62445  22003588.516                    22003594.363
 119106704.567 7  92810386.00744  22665228.883                    22665237.492
 129487394.123 6 100899325.40443  24640642.789                    24640653.582
 110871492.286 8  86393322.430 7  21098126.133                    21098132.820
 11  8 19 17  8 30.0000000  0 10G03G13G06G28G19G11G23G08G10G07
 118646019.061 7  92451540.82944  22577608.711                    22577616.410
 108167101.376 8  84285973.84846  20583493.172                    20583500.332
 129286724.805 6 100743016.43343  24602474.859                    24602484.105
 122931648.302 7  95790876.80044  23393095.797                    23393103.738
 111023010.244 8  86511551.03446  21126999.242                    21127004.574
 121901528.293 7  94988065.50344  23197039.164                    23197047.754
 115728419.263 8  90177983.47445  22022386.570                    22022393.230
 119034840.566 7  92754388.11244  22651553.945                    22651562.512
 129538736.512 6 100939332.42143  24650412.852                    24650424.395
 110825318.599 8  86357342.955 7  21089339.797                    21089346.711
 11  8 19 17  9  0.0000000  0 10G03G13G06G28G19G11G23G08G10G07
 118740104.825 7  92524854.35944  22595512.172                    22595520.785
 108225105.140 8  84331171.55746  20594530.945                    20594538.516
 129385932.481 6 100820321.04843  24621353.445                    24621362.582
 122882151.760 7  95752308.12744  23383677.141                    23383684.883
 111058529.543 8  86539228.40946  21133758.555                    21133763.992
 121826337.579 7  94929475.41144  23182730.820                    23182740.043
 115827503.792 8  90255192.11545  22041241.945                    22041247.926
 118962966.750 7  92698382.57444  22637876.547                    22637884.703
 129590272.20616 100979490.00853  24660220.781                    24660231.426
 110779304.878 8  86321488.115 7  21080583.656                    21080590.691
 11  8 19 17  9 30.0000000  0 10G03G13G06G28G19G11G23G08G10G07
 118834503.832 7  92598411.98044  22613475.750                    22613483.887
 108283636.443 8  84376780.33246  20605669.398                    20605676.680
 129485304.606 6 100897753.83142  24640263.477                    24640273.137
 122832863.039 7  95713901.34344  23374297.883                    23374306.375
 111094630.374 8  86567358.92946  21140628.023                    21140633.609
 121751280.414 7  94870989.36444  23168448.461                    23168456.824
 115926885.602 7  90332632.40945  22060153.305                    22060159.840
 118891084.260 7  92642370.28644  22624197.922                    22624205.883
 129641998.791 6 101019796.40943  24670063.500                    24670075.027
 110733453.044 8  86285759.425 7  21071858.250                    21071865.660
 11  8 19 17 10  0.0000000  0 10G03G13G06G28G19G11G23G08G10G07
 118929213.103 7  92672211.38544  22631498.641                    22631506.898
 108342693.758 8  84422798.98646  20616907.656                    20616914.504
 129584838.910 6 100975313.00242  24659203.914                    24659213.375
 122783781.556 7  95675656.06444  23364957.953                    23364965.898
 111131311.741 8  86595941.80546  21147608.133                    21147613.777
 121676360.030 7  94812609.91343  23154191.523                    23154199.719
 116026562.189 7  90410302.39145  22079121.352                    22079127.883
 118819194.345 7  92586352.19345  22610517.516                    22610525.402
 129693913.896 6 101060249.61642  24679943.023                    24679953.027
 110687765.094 8  86250158.437 7  21063164.008                    21063171.199
 11  8 19 17 10 30.0000000  0 10G03G13G06G28G19G11G23G08G10G07
 119024229.938 7  92746250.43444  22649579.406                    22649588.109
 108402275.411 8  84469226.22946  20628245.477                    20628252.816
 129684532.836 5 101052996.56542  24678174.531                    24678184.781
 122734906.929 7  95637571.96544  23355657.250                    23355665.406
 111168571.689 8  86624975.53046  21154698.320                    21154704.133
 121601579.049 6  94754339.09644  23139960.867                    23139969.195
 116126530.564 7  90488199.73945  22098144.547                    22098151.410
 118747298.147 7  92530329.20945  22596836.492                    22596844.008
 129746014.621 6 101100847.49243  24689856.734                    24689868.238
 110642242.642 8  86214686.405 7  21054501.641                    21054508.645
 11  8 19 17 11  0.0000000  0 10G03G13G06G28G19G11G23G08G10G07
 119119551.550 7  92820526.95844  22667719.250                    22667727.434
 108462379.689 8  84516060.69646  20639683.125                    20639690.164
 129784384.229 5 101130802.72842  24697175.773                    24697186.633
 122686238.687 7  95599648.67344  23346396.211                    23346404.102
 111206409.372 8  86654459.43046  21161898.914                    21161904.551
 121526940.987 7  94696179.63944  23125757.711                    23125766.160
 116226787.969 7  90566322.29145  22117223.086                    22117230.102
 118675396.978 7  92474302.36545  22583153.750                    22583161.730
 129798298.197 6 101141587.87343  24699806.469                    24699817.832
 110596887.823 8  86179344.994 7  21045870.641                    21045877.707
 11  8 19 17 11 30.0000000  0 10G03G13G06G28G19G11G23G08G10G07
 119215174.910 7  92895038.61644  22685915.281                    22685923.656
 108523004.843 8  84563301.03946  20651219.859                    20651227.074
 129884390.417 6 101208729.54942  24716207.016                    24716217.566
 122637775.989 7  95561885.55244  23337173.898                    23337181.977
 111244822.969 8  86684392.09446  21169208.766                    21169214.391
 121452448.790 7  94638133.81044  23111582.695                    23111590.289
 116327331.741 8  90644667.99745  22136356.422                    22136362.375
 118603491.939 7  92418272.51444  22569470.531                    22569478.582
 129850761.700 6 101182468.43543  24709790.719                    24709801.762
 110551702.058 8  86144135.322 7  21037271.961                    21037278.961
 11  8 19 17 12  0.0000000  0 10G03G13G06G28G19G11G23G08G10G07
 119311096.670 7  92969782.79244  22704169.258                    22704177.500
 108584148.450 8  84610945.38046  20662855.078                    20662862.230
 129984548.670 6 101286774.84343  24735266.250                    24735276.918
 122589518.208 7  95524282.11944  23327990.641                    23327998.957
 111283810.989 8  86714772.36546  21176627.883                    21176633.656
 121378105.100 7  94580203.71344  23097435.000                    23097443.543
 116428158.607 7  90723234.30945  22155542.500                    22155549.129
 118531584.082 7  92362240.44945  22555787.477                    22555795.141
 129903402.430 6 101223487.14143  24719807.406                    24719819.047
 110506686.425 8  86109058.203 7  21028705.727                    21028712.770
 11  8 19 17 12 30.0000000  0 10G03G13G06G28G19G11G23G08G10G07
 119407314.115 7  93044757.35944  22722478.625                    22722487.492
 108645808.526 8  84658992.17046  20674588.180                    20674595.777
 130084856.547 6 101364936.74543  24754354.438                    24754364.426
 122541464.872 7  95486837.97144  23318846.070                    23318853.801
 111323371.490 8  86745598.74446  21184155.797                    21184161.422
 121303913.038 7  94522391.73544  23083317.086                    23083325.848
 116529265.938 8  90802019.16045  22174783.047                    22174789.496
 118459674.614 7  92306207.15945  22542102.891                    22542111.227
 129956217.417 6 101264641.62743  24729857.711                    24729869.160
 110461842.917 8  86074115.223 7  21020172.359                    21020179.301
 11  8 19 17 13  0.0000000  0 10G03G13G06G28G19G11G23G08G10G07
 119503824.416 7  93119960.13144  22740843.922                    22740852.676
 108707983.237 8  84707439.96246  20686419.664                    20686427.344
 130185311.483 6 101443213.26043  24773471.188                    24773480.426
 122493615.258 7  95449552.58844  23309740.875                    23309748.508
 111363503.075 8  86776870.10646  21191792.781                    21191798.324
 121229875.593 7  94464700.25144  23069227.875                    23069236.223
 116630650.648 7  90881020.15845  22194076.008                    22194082.961
 118387764.696 7  92250173.48945  22528419.273                    22528427.379
 130009203.976 6 101305929.66243  24739941.492                    24739951.582
 110417173.220 8  86039307.669 7  21011671.570                    21011678.766
 11  8 19 17 13 30.0000000  0 10G03G13G06G28G19G11G23G08G10G07
 119600624.717 7  93195388.88544  22759264.461                    22759273.102
 108770670.955 8  84756287.50546  20698349.078                    20698356.625
 130285911.192 6 101521602.54943  24792614.141                    24792624.043
 122445968.945 7  95412425.60244  23300673.875                    23300681.520
 111404204.439 8  86808585.45646  21199538.094                    21199543.906
 121155995.846 7  94407131.66044  23055169.281                    23055177.023
 116732310.027 7  90960235.16445  22213421.094                    22213428.199
 118315855.739 7  92194140.58645  22514735.680                    22514743.371
 130062359.270 6 101347349.36642  24750056.813                    24750067.070
 110372679.330 8  86004637.108 7  21003205.039                    21003211.848
 11  8 19 17 14  0.0000000  0 10G03G13G06G28G19G11G23G08G10G07
 119697712.331 7  93271041.52244  22777739.445                    22777748.625
 108833869.254 8  84805532.89646  20710375.188                    20710382.520
 130386652.956 6 101600102.55643  24811785.414                    24811794.770
 122398524.957 7  95375456.29244  23291645.500                    23291653.535
 111445473.306 8  86840743.00546  21207391.211                    21207396.723
 121082276.821 7  94349688.30644  23041140.805                    23041149.168
 116834240.985 8  91039661.78645  22232818.133                    22232825.070
 118243948.777 7  92138109.22445  22501051.578                    22501060.117
 130115680.543 6 101388898.29143  24760202.805                    24760213.973
 110328362.669 8  85970104.636 7  20994771.867                    20994779.176
 11  8 19 17 14 30.0000000  0 11G03G13G06G01G28G19G11G23G08G10G07
 119795084.075 7  93346915.53444  22796268.383                    22796277.215
 108897576.123 8  84855174.58046  20722498.531                    20722505.613
 130487534.251 6 101678711.27844  24830982.070                    24830992.156
 129710753.06515 101073370.26915  24683143.320                    24683156.609
 122351282.898 7  95338644.31244  23282656.086                    23282663.691
 111487308.330 8  86873341.73146  21215352.219                    21215357.500
 121008721.487 7  94292372.49144  23027143.961                    23027152.039
 116936440.685 7  91119297.83245  22252266.219                    22252272.684
 118172044.987 7  92082080.34445  22487368.883                    22487376.961
 130169165.126 6 101430574.53943  24770381.406                    24770391.570
 110284224.942 8  85935711.609 7  20986373.047                    20986380.266
 11  8 19 17 15  0.0000000  0 11G03G13G06G01G28G19G11G23G08G10G07
 119892737.087 7  93423008.73744  22814851.539                    22814859.984
 108961789.722 8  84905211.11146  20734717.922                    20734724.848
 130588552.763 6 101757426.93643  24850205.227                    24850215.277
 129636066.396 6 101015172.903 6  24668930.180                    24668944.609
 122304242.244 7  95301989.30744  23273704.094                    23273712.301
 111529708.237 8  86906380.61246  21223420.508                    21223426.547
 120935333.031 7  94235186.70844  23013178.375                    23013186.832
 117038906.564 8  91199141.28145  22271765.039                    22271771.813
 118100146.071 7  92026055.24445  22473687.195                    22473695.094
 130222809.940 7 101472375.59843  24780589.758                    24780599.879
 110240268.319 8  85901459.692 7  20978008.070                    20978014.977
 11  8 19 17 15 30.0000000  0 11G03G13G06G01G28G19G11G23G08G10G07
 119990668.509 7  93499318.84744  22833487.453                    22833495.879
 109026508.471 8  84955641.26546  20747033.367                    20747040.609
 130689706.420 6 101836247.89543  24869454.422                    24869463.969
 129561267.850 6 100956888.356 6  24654697.469                    24654710.973
 122257402.179 7  95265490.58544  23264790.828                    23264798.719
 111572671.156 8  86939858.19846  21231596.016                    21231601.730
 120862114.464 7  94178133.33244  22999245.391                    22999253.500
 117141635.968 7  91279190.08445  22291313.773                    22291319.992
 118028253.045 7  91970034.73145  22460005.797                    22460013.949
 130276612.813 7 101514299.83643  24790828.063                    24790837.883
 110196494.319 8  85867350.082 7  20969678.031                    20969685.000
 11  8 19 17 16  0.0000000  0 10G03G13G01G28G19G11G23G08G10G07
 120088875.618 7  93575843.81643  22852175.992                    22852183.652
 109091730.113 8  85006463.29146  20759444.875                    20759452.508
 129486360.070 6 100898518.714 6  24640441.766                    24640456.668
 122210762.450 7  95229147.95844  23255915.453                    23255923.867
 111616195.244 7  86973773.05246  21239878.445                    21239884.199
 120789068.698 7  94121214.60044  22985344.992                    22985353.211
 117244625.662 7  91359441.71245  22310912.055                    22310918.852
 117956367.268 7  91914019.86845  22446326.477                    22446334.590
 130330570.577 6 101556344.73242  24801095.891                    24801106.352
 110152905.064 8  85833384.441 7  20961383.203                    20961390.270
 11  8 19 17 16 30.0000000  0 10G03G13G01G28G19G11G23G08G10G07
 120187355.343 7  93652581.21444  22870915.828                    22870924.227
 109157452.287 8  85057675.33046  20771951.219                    20771958.848
 129411345.268 6 100840065.690 6  24626167.664                    24626181.426
 122164322.009 7  95192960.63144  23247078.219                    23247086.504
 111660278.709 8  87008123.80046  21248267.383                    21248273.031
 120716198.898 7  94064432.97544  22971478.039                    22971486.750
 117347872.778 7  91439893.91345  22330559.336                    22330566.625
 117884489.792 7  91858011.46745  22432648.727                    22432656.934
 130384680.220 6 101598508.03942  24811391.945                    24811402.969
 110109501.779 8  85799563.697 7  20953124.172                    20953131.172
 11  8 19 17 17  0.0000000  0 10G03G13G01G28G19G11G23G08G10G07
 120286104.538 7  93729528.56444  22889706.883                    22889715.895
 109223672.906 8  85109275.77346  20784552.406                    20784560.180
 129336226.048 6 100781531.298 6  24611872.203                    24611887.281
 122118080.208 7  95156928.10244  23238278.789                    23238286.754
 111704920.009 7  87042909.21546  21256762.648                    21256767.969
 120643508.235 7  94007790.95644  22957645.438                    22957654.000
 117451374.387 7  91520544.41545  22350255.047                    22350261.563
 117812621.826 7  91802010.47345  22418972.953                    22418981.039
 130438939.187 6 101640787.67643  24821717.133                    24821728.207
 110066286.331 8  85765889.350 7  20944900.266                    20944907.590
 11  8 19 17 17 30.0000000  0 10G03G13G01G28G19G11G23G08G10G07
 120385120.668 7  93806683.92144  22908549.766                    22908557.984
 109290390.024 8  85161263.10046  20797248.641                    20797256.348
 129261005.491 6 100722917.960 6  24597558.117                    24597572.352
 122072036.508 7  95121049.94844  23229516.914                    23229525.043
 111750117.502 7  87078128.03346  21265363.141                    21265369.000
 120570999.621 7  93951290.78644  22943847.422                    22943856.676
 117555127.569 7  91601390.95045  22369998.500                    22370005.445
 117740765.030 7  91746018.17945  22405299.188                    22405307.305
 130493344.609 6 101683181.42842  24832070.570                    24832081.512
 110023260.829 8  85732362.966 7  20936713.102                    20936719.883
 11  8 19 17 18  0.0000000  0 10G03G13G01G28G19G11G23G08G10G07
 120484400.808 7  93884045.00243  22927442.289                    22927450.305
 109357601.407 8  85213635.56946  20810038.563                    20810045.906
 129185685.993 6 100664227.527 6  24583225.688                    24583240.008
 122026190.218 7  95085325.60644  23220792.492                    23220800.859
 111795869.059 7  87113778.58446  21274069.328                    21274074.797
 120498676.012 7  93894934.77244  22930084.578                    22930093.605
 117659129.299 7  91682431.16945  22389789.953                    22389796.891
 117668920.583 7  91690035.50745  22391627.570                    22391635.230
 130547893.632 6 101725687.01643  24842451.117                    24842462.055
 109980426.586 7  85698985.649 7  20928561.945                    20928568.836
 11  8 19 17 18 30.0000000  0 10G03G13G01G28G19G11G23G08G10G07
 120583941.975 6  93961609.49044  22946383.688                    22946392.602
 109425304.923 8  85266391.51546  20822921.945                    20822929.730
 129110270.008 6 100605461.909 6  24568874.648                    24568888.816
 121980540.442 7  95049754.40744  23212105.664                    23212113.711
 111842172.555 8  87149859.20646  21282880.602                    21282885.953
 120426540.418 7  93838725.26344  22916357.922                    22916366.594
 117763376.854 7  91763662.94745  22409627.500                    22409634.336
 117597089.730 7  91634063.43545  22377958.539                    22377966.508
 130602583.347 6 101768302.33343  24852858.156                    24852869.285
 109937785.528 8  85665758.888 7  20920447.195                    20920454.730
 11  8 19 17 19  0.0000000  0 10G03G13G01G28G19G11G23G08G10G07
 120683741.116 7  94039374.98244  22965374.930                    22965383.762
 109493498.332 8  85319529.19746  20835898.781                    20835906.484
 129034760.395 6 100546623.331 6  24554505.492                    24554519.902
 121935086.785 7  95014335.99244  23203455.914                    23203464.418
 111889026.652 8  87186368.87746  21291796.914                    21291802.371
 120354595.814 7  93782664.57744  22902667.531                    22902675.590
 117867867.258 7  91845083.94245  22429511.250                    22429518.453
 117525273.760 7  91578102.94344  22364292.008                    22364299.938
 130657411.058 6 101811025.17142  24863291.180                    24863302.324
 109895339.129 8  85632683.782 7  20912369.914                    20912377.430
 11  8 19 17 19 30.0000000  0 11G03G13G24G01G28G19G11G23G08G10G07
 120783795.537 6  94117339.39243  22984414.867                    22984423.648
 109562179.477 8  85373046.93646  20848968.328                    20848976.008
 128080950.51416  99803393.15453  24372996.625                    24373008.969
 128959159.458 6 100487713.621 7  24540119.117                    24540133.328
 121889828.424 7  94979069.78744  23194843.742                    23194851.719
 111936429.407 8  87223306.06446  21300816.953                    21300822.770
 120282845.394 7  93726755.22344  22889014.297                    22889022.105
 117972597.736 7  91926692.00145  22449440.734                    22449447.426
 117453474.204 7  91522155.24645  22350629.594                    22350636.926
 130712374.194 6 101853853.51143  24873750.469                    24873762.195
 109853089.707 8  85599762.161 7  20904330.422                    20904337.066
 11  8 19 17 20  0.0000000  0 11G03G13G24G01G28G19G11G23G08G10G07
 120884102.210 7  94195500.37544  23003502.813                    23003511.383
 109631346.142 8  85426943.00646  20862130.648                    20862138.250
 128009051.024 6  99747367.68943  24359315.836                    24359326.543
 128883470.320 6 100428735.194 6  24525716.023                    24525729.945
 121844764.527 7  94943955.11144  23186268.352                    23186276.203
 111984378.923 8  87260669.29246  21309941.867                    21309947.250
 120211291.976 7  93670999.36144  22875397.172                    22875405.922
 118077565.220 7  92008484.75945  22469416.328                    22469422.754
 117381692.366 7  91466221.36445  22336969.422                    22336977.398
 130767469.998 6 101896785.25142  24884235.203                    24884245.613
 109811038.958 8  85566995.354 7  20896328.313                    20896335.227
 11  8 19 17 20 30.0000000  0 11G03G13G24G01G28G19G11G23G08G10G07
 120984658.202 7  94273855.63444  23022637.977                    23022646.652
 109700996.142 8  85481215.68646  20875384.258                    20875391.727
 127937079.436 6  99691286.04143  24345619.125                    24345631.109
 128807695.176 6 100369689.736 6  24511295.914                    24511310.539
 121799894.554 7  94908991.53444  23177729.766                    23177737.758
 112032873.311 8  87298457.09446  21319169.813                    21319175.477
 120139938.657 7  93615399.42444  22861819.305                    22861827.707
 118182766.715 7  92090459.85944  22489434.984                    22489442.004
 117309929.631 7  91410302.37845  22323313.375                    22323321.879
 130822695.515 6 101939817.98642  24894743.813                    24894755.375
 109769188.489 8  85534384.615 7  20888365.078                    20888371.684
 11  8 19 17 21  0.0000000  0 11G03G13G24G01G28G19G11G23G08G10G07
 121085461.126 7  94352403.27444  23041819.648                    23041828.816
 109771127.553 8  85535863.49946  20888730.156                    20888737.578
 127865038.556 6  99635150.37542  24331910.727                    24331921.945
 128731837.043 6 100310579.631 6  24496860.555                    24496874.754
 121755218.080 7  94874178.72644  23169228.461                    23169236.559
 112081910.871 8  87336668.16046  21328501.289                    21328507.449
 120068788.639 7  93559957.92144  22848280.078                    22848287.711
 118288199.653 7  92172615.30045  22509498.234                    22509505.336
 117238187.486 7  91354399.41445  22309661.438                    22309669.461
 130878047.909 6 101982949.63643  24905278.055                    24905288.008
 109727540.439 8  85501931.607 7  20880439.250                    20880446.184
 11  8 19 17 21 30.0000000  0 11G03G13G24G01G28G19G11G23G08G10G07
 121186507.791 7  94431140.87443  23061048.758                    23061057.207
 109841738.090 8  85590884.65546  20902166.922                    20902174.426
 127792931.020 6  99578962.76643  24318187.453                    24318200.363
 128655898.455 6 100251406.839 6  24482409.852                    24482424.188
 121710734.107 7  94839515.94144  23160763.047                    23160770.793
 112131489.435 8  87375300.78346  21337936.063                    21337941.582
 119997845.034 7  93504677.20544  22834779.727                    22834787.738
 118393860.861 7  92254948.62244  22529605.117                    22529612.145
 117166467.177 7  91298513.47545  22296013.156                    22296022.059
 130933524.352 6 102026177.99543  24915834.844                    24915846.637
 109686096.350 8  85469637.515 7  20872552.625                    20872559.398
 11  8 19 17 22  0.0000000  0 11G03G13G24G01G28G19G11G23G08G10G07
 121287795.827 7  94510066.54644  23080322.992                    23080331.699
 109912825.555 8  85646277.44946  20915694.656                    20915701.883
 127720760.018 6  99522725.74043  24304454.445                    24304466.344
 128579882.352 6 100192173.610 6  24467944.281                    24467958.492
 121666442.413 7  94805002.96844  23152334.906                    23152342.039
 112181607.457 8  87414353.77746  21347473.039                    21347478.633
 119927111.527 7  93449560.22244  22821319.969                    22821327.734
 118499747.947 7  92337457.93644  22549754.461                    22549761.633
 117094770.591 7  91242646.02945  22282370.016                    22282378.098
 130989122.545 6 102069501.16342  24926414.016                    24926425.992
 109644858.680 8  85437504.278 7  20864705.297                    20864712.348
 11  8 19 17 22 30.0000000  0 10G03G13G24G01G28G19G11G23G08G07
 121389322.241 7  94589177.95844  23099643.563                    23099652.063
 109984387.609 8  85702040.05246  20929312.125                    20929319.938
 127648528.031 6  99466441.20742  24290708.758                    24290721.578
 128503791.218 5 100132881.913 6  24453464.672                    24453478.648
 121622341.947 7  94770638.99344  23143942.234                    23143949.926
 112232262.766 7  87453825.43446  21357112.281                    21357118.324
 119856590.321 7  93394608.67944  22807899.727                    22807907.309
 118605857.728 7  92420140.77245  22569947.203                    22569954.207
 117023098.878 7  91186797.96545  22268731.125                    22268739.422
 109603828.849 8  85405533.009 7  20856897.617                    20856904.762
 11  8 19 17 23  0.0000000  0 10G03G13G24G01G28G19G11G23G08G07
 121491083.712 7  94668472.57844  23119007.336                    23119015.965
 110056421.423 8  85758170.25246  20943019.625                    20943027.457
 127576237.324 6  99410110.85343  24276953.297                    24276965.262
 128427627.200 6 100073533.415 6  24438971.289                    24438985.434
 121578431.520 7  94736423.09644  23135586.117                    23135594.266
 112283452.793 7  87493713.76646  21366853.734                    21366859.172
 119786284.118 7  93339824.64544  22794521.125                    22794529.141
 118712186.858 7  92502994.53844  22590181.031                    22590187.590
 116951453.320 7  91130970.28745  22255097.719                    22255105.801
 109563008.159 8  85373724.685 7  20849129.734                    20849136.793
 11  8 19 17 23 30.0000000  0 10G03G13G24G01G28G19G11G23G08G07
 121593077.184 7  94747947.91443  23138416.180                    23138425.438
 110128924.726 8  85814666.29646  20956817.008                    20956824.289
 127503890.597 6  99353736.88843  24263185.906                    24263197.961
 128351393.232 6 100014130.438 6  24424463.922                    24424478.363
 121534710.622 7  94702354.90044  23127266.758                    23127274.242
 112335175.773 7  87534017.37746  21376696.156                    21376702.121
 119716196.368 7  93285210.85144  22781183.703                    22781191.918
 118818732.466 7  92586017.00544  22610455.500                    22610462.348
 116879835.391 7  91075164.13145  22241469.398                    22241477.168
 109522398.782 8  85342081.010 7  20841402.156                    20841409.352
 11  8 19 17 24  0.0000000  0 10G03G13G24G01G28G19G11G23G08G07
 121695299.875 7  94827601.89644  23157868.414                    23157878.082
 110201895.462 8  85871526.57446  20970702.648                    20970710.070
 127431490.858 6  99297321.55742  24249407.289                    24249420.535
 128275092.332 6  99954675.269 6  24409944.297                    24409958.625
 121491178.646 7  94668433.90044  23118982.641                    23118990.613
 112387429.823 7  87574734.81246  21386639.586                    21386645.504
 119646330.198 7  93230769.71644  22767888.688                    22767896.867
 118925491.782 7  92669205.95844  22630771.773                    22630778.156
 116808246.623 7  91019380.72945  22227846.117                    22227854.500
 109482002.558 8  85310603.443 7  20833714.945                    20833721.949
 11  8 19 17 24 30.0000000  0 10G03G13G24G01G28G19G11G23G08G07
 121797748.826 7  94907432.17443  23177363.875                    23177373.066
 110275331.016 8  85928749.04445  20984677.125                    20984684.344
 127359040.784 6  99240867.05842  24235621.469                    24235633.285
 128198726.866 6  99895169.767 6  24395412.117                    24395426.457
 121447834.569 7  94634659.32344  23110734.680                    23110742.305
 112440212.809 8  87615864.40946  21396684.242                    21396689.688
 119576688.242 7  93176503.29144  22754636.195                    22754643.996
 119032461.663 7  92752559.02544  22651127.320                    22651134.219
 116736688.414 7  90963621.11445  22214229.094                    22214236.824
 109441820.902 8  85279293.057 7  20826068.359                    20826075.555
 11  8 19 17 25  0.0000000  0 10G03G13G24G01G28G19G11G23G08G07
 121900421.586 7  94987436.84444  23196902.305                    23196910.871
 110349229.356 8  85986332.13246  20998739.375                    20998747.227
 127286543.257 6  99184375.54443  24221825.383                    24221837.492
 128122299.752 6  99835616.232 6  24380868.289                    24380882.973
 121404677.942 7  94601030.81644  23102522.156                    23102529.785
 112493522.956 7  87657404.77846  21406828.578                    21406834.398
 119507273.799 7  93122414.16044  22741427.109                    22741434.375
 119139639.348 7  92836073.99045  22671522.703                    22671529.578
 116665162.162 7  90907886.40645  22200617.781                    22200626.355
 109401856.067 8  85248151.640 7  20818463.047                    20818470.145
 11  8 19 17 25 30.0000000  0 10G03G13G24G01G28G19G11G23G08G07
 122003315.163 7  95067613.58243  23216482.852                    23216490.934
 110423587.693 8  86044273.63946  21012889.492                    21012896.871
 127214000.964 6  99127849.14542  24208021.031                    24208032.465
 128045813.592 6  99776016.704 6  24366314.180                    24366328.207
 121361707.797 7  94567547.59944  23094345.266                    23094352.988
 112547357.533 8  87699353.80346  21417073.367                    21417078.793
 119438089.736 7  93068504.52444  22728261.938                    22728269.609
 119247021.864 7  92919748.58544  22691956.758                    22691964.129
 116593669.300 7  90852177.71045  22187013.711                    22187021.719
 109362110.024 8  85217180.684 7  20810899.867                    20810906.824
 11  8 19 17 26  0.0000000  0 10G03G13G24G01G28G19G11G23G08G07
 122106426.786 7  95147960.21843  23236104.211                    23236112.348
 110498403.793 8  86102571.85946  21027126.398                    21027134.074
 127141416.734 6  99071290.09742  24194208.625                    24194220.063
 127969271.273 6  99716373.430 6  24351748.547                    24351762.418
 121318923.141 7  94534208.92244  23086203.500                    23086211.625
 112601714.655 8  87741709.99646  21427416.602                    21427422.387
 119369139.196 7  93014776.86744  22715140.641                    22715148.844
 119354606.244 7  93003580.47144  22712429.492                    22712436.988
 116522211.337 7  90796496.21145  22173415.813                    22173423.758
 109322584.220 8  85186381.371 7  20803378.570                    20803385.512
 11  8 19 17 26 30.0000000  0 10G03G13G24G01G28G19G11G23G08G07
 122209753.867 7  95228474.74643  23255766.695                    23255775.109
 110573675.942 8  86161225.44846  21041450.117                    21041457.555
 127068793.407 6  99014700.61943  24180388.039                    24180401.223
 127892675.685 6  99656688.666 6  24337172.039                    24337186.605
 121276323.806 7  94501014.64844  23078096.930                    23078105.301
 112656592.502 8  87784471.93946  21437859.453                    21437865.500
 119300425.217 7  92961233.55444  22702065.242                    22702073.074
 119462389.738 7  93087567.47144  22732940.172                    22732947.227
 116450790.081 7  90740843.31945  22159824.367                    22159832.543
 109283281.054 8  85155755.535 7  20795899.133                    20795906.352
 11  8 19 17 27  0.0000000  0 10G03G13G24G01G28G19G11G23G08G07
 122313292.853 6  95309154.42643  23275469.672                    23275478.172
 110649400.642 8  86220231.67146  21055860.102                    21055867.762
 126996133.414 6  98958082.56743  24166561.734                    24166574.047
 127816029.056 6  99596964.129 6  24322587.219                    24322601.031
 121233908.628 7  94467963.89944  23070025.742                    23070033.762
 112711988.686 8  87827637.78646  21448401.203                    21448406.902
 119231950.719 7  92907876.84144  22689034.797                    22689042.734
 119570369.152 7  93171707.14744  22753487.664                    22753495.430
 116379406.932 7  90685220.11045  22146240.500                    22146248.559
 109244201.783 8  85125304.156 7  20788462.883                    20788469.816
 11  8 19 17 27 30.0000000  0 10G03G13G24G01G28G19G11G23G08G07
 122417041.179 6  95389997.17143  23295212.117                    23295220.684
 110725575.282 8  86279588.49346  21070355.602                    21070363.297
 126923439.434 6  98901438.03343  24152727.938                    24152740.664
 127739334.136 6  99537201.948 6  24307992.586                    24308007.133
 121191676.584 7  94435055.84544  23061989.664                    23061997.551
 112767900.798 8  87871205.65446  21459041.008                    21459046.527
 119163718.623 7  92854709.01644  22676050.766                    22676058.531
 119678541.306 7  93255997.03744  22774072.422                    22774079.805
 116308063.292 7  90629627.68345  22132664.711                    22132672.578
 109205348.121 8  85095028.583 7  20781068.945                    20781076.309
 11  8 19 17 28  0.0000000  0 10G03G13G24G01G28G19G11G23G08G07
 122520996.196 6  95471001.00843  23314993.773                    23315003.074
 110802198.130 8  86339294.57746  21084936.656                    21084944.254
 126850714.851 6  98844769.62543  24138888.922                    24138901.355
 127662593.988 6  99477404.518 6  24293389.180                    24293403.582
 121149627.464 7  94402290.32344  23053987.781                    23053995.328
 112824327.049 8  87915174.15046  21469778.367                    21469784.500
 119095732.191 7  92801732.62344  22663113.570                    22663121.066
 119786903.781 7  93340435.22844  22794693.602                    22794700.547
 116236760.846 7  90574067.35845  22119096.016                    22119104.086
 109166722.773 8  85064930.911 7  20773719.000                    20773726.133
 11  8 19 17 28 30.0000000  0 10G03G13G24G01G28G19G11G23G08G07
 122625155.079 6  95552163.70143  23334814.281                    23334823.617
 110879266.775 8  86399348.02846  21099602.188                    21099609.695
 126777962.565 6  98788079.62843  24125044.609                    24125057.004
 127585811.624 6  99417574.234 6  24278778.477                    24278792.086
 121107760.272 7  94369666.56744  23046020.625                    23046028.297
 112881265.324 8  87959541.62946  21480613.680                    21480619.172
 119027994.289 7  92748949.89344  22650222.914                    22650231.125
 119895453.458 7  93425019.28044  22815349.648                    22815357.238
 116165501.307 7  90518540.46545  22105535.852                    22105543.438
 109128327.378 8  85035012.431 7  20766412.742                    20766419.719
 11  8 19 17 29  0.0000000  0 10G03G13G24G01G28G19G11G23G08G07
 122729514.694 7  95633482.82043  23354674.320                    23354682.770
 110956778.758 8  86459746.92946  21114352.281                    21114360.008
 126705185.275 6  98731370.14943  24111195.672                    24111207.789
 127508989.573 6  99357713.006 7  24264159.656                    24264173.230
 121066074.405 7  94337184.09244  23038087.773                    23038095.949
 112938713.473 8  88004306.40146  21491545.539                    21491551.445
 118960508.349 7  92696363.49744  22637380.492                    22637388.906
 120004187.588 7  93509747.05044  22836040.930                    22836048.207
 116094286.216 7  90463048.21145  22091983.789                    22091991.957
 109090163.608 8  85005274.438 7  20759150.195                    20759157.508
 11  8 19 17 29 30.0000000  0 10G03G13G24G01G28G19G11G23G08G07
 122834072.669 6  95714956.51743  23374570.211                    23374579.500
 111034731.410 8  86520489.21746  21129186.367                    21129193.875
 126632385.588 6  98674643.22743  24097342.164                    24097353.730
 127432130.583 6  99297822.981 6  24249533.273                    24249547.543
 121024568.558 7  94304841.90644  23030189.422                    23030197.688
 112996668.846 7  88049466.40146  21502574.398                    21502579.789
 118893276.960 7  92643975.44344  22624587.117                    22624594.910
 120113102.872 7  93594615.98744  22856766.844                    22856774.297
 116023116.933 7  90407591.64745  22078440.680                    22078449.043
 109052233.170 8  84975718.253 7  20751932.359                    20751939.254
 11  8 19 17 30  0.0000000  0 10G03G13G24G01G28G19G11G23G08G07
 122938825.951 7  95796582.39443  23394504.953                    23394513.762
 111113121.548 8  86581572.40045  21144103.625                    21144111.129
 126559566.341 6  98617901.06443  24083484.836                    24083497.445
 127355237.204 6  99237906.175 6  24234900.625                    24234915.734
 120983242.005 7  94272639.41644  23022325.055                    23022333.484
 113055129.253 8  88095019.94846  21513698.742                    21513704.250
 118826303.088 7  92591788.06244  22611842.211                    22611850.082
 120222196.203 7  93679623.68444  22877527.188                    22877534.355
 115951994.751 7  90352171.78645  22064906.922                    22064914.938
 109014537.901 8  84946345.299 7  20744759.414                    20744766.191
 11  8 19 17 30 30.0000000  0 10G03G13G24G01G28G19G11G23G08G07
 123043771.919 7  95878358.37944  23414475.070                    23414484.316
 111191947.262 8  86642994.98945  21159103.695                    21159111.371
 126486730.295 6  98561145.80943  24069624.945                    24069637.402
 127278312.783 6  99177965.184 6  24220262.070                    24220276.402
 120942094.258 7  94240576.28844  23014495.219                    23014503.941
 113114092.814 8  88140965.54946  21524919.398                    21524924.965
 118759590.025 7  92539803.90844  22599147.016                    22599155.113
 120331465.294 7  93764768.29544  22898320.219                    22898327.594
 115880921.905 7  90296790.38045  22051381.805                    22051389.980
 108977080.119 8  84917157.423 7  20737631.211                    20737638.195
 11  8 19 17 31  0.0000000  0 10G03G13G24G01G28G19G11G23G08G07
 123148907.787 6  95960282.37244  23434482.688                    23434491.516
 111271206.298 8  86704755.23745  21174186.008                    21174193.508
 126413880.871 6  98504380.10843  24055762.461                    24055774.063
 127201360.232 6  99118002.227 6  24205619.602                    24205633.215
 120901124.728 7  94208652.00945  23006699.219                    23006707.266
 113173557.308 8  88187301.50446  21536235.023                    21536240.930
 118693140.923 7  92488025.44144  22586502.211                    22586510.039
 120440907.034 7  93850047.44344  22919146.344                    22919153.434
 115809899.844 7  90241448.52145  22037867.016                    22037875.133
 108939862.092 8  84888156.369 7  20730548.586                    20730555.867
 11  8 19 17 31 30.0000000  0 10G03G13G24G01G28G19G11G23G08G07
 123254230.541 6  96042351.96843  23454523.680                    23454533.563
 111350895.887 8  86766850.99246  21189350.414                    21189357.844
 126341020.472 6  98447605.82443  24041897.117                    24041909.043
 127124382.094 6  99058019.324 6  24190970.367                    24190984.504
 120860332.265 7  94176865.71445  22998936.344                    22998944.504
 113233520.290 8  88234025.87646  21547645.570                    21547651.297
 118626958.571 7  92436454.82244  22573908.109                    22573916.195
 120550518.481 7  93935458.81244  22940005.211                    22940012.570
 115738930.339 7  90186147.63245  22024361.734                    22024369.887
 108902884.906 8  84859342.981 7  20723512.258                    20723519.113
 11  8 19 17 32  0.0000000  0 10G03G13G24G01G28G19G11G23G08G07
 123359737.200 6  96124564.85443  23474601.680                    23474610.586
 111431013.001 8  86829279.87245  21204596.508                    21204604.258
 126268151.755 6  98390825.10143  24028030.680                    24028042.215
 127047380.974 6  98998018.514 6  24176317.273                    24176331.500
 120819716.118 7  94145216.80644  22991207.570                    22991215.488
 113293979.211 7  88281136.68846  21559150.750                    21559156.586
 118561045.449 7  92385093.98644  22561365.164                    22561373.188
 120660296.291 7  94020999.83644  22960895.422                    22960902.855
 115668014.643 8  90130888.66445  22010867.141                    22010875.348
 108866150.449 8  84830718.728 7  20716522.125                    20716528.848
 11  8 19 17 32 30.0000000  0 10G03G13G24G01G28G19G11G23G08G07
 123465425.668 6  96206919.40943  23494712.711                    23494722.543
 111511556.180 8  86892040.74845  21219923.523                    21219930.813
 126195278.281 6  98334040.62643  24014163.367                    24014174.785
 126970360.101 6  98938002.294 6  24161660.711                    24161674.527
 120779275.492 7  94113704.66344  22983511.867                    22983520.164
 113354932.279 8  88328632.56046  21570749.289                    21570755.230
 118495405.341 7  92333945.87944  22548874.250                    22548882.164
 120770238.022 7  94106668.58744  22981817.164                    22981824.238
 115597155.236 7  90075673.57045  21997383.039                    21997391.051
 108829661.231 8  84802285.573 7  20709578.094                    20709585.633
 11  8 19 17 33  0.0000000  0 10G03G13G24G01G28G19G11G23G08G07
 123571292.488 6  96289412.92643  23514859.078                    23514868.691
 111592521.433 8  86955130.51446  21235330.422                    21235337.992
 126122402.349 6  98277254.27243  24000295.328                    24000306.844
 126893321.938 6  98877972.620 6  24147001.359                    24147014.832
 120739009.229 7  94082328.37144  22975849.617                    22975857.313
 113416376.602 8  88376511.23346  21582442.141                    21582447.793
 118430040.591 7  92283012.32144  22536435.531                    22536443.637
 120880340.245 7  94192462.38244  23002768.164                    23002775.840
 115526353.027 7  90020503.04345  21983909.984                    21983917.957
 108793418.472 8  84774044.471 7  20702681.430                    20702688.684
 11  8 19 17 33 30.0000000  0 10G03G13G24G01G28G19G11G23G08G07
 123677335.244 6  96372043.54843  23535039.023                    23535048.242
 111673906.676 7  87018547.53745  21250817.703                    21250825.469
 126049527.101 6  98220468.39043  23986427.750                    23986439.941
 126816269.245 6  98817931.600 6  24132337.898                    24132352.020
 120698916.591 7  94051087.38545  22968220.344                    22968228.055
 113478310.195 8  88424771.15946  21594227.641                    21594233.363
 118364954.437 7  92232295.87344  22524050.234                    22524057.789
 120990600.215 7  94278379.10644  23023750.539                    23023757.766
 115455609.802 7  89965378.46945  21970448.289                    21970455.855
 108757424.428 8  84745997.188 7  20695832.109                    20695839.176
 11  8 19 17 34  0.0000000  0 10G03G13G24G01G28G19G11G23G08G07
 123783551.133 6  96454809.11843  23555250.711                    23555260.551
 111755709.649 8  87082290.07245  21266383.938                    21266391.906
 125976655.676 6  98163685.54243  23972560.133                    23972572.539
 126739205.513 6  98757881.972 6  24117672.945                    24117687.125
 120658997.224 7  94019981.41344  22960623.633                    22960631.746
 113540730.726 8  88473410.51646  21606105.953                    21606111.516
 118300150.243 7  92181799.11844  22511718.484                    22511726.703
 121101015.384 7  94364416.75244  23044761.813                    23044769.551
 115384927.403 7  89910301.30645  21956997.195                    21957005.570
 108721681.424 8  84718145.494 7  20689030.281                    20689037.480
 11  8 19 17 34 30.0000000  0 10G03G13G24G01G28G19G11G23G08G07
 123889937.158 6  96537707.26243  23575495.766                    23575504.977
 111837926.929 7  87146355.43645  21282029.469                    21282037.465
 125903790.266 6  98106907.33043  23958695.195                    23958706.832
 126662132.927 7  98697825.448 6  24103007.352                    24103020.734
 120619249.578 7  93989009.24045  22953059.742                    22953067.426
 113603635.075 8  88522426.87546  21618076.195                    21618081.508
 118235630.085 7  92131523.69944  22499440.484                    22499448.316
 121211582.042 7  94450572.43744  23065802.063                    23065809.336
 115314306.882 7  89855272.36045  21943559.109                    21943566.582
 108686190.110 8  84690489.936 7  20682276.852                    20682283.484
 11  8 19 17 35  0.0000000  0 10G03G13G24G01G28G19G11G23G08G07
 123996490.836 7  96620736.03243  23595773.070                    23595781.043
 111920556.752 7  87210742.26345  21297753.828                    21297761.527
 125830934.152 6  98050136.38343  23944829.945                    23944842.582
 126585054.677 6  98637764.540 6  24088339.328                    24088353.391
 120579673.217 7  93958170.54845  22945528.555                    22945536.418
 113667021.642 8  88571818.99046  21630138.031                    21630143.922
 118171397.531 7  92081472.38344  22487217.305                    22487225.645
 121322297.594 6  94536844.15044  23086870.391                    23086878.055
 115243750.801 7  89800293.61945  21930132.242                    21930140.191
 108650953.067 8  84663032.509 7  20675571.211                    20675578.168
 11  8 19 17 35 30.0000000  0 10G03G13G24G01G28G19G11G23G08G07
 124103209.638 7  96703893.49043  23616080.297                    23616089.164
 112003596.224 7  87275448.29845  21313555.820                    21313563.316
 125758090.577 6  97993375.22243  23930968.266                    23930980.664
 126507973.530 6  98577701.377 6  24073670.898                    24073684.977
 120540267.130 7  93927464.51944  22938030.258                    22938038.051
 113730887.911 8  88621584.90046  21642291.633                    21642297.551
 118107455.563 7  92031647.49144  22475050.039                    22475057.688
 121433159.271 7  94623229.72144  23107966.742                    23107974.641
 115173260.708 7  89745366.29745  21916718.188                    21916726.387
 108615972.567 8  84635774.970 7  20668914.766                    20668921.637
 11  8 19 17 36  0.0000000  0 10G03G13G24G01G28G19G11G23G08G07
 124210090.106 7  96787176.94843  23636418.859                    23636427.301
 112087042.129 8  87340471.03145  21329434.953                    21329442.465
 125685262.167 6  97936625.85043  23917109.563                    23917122.184
 126430892.365 6  98517638.188 6  24059003.188                    24059016.785
 120501030.739 7  93896890.71545  22930563.688                    22930571.875
 113795231.236 7  88671722.54146  21654535.617                    21654541.594
 118043806.903 7  91982051.14344  22462937.859                    22462945.473
 121544163.827 7  94709726.62544  23129090.406                    23129097.637
 115102837.902 7  89690491.40345  21903317.227                    21903325.102
 108581250.051 8  84608718.465 7  20662307.031                    20662314.449
 11  8 19 17 36 30.0000000  0 10G03G13G24G01G28G19G11G23G08G07
 124317129.866 6  96870584.46843  23656787.727                    23656796.898
 112170891.836 8  87405808.41445  21345390.813                    21345398.625
 125612451.909 6  97879890.64143  23903254.547                    23903266.395
 126353814.097 6  98457577.310 6  24044335.406                    24044349.035
 120461962.764 7  93866448.17244  22923128.891                    22923137.148
 113860049.031 8  88722229.88646  21666870.016                    21666875.777
 117980454.411 7  91932685.59344  22450882.383                    22450890.008
 121655308.604 7  94796332.81643  23150240.680                    23150248.035
 115032484.372 8  89635670.48645  21889929.281                    21889937.113
 108546787.440 8  84581864.486 7  20655749.313                    20655756.246
 11  8 19 17 37  0.0000000  0 10G03G13G24G01G28G19G11G23G08G07
 124424326.418 6  96954114.19643  23677186.766                    23677195.805
 112255143.241 8  87471458.81145  21361423.492                    21361431.133
 125539662.862 7  97823171.99043  23889403.000                    23889414.684
 126276741.900 6  98397521.123 6  24029669.539                    24029683.762
 120423062.819 7  93836136.56344  22915726.633                    22915734.922
 113925339.832 8  88773105.81846  21679294.547                    21679299.926
 117917401.677 7  91883553.60444  22438884.117                    22438892.016
 121766590.958 7  94883046.19644  23171417.133                    23171424.883
 114962202.135 8  89580905.12245  21876555.438                    21876563.348
 108512587.141 8  84555214.902 7  20649241.289                    20649248.316
 11  8 19 17 37 30.0000000  0 10G03G13G24G01G28G19G11G23G08G07
 124531677.050 6  97037763.96743  23697615.180                    23697623.672
 112339793.405 8  87537419.91845  21377531.914                    21377539.840
 125466897.841 6  97766472.05243  23875556.297                    23875568.500
 126199678.503 6  98337471.842 7  24015004.266                    24015018.551
 120384329.877 7  93805955.06744  22908355.961                    22908363.766
 113991100.185 8  88824347.64046  21691808.680                    21691814.180
 117854651.161 7  91834657.09744  22426942.508                    22426950.793
 121878007.612 7  94969864.23244  23192618.594                    23192626.480
 114891992.917 8  89526196.65945  21863194.727                    21863202.684
 108478650.994 8  84528771.151 7  20642783.172                    20642790.000
 11  8 19 17 38  0.0000000  0 10G03G13G24G01G28G19G11G23G08G07
 124639178.808 6  97121531.48543  23718071.516                    23718081.109
 112424839.230 8  87603689.33745  21393715.789                    21393723.434
 125394159.462 7  97709792.85743  23861715.094                    23861726.250
 126122626.490 6  98277431.439 7  24000341.883                    24000355.902
 120345762.861 7  93775902.89744  22901017.094                    22901024.438
 114057327.950 8  88875953.67345  21704410.992                    21704417.320
 117792205.672 7  91785998.29845  22415059.820                    22415067.391
 121989555.296 7  95056784.34744  23213845.750                    23213853.824
 114821858.193 8  89471546.23545  21849848.344                    21849856.684
 108444980.330 8  84502534.275 7  20636376.094                    20636383.125
 11  8 19 17 38 30.0000000  0 10G03G13G24G01G28G19G11G23G08G07
 124746828.902 6  97205414.59743  23738556.867                    23738566.563
 112510278.573 8  87670265.40545  21409974.156                    21409982.094
 125321451.231 7  97653137.17943  23847878.734                    23847890.145
 126045589.235 6  98217402.543 6  23985681.961                    23985695.785
 120307361.429 7  93745979.74544  22893709.156                    22893717.387
 114124020.793 8  88927922.09946  21717102.313                    21717108.066
 117730068.565 7  91737579.80745  22403235.578                    22403243.215
 122101231.614 7  95143804.70344  23235097.391                    23235105.527
 114751800.040 8  89416955.49145  21836516.992                    21836525.059
 108411577.607 8  84476506.177 7  20630019.359                    20630026.332
 11  8 19 17 39  0.0000000  0 10G03G13G24G01G28G19G11G23G08G07
 124854624.803 6  97289411.29243  23759070.633                    23759079.680
 112596108.124 8  87737145.52245  21426306.922                    21426314.949
 125248775.404 6  97596506.76143  23834048.984                    23834060.332
 125968569.156 6  98157387.058 6  23971025.672                    23971038.895
 120269123.915 7  93716184.30544  22886432.914                    22886440.965
 114191175.636 8  88980250.52946  21729881.773                    21729887.301
 117668242.211 7  91689403.45644  22391470.375                    22391478.305
 122213032.835 7  95230922.37144  23256372.711                    23256380.910
 114681819.978 8  89362425.58845  21823199.930                    21823208.059
 108378444.003 8  84450687.788 7  20623714.617                    20623721.441
 11  8 19 17 39 30.0000000  0 10G03G13G24G01G28G19G11G23G08G07
 124962563.619 6  97373519.38643  23779610.766                    23779619.707
 112682325.409 8  87804327.76245  21442713.813                    21442721.605
 125176135.555 7  97539904.37443  23820225.953                    23820237.633
 125891569.818 6  98097387.722 6  23956373.945                    23956387.156
 120231049.876 7  93686516.26744  22879187.266                    22879195.609
 114258790.609 8  89032937.49446  21742748.016                    21742753.672
 117606730.079 7  91641471.96145  22379764.766                    22379772.875
 122324956.967 7  95318135.81244  23277671.297                    23277679.406
 114611920.110 8  89307958.17945  21809898.609                    21809906.438
 108345582.039 8  84425081.067 7  20617460.992                    20617468.203
 11  8 19 17 40  0.0000000  0 10G03G13G24G01G28G19G11G23G08G07
 125070642.852 6  97457736.86244  23800177.852                    23800186.762
 112768927.940 8  87871810.19445  21459193.625                    21459201.250
 125103534.608 6  97483332.35143  23806410.219                    23806421.855
 125814593.521 7  98037406.317 7  23941725.344                    23941739.281
 120193138.354 7  93656974.86944  22871973.148                    22871981.496
 114326863.162 8  89085981.02245  21755702.078                    21755707.965
 117545534.773 7  91593787.34844  22368119.750                    22368127.652
 122437000.810 7  95405442.53944  23298992.852                    23299001.043
 114542102.036 8  89253554.50045  21796612.555                    21796620.570
 108312993.505 8  84399687.411 7  20611259.523                    20611266.648
 11  8 19 17 40 30.0000000  0 10G03G13G24G01G28G19G11G23G08G07
 125178859.648 6  97542061.54943  23820770.586                    23820779.770
 112855912.163 7  87939590.05045  21475746.297                    21475754.141
 125030975.274 7  97426792.75743  23792602.617                    23792614.543
 125737643.378 7  97977445.316 6  23927081.734                    23927095.102
 120155388.453 7  93627559.40544  22864789.852                    22864797.695
 114395390.318 8  89139378.78046  21768742.563                    21768747.832
 117484659.240 7  91546351.90145  22356535.500                    22356543.254
 122549161.083 7  95492839.99744  23320337.117                    23320344.094
 114472367.623 8  89199216.01045  21783342.891                    21783350.254
 108280680.135 8  84374508.158 7  20605110.656                    20605116.957
 11  8 19 17 41  0.0000000  0 10G03G13G24G01G28G19G11G23G08G07
 125287211.385 6  97626491.40243  23841389.063                    23841398.426
 112943275.666 8  88007665.45045  21492371.313                    21492378.926
 124958460.727 7  97370288.05743  23778803.656                    23778814.977
 125660722.265 6  97917506.918 6  23912443.578                    23912457.852
 120117799.174 7  93598269.07444  22857636.781                    22857644.203
 114464369.588 8  89193128.84846  21781868.563                    21781874.289
 117424106.216 7  91499167.76445  22345012.586                    22345020.484
 122661434.927 7  95580325.91544  23341701.500                    23341709.250
 114402718.696 8  89144944.13945  21770088.977                    21770096.723
 108248643.851 8  84349544.820 7  20599014.172                    20599021.438
 11  8 19 17 41 30.0000000  0 10G03G13G24G01G28G19G11G23G08G07
 125395695.652 7  97711024.52143  23862032.805                    23862042.172
 113031016.043 8  88076034.51745  21509067.359                    21509075.492
 124885993.913 7  97313820.55943  23765012.883                    23765024.582
 125583833.329 7  97857593.615 6  23897812.734                    23897825.855
 120080369.797 7  93569103.36444  22850514.422                    22850521.859
 114533798.944 8  89247229.61745  21795080.664                    21795086.484
 117363878.760 7  91452237.32645  22333551.273                    22333559.801
 122773819.977 7  95667898.49444  23363087.641                    23363095.949
 114333157.444 8  89090740.58345  21756851.617                    21756859.867
 108216886.865 8  84324799.116 7  20592970.930                    20592977.973
 11  8 19 17 42  0.0000000  0 10G03G13G24G01G28G19G11G23G08G07
 125504309.563 7  97795658.68543  23882702.156                    23882710.734
 113119129.607 8  88144694.38345  21525835.367                    21525843.090
 124813577.670 7  97257392.45343  23751232.688                    23751244.383
 125506979.205 6  97797707.406 6  23883187.633                    23883201.133
 120043099.280 7  93540061.44944  22843421.977                    22843429.734
 114603675.315 8  89301678.71645  21808377.547                    21808383.512
 117303979.453 7  91405562.57345  22322153.469                    22322161.199
 122886312.733 7  95755554.99044  23384494.203                    23384502.656
 114263685.117 7  89036606.31945  21743631.305                    21743639.816
 108185410.789 8  84300272.303 7  20586981.266                    20586988.488
 11  8 19 17 42 30.0000000  0 10G03G13G24G01G28G19G11G23G08G07
 125613050.212 7  97880391.61343  23903394.367                    23903402.965
 113207614.582 8  88213643.66345  21542673.586                    21542681.453
 124741215.336 7  97201006.35743  23737462.328                    23737474.684
 125430163.258 6  97737850.943 6  23868569.570                    23868583.027
 120005987.090 7  93511142.87844  22836359.625                    22836367.387
 114673996.455 8  89356474.38845  21821759.555                    21821765.078
 117244411.793 7  91359146.25244  22310817.547                    22310825.762
 122998910.677 7  95843293.46544  23405921.148                    23405928.844
 114194304.082 8  88982543.19245  21730428.820                    21730436.789
 108154217.760 8  84275966.045 7  20581045.789                    20581052.824
 11  8 19 17 43  0.0000000  0 10G03G13G24G01G28G19G11G23G08G07
 125721915.561 7  97965221.69643  23924110.852                    23924119.133
 113296467.728 8  88282879.82845  21559581.836                    21559589.172
 124668909.329 6  97144664.14243  23723703.172                    23723714.707
 125353388.310 6  97678026.415 6  23853959.742                    23853973.055
 119969032.226 8  93482346.90345  22829326.914                    22829335.238
 114744759.802 8  89411614.63745  21835225.195                    21835230.777
 117185178.596 7  91312990.54344  22299545.781                    22299553.832
 123111610.781 7  95931111.54844  23427367.930                    23427375.543
 114125016.336 8  88928552.75745  21717243.984                    21717251.965
 108123309.815 8  84251881.921 7  20575163.703                    20575171.242
 11  8 19 17 43 30.0000000  0 10G03G13G24G01G28G19G11G23G08G07
 125830902.748 6  98050146.74343  23944849.680                    23944858.773
 113385686.195 8  88352400.66245  21576559.008                    21576567.203
 124596663.421 7  97088368.78543  23709954.711                    23709966.797
 125276657.444 6  97618236.228 6  23839358.688                    23839371.660
 119932233.863 7  93453672.86345  22822324.656                    22822332.457
 114815962.723 8  89467097.41745  21848774.672                    21848780.516
 117126282.356 7  91267097.41445  22288338.242                    22288346.410
 123224410.262 7  96019007.04743  23448832.633                    23448841.023
 114055823.537 8  88874636.31345  21704076.781                    21704084.750
 108092689.073 8  84228021.595 7  20569337.305                    20569344.582
 11  8 19 17 44  0.0000000  0 10G03G13G24G01G28G19G11G23G08G07
 125940008.930 6  98135164.55242  23965611.492                    23965621.523
 113475267.675 8  88422204.35945  21593606.094                    21593614.027
 124524480.527 7  97032122.53043  23696219.844                    23696230.547
 125199973.716 6  97558482.760 6  23824765.992                    23824779.102
 119895590.939 7  93425119.96645  22815351.820                    22815359.793
 114887602.842 8  89522920.86745  21862407.156                    21862413.426
 117067726.550 7  91221469.54645  22277195.688                    22277203.637
 123337306.356 7  96106977.82444  23470316.141                    23470324.777
 113986728.207 7  88820795.80945  21690928.727                    21690936.500
 108062357.291 8  84204386.435 7  20563565.555                    20563572.574
 11  8 19 17 44 30.0000000  0 10G03G13G24G01G28G19G11G23G08G07
 126049231.968 6  98220273.24542  23986396.586                    23986406.121
 113565208.918 8  88492288.39045  21610721.500                    21610728.953
 124452363.621 7  96975927.67743  23682495.344                    23682506.918
 125123339.774 7  97498768.053 6  23810183.234                    23810196.430
 119859102.400 7  93396687.34145  22808407.875                    22808415.797
 114959677.425 8  89579082.86345  21876122.617                    21876128.633
 117009513.446 7  91176108.71845  22266118.078                    22266126.254
 123450295.739 7  96195021.31544  23491817.203                    23491825.750
 113917731.458 8  88767032.13145  21677798.750                    21677806.621
 108032316.206 8  84180977.769 7  20557848.414                    20557855.438
 11  8 19 17 45  0.0000000  0 10G03G13G24G01G28G19G11G23G08G07
 126158568.837 5  98305470.72942  24007201.984                    24007212.586
 113655506.530 8  88562650.11545  21627904.188                    21627912.543
 124380315.406 7  96919786.30743  23668785.477                    23668796.496
 125046758.706 6  97439094.574 6  23795609.281                    23795623.145
 119822767.441 7  93368374.41744  22801493.891                    22801501.273
 115032183.726 8  89635581.25345  21889920.250                    21889926.023
 116951645.810 7  91131017.10145  22255106.164                    22255114.406
 123563375.779 7  96283135.44243  23513335.813                    23513344.473
 113848835.279 8  88713346.81745  21664688.305                    21664696.316
 108002567.642 8  84157797.062 7  20552187.750                    20552194.715
 11  8 19 17 45 30.0000000  0 10G03G13G24G01G28G19G11G23G08G07
 126268017.073 6  98390754.99643  24028030.023                    24028040.145
 113746157.713 7  88633287.35345  21645154.523                    21645163.035
 124308338.600 7  96863700.57843  23655088.727                    23655099.508
 124970233.181 7  97379464.382 6  23781047.648                    23781061.074
 119786585.245 7  93340180.52045  22794608.664                    22794616.348
 115105118.785 8  89692413.74845  21903799.148                    21903805.250
 116894126.440 7  91086196.84345  22244160.258                    22244168.227
 123676543.130 7  96371317.59243  23534871.422                    23534879.586
 113780041.772 8  88659741.50345  21651597.414                    21651605.086
 107973113.489 8  84134845.769 7  20546582.609                    20546589.750
 11  8 19 17 46  0.0000000  0 10G03G13G24G01G28G19G11G23G08G07
 126377573.942 6  98476123.91643  24048878.188                    24048887.617
 113837160.247 8  88704198.36545  21662472.305                    21662480.148
 124236436.835 7  96807673.29843  23641406.266                    23641416.816
 124893766.726 7  97319880.197 6  23766496.602                    23766509.684
 119750554.778 8  93312104.86345  22787752.445                    22787760.039
 115178480.188 8  89749578.45645  21917759.305                    21917765.469
 116836958.259 7  91041650.24445  22233281.906                    22233289.906
 123789795.469 7  96459565.97544  23556422.453                    23556430.684
 113711353.009 8  88606217.81245  21638526.211                    21638534.211
 107943955.830 8  84112125.536 7  20541033.852                    20541041.336
 11  8 19 17 46 30.0000000  0 10G03G13G24G01G28G19G11G23G08G07
 126487236.850 6  98561575.45143  24069746.930                    24069756.016
 113928510.832 8  88775380.58045  21679855.359                    21679863.793
 124164612.654 7  96751706.46443  23627738.586                    23627749.293
 124817361.995 6  97260344.126 6  23751957.070                    23751970.070
 119714675.219 7  93284146.81645  22780924.398                    22780932.195
 115252265.369 8  89807073.38345  21931800.570                    21931806.426
 116780144.765 7  90997380.01345  22222470.094                    22222478.328
 123903129.378 6  96547877.90043  23577989.391                    23577998.055
 113642770.622 8  88552776.99845  21625475.742                    21625483.367
 107915096.444 8  84089637.712 7  20535542.453                    20535549.188
 11  8 19 17 47  0.0000000  0 10G03G13G24G01G28G19G11G23G08G07
 126597003.190 7  98647107.58743  24090634.758                    24090644.254
 114020206.097 8  88846831.38345  21697304.375                    21697313.137
 124092868.992 7  96695802.37643  23614085.719                    23614096.676
 124741021.978 6  97200858.453 7  23737429.641                    23737443.457
 119678945.393 7  93256305.42045  22774125.695                    22774133.355
 115326471.257 8  89864896.13046  21945921.156                    21945927.301
 116723687.369 7  90953387.27645  22211726.719                    22211734.281
 124016541.765 7  96636250.95844  23599571.086                    23599580.328
 113574296.421 8  88499420.49045  21612445.313                    21612452.957
 107886536.827 8  84067383.459 7  20530107.594                    20530115.008
 11  8 19 17 47 30.0000000  0 10G03G13G24G01G28G19G11G23G08G07
 126706870.588 7  98732718.47544  24111542.016                    24111551.602
 114112244.231 7  88918549.33645  21714818.859                    21714827.074
 124021209.654 7  96639963.98043  23600449.688                    23600460.406
 124664749.898 6  97141425.712 7  23722915.695                    23722929.031
 119643364.567 7  93228580.13445  22767354.664                    22767362.012
 115401096.015 7  89923045.27345  21960121.969                    21960128.105
 116667589.707 7  90909674.83645  22201052.000                    22201059.625
 124130030.809 6  96724683.77643  23621167.289                    23621176.148
 113505933.301 8  88446150.53645  21599436.164                    21599444.223
 107858279.788 8  84045364.990 7  20524730.359                    20524737.398
 11  8 19 17 48  0.0000000  0 10G03G13G24G01G28G19G11G23G08G07
 126816836.172 7  98818405.85743  24132467.781                    24132477.293
 114204621.550 7  88990531.62045  21732397.656                    21732405.270
 123949636.963 7  96584193.09243  23586829.570                    23586840.832
 124588548.405 7  97082047.988 7  23708415.078                    23708428.438
 119607931.696 7  93200970.15345  22760611.609                    22760618.871
 115476136.173 8  89981518.09345  21974401.820                    21974407.871
 116611854.280 7  90866244.64845  22190445.531                    22190453.191
 124243592.700 6  96813173.34244  23642777.898                    23642786.258
 113437682.474 8  88392968.08945  21586448.578                    21586456.426
 107830326.573 8  84023583.275 7  20519411.063                    20519418.352
 11  8 19 17 48 30.0000000  0 10G03G13G24G01G28G19G11G23G08G07
 126926897.402 7  98904167.75944  24153411.945                    24153421.289
 114297335.260 7  89062775.99945  21750041.023                    21750048.691
 123878154.318 7  96528492.35843  23573227.086                    23573237.867
 124512420.724 6  97022727.761 6  23693927.984                    23693941.617
 119572646.158 7  93173474.95345  22753897.227                    22753904.906
 115551589.552 8  90040312.90145  21988760.445                    21988766.066
 116556484.095 7  90823099.07245  22179909.359                    22179916.965
 124357225.083 6  96901717.84543  23664401.883                    23664409.887
 113369546.284 8  88339874.96545  21573482.578                    21573490.555
 107802679.321 8  84002039.951 7  20514149.914                    20514156.871
 11  8 19 17 49  0.0000000  0 10G03G13G24G01G28G19G11G23G08G07
 127037051.336 6  98990001.90843  24174372.820                    24174382.754
 114390381.660 7  89135279.62045  21767746.938                    21767755.039
 123806763.683 6  96472863.30943  23559641.711                    23559652.352
 124436368.993 7  96963466.708 7  23679456.578                    23679469.863
 119537505.895 7  93146092.96545  22747210.461                    22747217.742
 115627452.434 8  90099426.79745  22003196.977                    22003202.387
 116501481.077 7  90780239.59445  22169442.141                    22169450.551
 124470923.971 6  96990314.14944  23686038.570                    23686047.707
 113301525.721 8  88286871.93345  21560539.109                    21560546.340
 107775338.922 8  83980735.759 7  20508947.422                    20508954.551
 11  8 19 17 49 30.0000000  0  9G13G24G01G28G19G11G23G08G07
 114483759.027 7  89208041.13945  21785515.984                    21785524.313
 123735469.182 6  96417309.17243  23546074.961                    23546085.637
 124360397.249 7  96904267.997 7  23664999.547                    23665012.859
 119502511.071 7  93118824.29645  22740551.016                    22740559.227
 115703723.338 8  90158858.63845  22017710.703                    22017715.867
 116446848.945 7  90737669.12445  22159045.898                    22159053.871
 124584687.481 7  97078960.81344  23707686.797                    23707695.574
 113233623.947 8  88233961.47945  21547617.375                    21547624.879
 107748308.457 8  83959673.044 7  20503803.469                    20503810.750
 11  8 19 17 50  0.0000000  0  9G13G24G01G28G19G11G23G08G07
 114577464.348 8  89281058.21045  21803347.563                    21803355.406
 123664273.862 6  96361832.34543  23532526.492                    23532537.641
 124284508.552 7  96845134.017 7  23650557.867                    23650571.242
 119467660.873 7  93091668.33245  22733918.820                    22733926.895
 115780399.363 8  90218606.16745  22032301.195                    22032306.859
 116392590.483 7  90695389.82245  22148721.000                    22148729.406
 124698512.847 7  97167655.69344  23729347.578                    23729355.859
 113165843.062 8  88181145.22845  21534718.867                    21534727.148
 107721589.811 8  83938853.314 7  20498719.445                    20498726.492
 11  8 19 17 50 30.0000000  0  9G13G24G01G28G19G11G23G08G07
 114671494.368 7  89354328.28945  21821240.930                    21821249.344
 123593180.861 6  96306435.27043  23518997.867                    23519009.215
 124208705.849 7  96786067.058 7  23636133.688                    23636146.566
 119432954.090 7  93064624.12145  22727314.984                    22727321.770
 115857477.573 8  90278667.07045  22046968.758                    22046974.664
 116338708.428 7  90653403.82745  22138467.430                    22138475.309
 124812397.078 7  97256396.45044  23751018.539                    23751028.051
 113098185.009 8  88128424.68645  21521843.883                    21521851.891
 107695184.717 8  83918277.934 7  20493694.648                    20493701.293
 11  8 19 17 51  0.0000000  0  9G13G24G01G28G19G11G23G08G07
 114765846.136 7  89427849.08545  21839195.742                    21839204.070
 123522193.493 6  96251120.51143  23505489.836                    23505501.336
 124132992.449 7  96727069.702 7  23621725.305                    23621738.461
 119398390.034 7  93037691.13545  22720736.820                    22720744.898
 115934955.546 8  90339039.47845  22061712.344                    22061718.324
 116285205.226 7  90611713.04745  22128286.047                    22128293.863
 124926337.413 7  97345180.91943  23772701.461                    23772710.055
 113030651.586 8  88075801.24745  21508992.992                    21509000.430
 107669095.367 8  83897948.547 7  20488730.102                    20488736.965
 11  8 19 17 51 30.0000000  0  9G13G24G01G28G19G11G23G08G07
 114860516.683 7  89501618.27245  21857210.891                    21857218.965
 123451314.326 7  96195890.06143  23492001.375                    23492012.930
 124057370.727 7  96668143.776 7  23607334.984                    23607347.887
 119363967.414 7  93010868.34145  22714186.844                    22714195.059
 116012830.281 8  90399721.05045  22076531.641                    22076537.277
 116232083.540 7  90570319.56045  22118177.688                    22118185.328
 125040330.724 7  97434006.66143  23794393.430                    23794402.746
 112963244.767 8  88023276.46545  21496165.781                    21496173.734
 107643323.126 8  83877866.271 8  20483825.773                    20483832.781
 11  8 19 17 52  0.0000000  0  9G13G24G01G28G19G11G23G08G07
 114955503.307 7  89575633.75645  21875286.547                    21875294.184
 123380546.682 6  96140746.50843  23478534.648                    23478546.176
 123981844.248 7  96609292.083 6  23592963.070                    23592975.855
 119329685.598 7  92984155.26845  22707662.891                    22707670.969
 116091099.165 7  90460709.76545  22091425.531                    22091431.320
 116179346.384 7  90529225.69945  22108141.898                    22108150.008
 125154374.549 7  97522871.78543  23816094.961                    23816104.652
 112895966.816 8  87970852.09845  21483363.109                    21483370.762
 107617870.115 8  83858032.750 8  20478982.344                    20478989.113
 11  8 19 17 52 30.0000000  0  9G13G24G01G28G19G11G23G08G07
 115050802.987 7  89649893.18345  21893420.883                    21893429.008
 123309893.599 7  96085692.23043  23465089.695                    23465101.520
 123906415.753 7  96550516.721 6  23578609.016                    23578622.152
 119295543.589 7  92957551.13345  22701165.852                    22701174.148
 116169759.638 8  90522003.60445  22106393.898                    22106400.020
 116126996.376 7  90488433.52645  22098180.109                    22098188.094
 125268466.043 6  97611774.00743  23837806.156                    23837815.594
 112828819.886 8  87918529.81945  21470585.672                    21470593.156
 107592738.369 8  83838449.564 7  20474199.898                    20474206.715
 11  8 19 17 53  0.0000000  0  9G13G24G01G28G19G11G23G08G07
 115146413.489 7  89724394.79945  21911615.195                    21911623.316
 123239358.495 6  96030729.90443  23451667.906                    23451679.051
 123831088.925 7  96491820.595 6  23564274.859                    23564287.629
 119261540.930 7  92931055.59245  22694695.594                    22694703.387
 116248809.319 7  90583600.71945  22121436.578                    22121442.824
 116075036.428 7  90447945.30145  22088292.469                    22088300.230
 125382602.678 6  97700711.43343  23859525.852                    23859535.309
 112761806.360 8  87866311.50145  21457833.438                    21457841.266
 107567930.470 8  83819118.723 8  20469478.859                    20469485.840
 11  8 19 17 53 30.0000000  0  9G13G24G01G28G19G11G23G08G07
 115242330.653 7  89799135.38645  21929867.883                    21929875.777
 123168943.689 6  95975861.32844  23438268.070                    23438279.383
 123755865.979 7  96433205.427 6  23549960.273                    23549973.016
 119227676.051 7  92904667.40045  22688251.727                    22688258.758
 116328244.456 7  90645498.18245  22136552.602                    22136558.582
 116023468.836 7  90407762.79245  22078479.281                    22078487.266
 125496780.796 6  97789681.17143  23881254.008                    23881262.469
 112694927.812 8  87814198.35045  21445106.867                    21445114.621
 107543446.981 8  83800040.675 8  20464820.047                    20464826.898
 11  8 19 17 54  0.0000000  0 10G17G13G24G01G28G19G11G23G08G07
 129450920.84216 100870890.04515  24633695.414
 115338551.297 7  89874112.44345  21948177.820                    21948185.820
 123098652.528 7  95921089.08944  23424892.078                    23424903.328
 123680750.276 7  96374673.805 6  23535665.984                    23535679.113
 119193947.861 7  92878385.71245  22681832.844                    22681840.609
 116408062.696 8  90707694.17745  22151741.781                    22151747.699
 115972296.229 7  90367888.06345  22068741.281                    22068749.348
 125610997.599 6  97878681.06743  23902988.344                    23902997.465
 112628186.379 8  87762192.04545  21432406.789                    21432413.895
 107519290.128 8  83781217.143 7  20460223.000                    20460229.715
 11  8 19 17 54 30.0000000  0 10G17G13G24G01G28G19G11G23G08G07
 129346327.141 7 100789388.472 6  24613792.039
 115435073.176 7  89949324.22745  21966545.664                    21966553.531
 123028488.413 7  95866415.84044  23411540.016                    23411551.688
 123605744.932 7  96316228.172 6  23521393.281                    23521405.668
 119160355.836 7  92852210.13845  22675440.766                    22675448.531
 116488261.810 7  90770186.95745  22167003.289                    22167009.129
 115921521.578 7  90328323.44945  22059079.578                    22059086.969
 125725250.810 6  97967709.32543  23924730.055                    23924739.234
 112561584.761 8  87710294.70245  21419732.555                    21419740.258
 107495462.244 8  83762649.955 8  20455688.531                    20455695.613
 11  8 19 17 55  0.0000000  0 10G17G13G24G01G28G19G11G23G08G07
 129241834.358 7 100707965.563 5  24593908.070                    24593920.289
 115531892.942 7  90024768.13245  21984969.703                    21984977.879
 122958454.089 7  95811843.71644  23398213.320                    23398224.027
 123530852.812 7  96257870.757 6  23507141.461                    23507153.906
 119126899.071 7  92826139.94345  22669073.922                    22669081.965
 116568838.580 7  90832974.02045  22182336.109                    22182342.516
 115871147.257 7  90289070.74845  22049493.359                    22049501.199
 125839537.314 6  98056763.51343  23946478.000                    23946487.555
 112495124.457 7  87658507.45445  21407085.430                    21407093.258
 107471964.844 8  83744340.299 8  20451217.273                    20451224.387
 11  8 19 17 55 30.0000000  0 10G17G13G24G01G28G19G11G23G08G07
 129137444.728 7 100626623.056 5  24574043.375                    24574054.180
 115629007.662 7  90100441.86645  22003450.180                    22003458.383
 122888552.578 7  95757375.09044  23384911.625                    23384922.344
 123456076.770 7  96199603.780 6  23492911.719                    23492925.188
 119093576.245 7  92800174.13045  22662733.242                    22662740.824
 116649789.937 7  90896052.96545  22197741.219                    22197747.602
 115821175.580 7  90250131.81645  22039984.039                    22039992.246
 125953854.311 6  98145841.47243  23968232.219                    23968241.789
 112428807.495 8  87606831.91745  21394465.820                    21394473.984
 107448799.610 8  83726289.461 8  20446809.156                    20446816.227
 11  8 19 17 56  0.0000000  0 10G17G13G24G01G28G19G11G23G08G07
 129033159.824 6 100545362.162 5  24554198.305                    24554209.465
 115726414.163 7  90176342.95845  22021986.133                    22021994.430
 122818786.910 7  95703012.31444  23371635.352                    23371646.430
 123381420.138 7  96141429.836 6  23478705.289                    23478718.098
 119060386.563 7  92774312.05745  22656416.898                    22656424.254
 116731113.310 7  90959421.79845  22213216.719                    22213222.684
 115771609.178 7  90211508.67045  22030551.844                    22030560.051
 126068198.816 6  98234940.86343  23989991.688                    23990000.949
 112362636.222 8  87555269.90446  21381873.414                    21381881.578
 107425968.451 8  83708498.939 7  20442464.586                    20442471.352
 11  8 19 17 56 30.0000000  0 10G17G13G24G01G28G19G11G23G08G07
 128928982.402 6 100464185.051 5  24534373.867                    24534385.195
 115824110.021 7  90252469.52845  22040577.125                    22040585.645
 122749160.530 7  95648758.06644  23358386.289                    23358396.648
 123306886.183 7  96083351.500 6  23464521.477                    23464534.016
 119027329.274 7  92748553.15545  22650127.055                    22650134.160
 116812806.053 7  91023078.44345  22228761.602                    22228767.910
 115722451.305 8  90173203.86845  22021197.781                    22021205.266
 126182568.333 6  98324059.75843  24011755.445                    24011765.402
 112296612.926 8  87503823.19446  21369309.938                    21369317.773
 107403473.576 8  83690970.465 8  20438183.945                    20438190.875
 11  8 19 17 57  0.0000000  0 10G17G13G24G01G28G19G11G23G08G07
 128824913.970 6 100383092.871 5  24514570.156                    24514581.590
 115922091.461 7  90328818.63745  22059222.547                    22059230.750
 122679676.131 7  95594614.44444  23345163.789                    23345174.070
 123232477.230 7  96025370.572 6  23450362.617                    23450374.684
 118994403.078 7  92722896.40945  22643861.094                    22643868.152
 116894865.121 7  91087020.54445  22244377.336                    22244383.523
 115673703.857 7  90135218.87445  22011921.102                    22011928.867
 126296959.598 6  98413195.58444  24033523.750                    24033534.578
 112230739.347 8  87452493.14746  21356774.742                    21356782.859
 107381316.320 8  83673705.065 7  20433967.133                    20433974.473
 11  8 19 17 57 30.0000000  0 10G17G13G24G01G28G19G11G23G08G07
 128720957.258 6 100302087.753 6  24494788.008                    24494799.453
 116020356.215 7  90405388.50945  22077921.625                    22077930.281
 122610337.447 7  95540584.41044  23331968.539                    23331978.871
 123158197.433 7  95967490.255 7  23436227.141                    23436239.875
 118961607.457 7  92697341.40545  22637620.469                    22637627.262
 116977288.125 7  91151246.22845  22260062.070                    22260067.715
 115625370.011 7  90097556.15445  22002723.820                    22002731.008
 126411370.470 6  98502346.67143  24055295.289                    24055306.039
 112165018.483 8  87401282.09846  21344268.492                    21344276.258
 107359499.514 8  83656704.950 7  20429815.688                    20429822.969
 11  8 19 17 58  0.0000000  0 10G17G13G24G01G28G19G11G23G08G07
 128617113.737 6 100221170.869 6  24475026.414                    24475039.023
 116118900.250 8  90482175.98545  22096673.969                    22096682.355
 122541146.921 7  95486669.78344  23318801.805                    23318812.938
 123084048.799 7  95909712.171 6  23422117.547                    23422129.949
 118928940.926 7  92671886.98345  22631403.766                    22631411.094
 117060071.745 7  91215752.91445  22275815.344                    22275821.195
 115577451.584 8  90060217.14245  21993604.750                    21993612.973
 126525797.604 6  98591510.44943  24077070.266                    24077080.738
 112099451.782 8  87350191.17246  21331791.875                    21331799.742
 107338023.914 8  83639970.712 8  20425729.063                    20425736.340
 11  8 19 17 58 30.0000000  0 10G17G13G24G01G28G19G11G23G08G07
 128513385.558 6 100140343.846 6  24455287.695                    24455300.129
 116217720.910 7  90559179.02244  22115478.383                    22115487.113
 122472107.450 7  95432872.85044  23305664.508                    23305674.484
 123010034.355 7  95852038.623 6  23408032.633                    23408045.398
 118896402.600 7  92646532.46445  22625212.227                    22625219.352
 117143213.156 7  91280538.41145  22291636.469                    22291642.813
 115529951.438 8  90023204.08045  21984566.313                    21984574.066
 126640237.944 6  98680684.51443  24098847.695                    24098858.090
 112034041.464 8  87299222.10146  21319344.266                    21319352.617
 107316891.159 8  83623503.646 7  20421707.836                    20421714.867
 11  8 19 17 59  0.0000000  0 10G17G13G24G01G28G19G11G23G08G07
 128409775.340 6 100059608.762 6  24435571.398                    24435583.977
 116316815.680 7  90636395.64344  22134335.805                    22134344.074
 122403222.602 7  95379196.44544  23292555.680                    23292566.457
 122936158.188 7  95794472.836 6  23393973.867                    23393987.059
 118863991.972 7  92621277.43945  22619044.281                    22619051.590
 117226710.270 7  91345601.07245  22307525.031                    22307531.469
 115482872.439 8  89986519.16245  21975607.469                    21975615.352
 126754689.548 6  98769867.33944  24120627.555                    24120637.402
 111968790.025 8  87248376.83446  21306927.492                    21306935.262
 107296104.254 8  83607306.059 8  20417752.367                    20417759.117
 11  8 19 17 59 30.0000000  0 10G17G13G24G01G28G19G11G23G08G07
 128306284.525 6  99978966.743 6  24415877.313                    24415889.758
 116416181.012 7  90713823.10744  22153244.688                    22153252.992
 122334495.295 7  95325642.76044  23279477.414                    23279487.883
 122862422.843 7  95737016.759 6  23379943.250                    23379955.891
 118831707.861 7  92596121.00145  22612900.742                    22612908.117
 117310559.713 7  91410938.26445  22323480.992                    22323487.363
 115436216.391 8  89950163.82745  21966728.758                    21966736.391
 126869149.148 6  98859056.37843  24142408.383                    24142419.188
 111903699.479 8  87197656.93946  21294540.984                    21294548.926
 107275664.215 8  83591378.755 7  20413862.805                    20413869.746
 11  8 19 18  0  0.0000000  0 10G17G13G24G01G28G19G11G23G08G07
 128202915.409 6  99898419.571 6  24396207.297                    24396219.617
 116515813.829 7  90791458.96245  22172204.344                    22172213.191
 122265928.660 7  95272214.30843  23266429.391                    23266439.648
 122788830.983 7  95679672.509 7  23365938.516                    23365951.555
 118799549.107 7  92571062.24445  22606781.641                    22606789.121
 117394758.807 7  91476547.91845  22339504.297                    22339509.734
 115389986.251 8  89914140.36345  21957931.070                    21957939.539
 126983614.106 6  98948249.62743  24164190.320                    24164200.867
 111838771.794 8  87147063.95345  21282186.109                    21282193.605
 107255572.861 8  83575723.147 8  20410039.469                    20410046.559
 11  8 19 18  0 30.0000000  0 10G17G13G24G01G28G19G11G23G08G07
 128099669.986 6  99817968.775 6  24376559.969                    24376572.059
 116615711.017 7  90869300.84845  22191214.078                    22191223.297
 122197525.636 6  95218913.30143  23253412.094                    23253423.078
 122715386.083 7  95622442.756 6  23351962.570                    23351975.539
 118767514.972 7  92546100.57845  22600685.297                    22600692.730
 117479304.479 7  91542427.63845  22355592.773                    22355598.297
 115344184.453 8  89878450.68245  21949215.875                    21949223.328
 127098081.606 6  99037444.82142  24185972.430                    24185982.789
 111774009.545 8  87096599.87046  21269861.664                    21269869.824
 107235831.960 8  83560340.620 8  20406283.000                    20406289.859
 11  8 19 18  1  0.0000000  0 10G17G13G24G01G28G19G11G23G08G07
 127996550.783 6  99737616.344 6  24356937.289                    24356949.074
 116715870.020 7  90947346.74045  22210273.766                    22210282.527
 122129289.527 7  95165742.37444  23240428.047                    23240437.859
 122642091.382 7  95565330.041 6  23338015.000                    23338027.746
 118735604.825 7  92521235.53145  22594612.984                    22594620.961
 117564194.425 7  91608575.62645  22371746.766                    22371752.281
 115298813.573 8  89843096.76445  21940581.719                    21940589.738
 127212548.851 6  99126639.80342  24207755.883                    24207765.578
 111709415.314 8  87046266.71946  21257570.148                    21257577.688
 107216444.065 8  83545233.141 7  20402593.078                    20402600.289
 11  8 19 18  1 30.0000000  0 10G17G13G24G01G28G19G11G23G08G07
 127893559.807 6  99657363.854 6  24337338.625                    24337350.387
 116816287.948 7  91025594.40745  22229382.758                    22229391.410
 122061223.561 7  95112704.00244  23227475.023                    23227485.656
 122568949.466 7  95508336.364 6  23324096.938                    23324109.652
 118703817.559 7  92496466.23345  22588564.344                    22588571.801
 117649425.602 7  91674989.51045  22387965.750                    22387971.234
 115253876.667 8  89808081.01545  21932030.703                    21932038.582
 127327013.084 6  99215832.50342  24229537.438                    24229547.871
 111644990.977 8  86996065.94246  21245310.656                    21245318.313
 107197410.541 8  83530401.832 7  20398971.672                    20398978.734
 11  8 19 18  2  0.0000000  0 10G17G13G24G01G28G19G11G23G08G07
 127790699.186 7  99577212.908 6  24317764.359                    24317776.898
 116916961.440 7  91104041.18845  22248540.680                    22248549.195
 121993330.661 7  95059800.50343  23214555.602                    23214566.129
 122495964.019 7  95451464.624 7  23310207.836                    23310220.273
 118672152.237 7  92471791.94845  22582538.250                    22582545.848
 117734995.040 7  91741666.98145  22404249.070                    22404254.559
 115209375.248 7  89773404.61245  21923562.109                    21923570.254
 127441471.844 6  99305020.86542  24251318.805                    24251328.883
 111580738.919 8  86945999.41146  21233083.750                    21233091.340
 107178733.274 8  83515848.098 8  20395417.453                    20395424.430
 11  8 19 18  2 30.0000000  0 10G17G13G24G01G28G19G11G23G08G07
 127687970.695 6  99497164.942 6  24298216.117                    24298228.180
 117017887.648 7  91182684.91245  22267746.250                    22267754.648
 121925614.024 7  95007034.30943  23201669.594                    23201680.031
 122423137.994 7  95394717.112 7  23296349.953                    23296362.793
 118640607.919 7  92447211.98245  22576535.813                    22576543.082
 117820900.451 7  91808606.24145  22420595.852                    22420602.215
 115165312.050 8  89739069.68645  21915177.078                    21915185.219
 127555922.411 6  99394202.91643  24273098.398                    24273108.141
 111516660.962 8  86896068.54546  21220890.164                    21220898.273
 107160414.169 8  83501573.461 8  20391931.430                    20391938.211
 11  8 19 18  3  0.0000000  0 10G17G13G24G01G28G19G11G23G08G07
 127585376.174 7  99417221.371 6  24278692.523                    24278704.105
 117119062.808 7  91261522.61344  22286999.516                    22287007.875
 121858076.514 6  94954407.67943  23188817.094                    23188827.727
 122350474.289 7  95338096.065 6  23282522.695                    23282535.520
 118609183.289 7  92422725.26145  22570555.195                    22570562.957
 117907138.526 7  91875804.70845  22437006.242                    22437013.262
 115121689.185 8  89705077.87145  21906876.242                    21906884.012
 127670361.616 6  99483376.08843  24294875.500                    24294885.488
 111452759.443 8  86846275.15946  21208729.852                    21208737.621
 107142454.739 8  83487579.083 7  20388513.484                    20388521.141
 11  8 19 18  3 30.0000000  0 10G17G13G24G01G28G19G11G23G08G07
 127482918.105 7  99337384.120 6  24259195.508                    24259206.820
 117220484.515 7  91340552.43344  22306299.367                    22306307.957
 121790721.680 7  94901923.39844  23176000.055                    23176010.391
 122277976.373 7  95281604.216 7  23268726.031                    23268739.750
 118577878.117 7  92398331.63445  22564598.641                    22564606.500
 117993706.443 7  91943260.18445  22453480.031                    22453486.461
 115078509.648 8  89671431.50845  21898659.297                    21898667.156
 127784787.239 6  99572538.66243  24316650.445                    24316660.363
 111389037.011 8  86796621.32846  21196603.813                    21196611.809
 107124857.026 8  83473866.571 8  20385164.797                    20385171.797
 11  8 19 18  4  0.0000000  0 10G17G13G24G01G28G19G11G23G08G07
 127380598.115 7  99257654.448 6  24239723.727                    24239736.004
 117322149.171 7  91419771.56544  22325645.617                    22325653.887
 121723551.680 7  94849583.12844  23163218.172                    23163228.938
 122205646.164 7  95225243.052 7  23254962.570                    23254974.816
 118546690.591 7  92374029.67945  22558664.109                    22558671.605
 118080601.224 7  92010970.38045  22470015.352                    22470021.758
 115035774.975 8  89638131.78745  21890527.461                    21890534.766
 127899195.661 6  99661687.86343  24338421.648                    24338431.527
 111325495.448 8  86747108.43846  21184512.375                    21184520.109
 107107621.967 8  83460436.648 8  20381885.688                    20381892.293
 11  8 19 18  4 30.0000000  0 10G17G13G24G01G28G19G11G23G08G07
 127278418.782 7  99178034.398 6  24220280.086                    24220291.809
 117424053.809 7  91499177.69544  22345037.203                    22345045.563
 121656570.187 7  94797389.77544  23150472.039                    23150482.766
 122133487.342 7  95169015.442 6  23241231.227                    23241243.590
 118515620.157 7  92349818.98045  22552751.070                    22552758.789
 118167820.364 7  92078933.31945  22486613.094                    22486619.094
 114993488.259 8  89605181.12445  21882479.836                    21882487.965
 128013584.774 6  99750821.91243  24360189.883                    24360200.070
 111262137.553 8  86697738.66146  21172455.516                    21172463.395
 107090752.283 8  83447291.428 8  20378674.891                    20378682.039
 11  8 19 18  5  0.0000000  0 10G17G13G24G01G28G19G11G23G08G07
 127176382.022 7  99098525.445 6  24200862.656                    24200874.793
 117526195.666 7  91578768.66045  22364474.250                    22364482.895
 121589780.485 7  94745345.86244  23137762.344                    23137773.305
 122061503.761 7  95112924.354 6  23227532.672                    23227545.324
 118484666.181 7  92325699.01845  22546861.016                    22546868.367
 118255361.085 7  92147146.85945  22503271.750                    22503277.633
 114951651.771 8  89572581.30045  21874519.000                    21874526.930
 128127951.924 6  99839938.88343  24381953.195                    24381963.168
 111198965.652 8  86648513.81846  21160434.156                    21160442.254
 107074249.725 8  83434432.264 7  20375534.586                    20375542.008
 11  8 19 18  5 30.0000000  0 10G17G13G24G01G28G19G11G23G08G07
 127074489.527 6  99019128.902 6  24181472.875                    24181484.430
 117628571.509 7  91658541.95045  22383955.695                    22383964.598
 121523185.219 7  94693453.48644  23125089.531                    23125100.395
 121989697.410 7  95056971.383 6  23213868.477                    23213880.938
 118453827.349 7  92301668.79145  22540992.781                    22541000.148
 118343220.216 7  92215608.48245  22519990.273                    22519996.414
 114910267.448 8  89540333.80345  21866643.977                    21866651.547
 128242294.263 6  99929036.54443  24403712.148                    24403722.184
 111135981.607 7  86599435.35345  21148448.797                    21148456.762
 107058115.586 8  83421860.207 7  20372464.625                    20372471.695
 11  8 19 18  6  0.0000000  0 10G17G13G24G01G28G19G11G23G08G07
 126972743.417 7  98939846.428 6  24162111.398                    24162122.922
 117731178.348 7  91738495.23944  22403481.250                    22403489.449
 121456787.891 7  94641715.31544  23112455.117                    23112465.598
 121918071.953 7  95001159.380 7  23200239.336                    23200251.359
 118423102.908 7  92277727.69645  22535145.789                    22535153.160
 118431395.037 7  92284316.12745  22536769.422                    22536776.094
 114869338.027 8  89508440.77145  21858854.992                    21858862.699
 128356609.337 6 100018112.87243  24425464.898                    24425476.301
 111073187.922 8  86550505.22646  21136499.773                    21136507.484
 107042351.812 8  83409576.743 8  20369465.055                    20369471.828
 11  8 19 18  6 30.0000000  0 10G17G13G24G01G28G19G11G23G08G07
 126871145.836 6  98860679.685 6  24142777.555                    24142789.516
 117834013.038 7  91818626.07944  22423050.234                    22423058.531
 121390591.408 7  94590133.65944  23099858.883                    23099869.027
 121846630.380 6  94945490.663 7  23186644.375                    23186656.363
 118392492.008 7  92253875.07445  22529321.023                    22529328.184
 118519882.704 7  92353267.52045  22553608.266                    22553614.148
 114828865.808 8  89476903.99545  21851153.484                    21851161.641
 128470894.036 6 100107165.59843  24447213.906                    24447223.703
 111010586.892 8  86501725.20246  21124587.406                    21124595.082
 107026960.003 8  83397583.141 7  20366536.211                    20366542.668
 11  8 19 18  7  0.0000000  0  9G17G13G24G01G28G19G11G08G07
 126769699.559 6  98781630.820 6  24123473.117                    24123484.309
 117937073.205 7  91898932.60244  22442662.313                    22442671.379
 121324599.702 6  94538711.58144  23087300.133                    23087311.227
 121775376.433 7  94889968.172 7  23173084.867                    23173097.367
 118361994.451 7  92230110.77945  22523516.852                    22523524.480
 118608681.318 7  92422461.21345  22570505.789                    22570512.230
 114788853.720 8  89445725.76545  21843539.398                    21843547.258
 110948181.705 7  86453097.80146  21112711.789                    21112719.730
 107011942.937 8  83385881.526 8  20363677.875                    20363685.293
 11  8 19 18  7 30.0000000  0  9G17G13G24G01G28G19G11G08G07
 126668405.938 6  98702700.935 6  24104197.367                    24104209.004
 118040355.167 7  91979411.95044  22462316.063                    22462324.754
 121258815.102 7  94487450.90044  23074781.641                    23074791.758
 121704312.535 6  94834593.791 6  23159561.711                    23159574.137
 118331608.441 7  92206433.39945  22517734.609                    22517742.352
 118697787.219 7  92491894.36245  22587462.531                    22587468.492
 114749302.955 8  89414907.00845  21836013.008                    21836020.824
 110885973.913 8  86404624.19446  21100873.906                    21100882.148
 106997301.449 8  83374472.574 8  20360891.984                    20360898.773
 11  8 19 18  8  0.0000000  0  9G17G13G24G01G28G19G11G08G07
 126567267.376 6  98623891.872 6  24084950.367                    24084962.129
 118143856.113 7  92060061.94445  22482012.125                    22482020.250
 121193241.000 7  94436354.25344  23062303.141                    23062313.902
 121633442.013 7  94779370.080 7  23146075.695                    23146087.402
 118301333.133 7  92182842.27745  22511973.844                    22511981.176
 118787197.529 7  92561564.69345  22604476.563                    22604482.930
 114710216.444 7  89384450.01445  21828574.859                    21828583.172
 110823965.893 8  86356306.26746  21089074.508                    21089082.391
 106983037.623 8  83363357.901 8  20358177.453                    20358184.605
 11  8 19 18  8 30.0000000  0  9G17G13G24G01G28G19G11G08G07
 126466285.033 6  98545204.513 6  24065734.758                    24065745.598
 118247572.144 7  92140879.53544  22501748.594                    22501756.699
 121127879.671 7  94385423.40844  23049865.180                    23049875.645
 121562767.372 7  94724299.009 7  23132626.641                    23132638.859
 118271167.118 7  92159336.32145  22506232.891                    22506240.332
 118876909.137 7  92631469.80045  22621548.273                    22621554.203
 114671595.572 8  89354355.85945  21821225.836                    21821233.777
 110762159.212 7  86308145.21446  21077313.031                    21077320.578
 106969152.278 8  83352538.136 8  20355535.367                    20355542.316
 11  8 19 18  9  0.0000000  0  9G17G13G24G01G28G19G11G08G07
 126365461.209 6  98466640.682 6  24046547.813                    24046559.520
 118351500.548 7  92221862.62244  22521525.102                    22521534.313
 121062734.549 7  94334661.05844  23037468.719                    23037478.992
 121492291.715 7  94669383.005 7  23119215.359                    23119227.574
 118241109.917 7  92135915.13445  22500513.906                    22500521.082
 118966919.354 7  92701607.59345  22638676.359                    22638682.637
 114633443.039 8  89324626.63845  21813965.789                    21813973.133
 110700556.677 8  86260143.24346  21065590.391                    21065598.375
 106955647.629 8  83342015.034 8  20352965.492                    20352972.480
 11  8 19 18  9 30.0000000  0 10G17G13G24G01G28G19G11G26G08G07
 126264798.128 6  98388202.090 6  24027392.156                    24027404.109
 118455638.352 7  92303008.85944  22541342.016                    22541350.793
 120997808.701 7  94284069.56943  23025113.563                    23025124.285
 121422018.472 7  94614624.734 7  23105842.328                    23105855.008
 118211160.437 7  92112577.89345  22494814.305                    22494822.328
 119057225.393 7  92771975.90545  22655861.008                    22655867.668
 114595761.348 7  89295264.28945  21806795.031                    21806802.992
 127423698.91816  99291279.58553  24247935.969                    24247945.582
 110639161.047 8  86212302.49346  21053907.047                    21053914.891
 106942525.288 8  83331789.830 8  20350468.539                    20350475.109
 11  8 19 18 10  0.0000000  0 10G17G13G24G01G28G19G11G26G08G07
 126164298.176 6  98309890.607 6  24008268.258                    24008279.258
 118559982.394 7  92384315.80344  22561198.180                    22561206.734
 120933105.413 7  94233651.51244  23012800.828                    23012811.379
 121351950.620 7  94560026.490 7  23092508.359                    23092521.063
 118181318.132 7  92089324.16045  22489135.820                    22489143.141
 119147824.454 7  92842572.52745  22673101.383                    22673107.691
 114558552.321 8  89266270.27345  21799714.305                    21799722.469
 127335967.567 6  99222917.53243  24231240.563                    24231250.938
 110577974.740 8  86164624.86446  21042263.539                    21042271.543
 106929787.521 8  83321864.284 7  20348044.539                    20348051.355
 11  8 19 18 10 30.0000000  0 10G17G13G24G01G28G19G11G26G08G07
 126063962.323 6  98231706.992 6  23989175.141                    23989186.223
 118664529.806 7  92465781.21444  22581092.945                    22581101.691
 120868627.507 6  94183409.06244  23000530.758                    23000541.504
 121282091.129 6  94505590.619 7  23079215.500                    23079227.461
 118151581.702 8  92066152.91945  22483476.914                    22483484.902
 119238713.480 7  92913395.11145  22690397.414                    22690403.414
 114521817.945 8  89237646.09745  21792724.109                    21792731.734
 127248616.854 6  99154852.11843  24214618.664                    24214628.484
 110516999.568 8  86117111.75246  21030660.695                    21030668.086
 106917435.068 8  83312238.983 8  20345694.094                    20345700.754
 11  8 19 18 11  0.0000000  0 10G17G13G24G01G28G19G11G26G08G07
 125963793.238 6  98153653.305 6  23970113.438                    23970124.227
 118769277.241 7  92547402.50044  22601025.172                    22601034.879
 120804378.091 7  94133344.68744  22988304.297                    22988315.227
 121212443.081 7  94451319.499 7  23065961.625                    23065973.676
 118121950.485 7  92043063.65845  22477838.133                    22477845.867
 119329889.898 7  92984441.64445  22707747.375                    22707753.957
 114485560.710 8  89209393.72445  21785824.617                    21785831.988
 127161649.617 6  99087085.45342  24198069.391                    24198079.230
 110456238.565 8  86069765.52346  21019098.219                    21019105.863
 106905470.249 8  83302915.741 8  20343417.047                    20343424.031
 11  8 19 18 11 30.0000000  0 10G17G13G24G01G28G19G11G26G08G07
 125863792.914 7  98075731.115 6  23951083.992                    23951095.156
 118874221.687 7  92629177.29744  22620996.070                    22621004.914
 120740360.198 7  94083460.70244  22976122.438                    22976132.785
 121143009.466 7  94397215.469 7  23052749.063                    23052760.574
 118092423.161 7  92020055.36545  22472219.117                    22472227.020
 119421350.503 7  93055709.58845  22725151.805                    22725157.844
 114449782.382 8  89181514.52345  21779016.391                    21779023.984
 127075068.385 6  99019619.61542  24181592.563                    24181602.602
 110395693.353 8  86022587.44046  21007576.906                    21007584.219
 106893894.359 8  83293895.546 7  20341214.477                    20341221.035
 11  8 19 18 12  0.0000000  0 10G17G13G24G01G28G19G11G26G08G07
 125763962.782 7  97997941.518 6  23932086.844                    23932097.617
 118979359.862 7  92711103.05044  22641002.984                    22641012.148
 120676576.725 7  94033759.39244  22963984.281                    22963995.309
 121073793.231 7  94343280.823 7  23039576.820                    23039589.797
 118062998.753 7  91997127.25745  22466620.367                    22466627.191
 119513093.057 7  93127197.24445  22742610.656                    22742616.313
 114414484.882 8  89154010.01445  21772299.070                    21772306.762
 126988875.806 6  98952456.59242  24165190.313                    24165201.000
 110335366.260 8  85975579.31646  20996097.078                    20996104.668
 106882708.884 8  83285179.591 8  20339085.977                    20339092.691
 11  8 19 18 12 30.0000000  0 10G17G13G24G01G28G19G11G26G08G07
 125664305.116 7  97920286.318 6  23913122.180                    23913133.395
 119084688.552 7  92793177.23244  22661046.359                    22661055.469
 120613030.807 7  93984243.17544  22951892.672                    22951902.230
 121004797.358 7  94289517.884 7  23026447.469                    23026459.766
 118033676.491 7  91974278.76145  22461040.000                    22461047.438
 119605114.225 7  93198902.00545  22760121.414                    22760127.930
 114379670.805 8  89126882.18545  21765674.305                    21765681.844
 126903074.706 6  98885598.66442  24148863.500                    24148873.391
 110275259.952 8  85928743.24746  20984659.367                    20984667.055
 106871915.481 8  83276769.131 8  20337032.094                    20337038.703
 11  8 19 18 13  0.0000000  0 10G17G13G24G01G28G19G11G26G08G07
 125564822.065 7  97842767.167 6  23894191.281                    23894201.805
 119190205.303 7  92875397.97044  22681126.344                    22681135.070
 120549725.794 7  93934914.65244  22939846.008                    22939855.816
 120936025.614 7  94235929.577 7  23013361.117                    23013373.242
 118004456.075 7  91951509.61645  22455479.672                    22455487.039
 119697411.306 7  93270821.75845  22777684.453                    22777691.602
 114345342.285 7  89100132.71145  21759141.953                    21759149.352
 126817668.351 6  98819048.31542  24132610.930                    24132621.793
 110215377.236 8  85882081.40346  20973263.625                    20973271.570
 106861516.490 8  83268666.038 8  20335053.281                    20335059.906
 11  8 19 18 13 30.0000000  0 10G17G13G24G01G28G19G11G26G08G07
 125465515.972 7  97765385.914 6  23875293.539                    23875304.684
 119295906.951 7  92957762.79144  22701240.297                    22701249.102
 120486665.014 7  93885776.45644  22927845.688                    22927856.309
 120867480.623 7  94182517.958 7  23000317.008                    23000329.563
 117975336.337 7  91928818.92045  22449938.219                    22449945.660
 119789981.564 7  93342954.37245  22795300.336                    22795307.004
 114311501.465 7  89073763.26945  21752701.930                    21752709.574
 126732659.214 6  98752807.44842  24116434.375                    24116445.359
 110155720.650 8  85835595.77646  20961911.867                    20961919.574
 106851513.687 8  83260871.633 8  20333149.563                    20333156.289
 11  8 19 18 14  0.0000000  0 10G17G13G24G01G28G19G11G26G08G07
 125366388.229 7  97688143.615 6  23856430.375                    23856440.574
 119401790.084 7  93040269.01944  22721389.414                    22721398.016
 120423850.890 6  93836830.46944  22915892.047                    22915902.879
 120799165.323 7  94129285.310 7  22987317.438                    22987329.430
 117946315.918 7  91906205.62445  22444415.688                    22444423.531
 119882821.988 7  93415297.51345  22812967.469                    22812973.586
 114278150.176 7  89047775.28745  21746355.430                    21746363.887
 126648049.971 6  98686878.22742  24100333.914                    24100344.168
 110096291.839 8  85789287.62946  20950602.391                    20950610.422
 106841907.893 8  83253386.594 8  20331321.672                    20331328.398
 11  8 19 18 14 30.0000000  0 10G17G13G24G01G28G19G11G26G08G07
 125267441.097 7  97611042.049 6  23837601.539                    23837611.430
 119507851.637 7  93122914.27144  22741572.359                    22741581.078
 120361286.707 7  93788079.22444  22903987.086                    22903997.352
 120731082.789 7  94076234.048 7  22974361.180                    22974373.559
 117917393.757 7  91883668.89445  22438912.500                    22438920.168
 119975929.817 7  93487849.02545  22830685.359                    22830691.906
 114245290.340 8  89022170.24745  21740102.945                    21740109.902
 126563842.975 6  98621262.44042  24084309.492                    24084320.207
 110037093.525 8  85743159.08946  20939337.328                    20939345.449
 106832700.779 8  83246212.214 8  20329569.703                    20329576.512
 11  8 19 18 15  0.0000000  0 10G17G13G24G01G28G19G11G26G08G07
 125168676.208 7  97534082.519 6  23818806.602                    23818816.988
 119614088.337 7  93205695.99944  22761788.602                    22761797.832
 120298975.562 7  93739525.14144  22892130.063                    22892139.402
 120663236.181 7  94023366.604 7  22961450.461                    22961462.754
 117888569.690 7  91861208.60045  22433426.977                    22433434.395
 120069301.967 7  93560606.48545  22848453.508                    22848459.695
 114212924.004 7  88996949.74245  21733943.430                    21733951.047
 126480041.446 6  98555962.61543  24068361.938                    24068373.176
 109978128.036 8  85697211.97046  20928116.758                    20928124.402
 106823894.246 8  83239349.970 8  20327893.672                    20327900.809
 11  8 19 18 15 30.0000000  0 10G17G13G24G01G28G19G11G26G08G07
 125070095.572 7  97457266.552 6  23800047.352                    23800058.020
 119720497.486 7  93288612.11944  22782037.813                    22782047.211
 120236920.363 7  93691170.48544  22880320.359                    22880331.160
 120595628.334 7  93970685.202 7  22948584.672                    22948597.141
 117859842.618 7  91838823.88645  22427960.617                    22427967.832
 120162935.996 7  93633568.01145  22866271.727                    22866277.293
 114181053.063 7  88972115.26445  21727878.570                    21727886.395
 126396647.932 6  98490980.71143  24052493.617                    24052503.703
 109919397.829 8  85651448.18046  20916940.703                    20916948.672
 106815489.731 8  83232800.991 8  20326294.438                    20326301.609
 11  8 19 18 16  0.0000000  0 10G17G13G24G01G28G19G11G26G08G07
 124971701.346 6  97380595.852 6  23781323.391                    23781333.594
 119827075.875 7  93371660.08744  22802319.641                    22802327.629
 120175124.307 7  93643017.76144  22868560.711                    22868571.801
 120528262.598 7  93918192.451 7  22935766.094                    22935778.363
 117831211.518 7  91816513.94845  22422512.602                    22422519.527
 120256829.070 7  93706731.40145  22884138.711                    22884144.949
 114149679.320 8  88947668.19445  21721908.320                    21721915.961
 126313664.955 6  98426318.72543  24036702.031                    24036713.230
 109860905.507 8  85605869.76346  20905810.016                    20905817.840
 106807489.064 8  83226566.692 8  20324771.852                    20324779.000
 11  8 19 18 16 30.0000000  0 10G17G13G24G01G28G19G11G26G08G07
 124873495.335 7  97304071.815 6  23762635.523                    23762645.988
 119933820.077 7  93454837.30144  22822631.734                    22822641.297
 120113590.241 7  93595069.18444  22856851.508                    22856861.832
 120461141.679 7  93865890.476 7  22922993.086                    22923005.875
 117802675.293 7  91794277.94445  22417081.914                    22417089.066
 120350978.169 7  93780094.28045  22902054.609                    22902061.172
 114118805.029 7  88923610.32345  21716032.719                    21716040.797
 126231095.265 6  98361978.77943  24020989.828                    24021000.008
 109802653.093 7  85560478.27546  20894724.781                    20894732.793
 106799893.507 8  83220648.060 8  20323326.727                    20323333.875
 11  8 19 18 17  0.0000000  0 10G17G13G24G01G28G19G11G26G08G07
 124775479.196 7  97227695.707 6  23743983.313                    23743993.805
 120040727.340 7  93538141.53444  22842975.461                    22842984.891
 120052320.914 7  93547326.87344  22845192.664                    22845202.477
 120394268.540 7  93813781.567 7  22910267.750                    22910279.695
 117774232.964 7  91772115.11845  22411669.875                    22411676.977
 120445380.422 7  93853654.43645  22920018.742                    22920025.398
 114088431.991 7  88899943.01745  21710253.555                    21710261.316
 126148941.395 6  98297962.85443  24005356.234                    24005366.332
 109744643.081 8  85515275.67846  20883686.086                    20883693.730
 106792704.300 8  83215046.065 8  20321958.758                    20321965.527
 11  8 19 18 17 30.0000000  0 10G17G13G24G01G28G19G11G26G08G07
 124677655.599 7  97151469.609 6  23725368.039                    23725378.418
 120147794.577 7  93621570.44544  22863349.781                    22863359.289
 119991319.670 7  93499793.46344  22833583.953                    22833594.234
 120327646.514 7  93761868.327 7  22897589.867                    22897602.141
 117745884.356 7  91750025.31545  22406274.813                    22406282.734
 120540033.316 7  93927409.90645  22938031.242                    22938037.273
 114058562.476 7  88876668.08345  21704569.438                    21704577.137
 126067206.301 6  98234273.21343  23989802.359                    23989812.660
 109686878.461 8  85470264.30246  20872693.695                    20872701.820
 106785923.944 8  83209762.660 8  20320668.344                    20320675.277
 11  8 19 18 18  0.0000000  0 10G17G13G24G01G28G19G11G26G08G07
 124580025.899 7  97075394.632 6  23706789.727                    23706800.797
 120255018.940 7  93705121.77144  22883753.477                    22883763.195
 119930589.435 7  93452471.23544  22822027.188                    22822038.008
 120261278.693 7  93710153.168 7  22884960.391                    22884972.695
 117717627.880 7  91728007.30245  22400897.969                    22400905.070
 120634933.698 7  94001358.21544  22956090.219                    22956095.984
 114029198.062 7  88853786.72945  21698981.617                    21698989.031
 125985892.484 6  98170911.90243  23974328.742                    23974339.500
 109629361.611 7  85425445.97946  20861748.508                    20861756.766
 106779553.088 8  83204798.342 8  20319455.930                    20319463.383
 11  8 19 18 18 30.0000000  0 10G17G13G24G01G28G19G11G26G08G07
 124482592.167 7  96999472.337 6  23688248.578                    23688258.941
 120362397.018 7  93788792.87844  22904187.500                    22904196.656
 119870133.555 6  93405362.79744  22810523.250                    22810533.609
 120195168.176 7  93658638.508 7  22872380.141                    22872392.207
 117689462.887 7  91706060.56945  22395538.219                    22395545.965
 120730078.813 7  94075497.21345  22974194.781                    22974201.777
 114000340.501 7  88831300.33945  21693489.898                    21693497.563
 125905002.642 7  98107880.90243  23958936.148                    23958946.336
 109572094.771 8  85380822.46846  20850851.195                    20850858.988
 106773593.762 8  83200154.705 7  20318321.766                    20318328.953
 11  8 19 18 19  0.0000000  0 10G17G13G24G01G28G19G11G26G08G07
 124385356.348 7  96923704.279 6  23669745.117                    23669755.695
 120469926.135 7  93872581.68344  22924649.828                    22924659.008
 119809954.938 7  93358470.40344  22799071.633                    22799082.152
 120129317.734 7  93607326.499 7  22859849.172                    22859860.859
 117661388.796 7  91684184.67445  22390196.578                    22390203.164
 120825466.009 7  94149824.84445  22992347.188                    22992353.762
 113971991.913 7  88809210.55345  21688095.359                    21688103.082
 125824539.529 7  98045182.47343  23943625.133                    23943634.805
 109515080.316 8  85336395.62846  20840001.750                    20840009.469
 106768047.823 8  83195833.186 8  20317266.594                    20317273.645
 11  8 19 18 19 30.0000000  0 10G17G13G24G01G28G19G11G26G08G07
 124288320.274 6  96848091.873 6  23651279.789                    23651290.367
 120577602.884 7  93956485.51644  22945139.914                    22945149.328
 119750056.098 7  93311796.04344  22787673.008                    22787683.680
 120063730.203 7  93556219.360 7  22847367.750                    22847380.367
 117633404.112 7  91662378.45845  22384871.016                    22384878.430
 120921092.325 7  94224338.81244  23010543.828                    23010550.707
 113944153.690 7  88787518.43645  21682797.438                    21682805.289
 125744505.213 7  97982818.13943  23928395.039                    23928404.594
 109458320.431 8  85292167.15146  20829200.391                    20829208.172
 106762915.737 8  83191834.140 8  20316289.875                    20316297.086
 11  8 19 18 20  0.0000000  0 10G17G13G24G01G28G19G11G26G08G07
 124191486.191 6  96772636.854 6  23632852.633                    23632863.285
 120685423.966 7  94040501.82444  22965657.641                    22965667.129
 119690440.416 7  93265342.29444  22776328.359                    22776338.969
 119998408.953 7  93505319.739 7  22834938.039                    22834950.227
 117605508.342 7  91640641.51245  22379562.555                    22379570.375
 121016954.874 7  94299036.86045  23028786.320                    23028792.449
 113916827.974 7  88766225.68745  21677598.156                    21677606.125
 125664902.658 7  97920790.23443  23913247.086                    23913256.398
 109401818.065 8  85248139.34346  20818448.555                    20818456.301
 106758199.586 8  83188159.198 8  20315392.453                    20315399.238
 11  8 19 18 20 30.0000000  0 10G17G13G24G01G28G19G11G26G08G07
 124094855.418 7  96697340.253 6  23614464.398                    23614475.398
 120793386.913 7  94124628.69044  22986201.906                    22986211.613
 119631110.942 7  93219111.57644  22765038.328                    22765048.887
 119933356.783 7  93454629.789 7  22822558.484                    22822570.766
 117577700.948 7  91618973.42245  22374270.766                    22374278.352
 121113051.169 7  94373917.04244  23047072.633                    23047078.953
 113890016.607 7  88745333.72945  21672496.016                    21672503.664
 125585734.491 7  97859100.78643  23898182.008                    23898191.258
 109345575.543 8  85204314.00746  20807745.914                    20807753.391
 106753901.163 8  83184809.766 8  20314574.461                    20314581.938
 11  8 19 18 21  0.0000000  0 10G17G13G24G01G28G19G11G26G08G07
 123998430.076 6  96622203.745 6  23596115.297                    23596126.254
 120901488.155 7  94208863.29244  23006773.539                    23006783.184
 119572070.483 7  93173106.04644  22753803.859                    22753813.797
 119868576.784 7  93404151.926 7  22810231.797                    22810243.688
 117549980.538 7  91597373.12345  22368995.836                    22369002.918
 121209378.125 7  94448976.94945  23065402.930                    23065409.641
 113863721.220 7  88724843.84945  21667492.523                    21667499.945
 125507003.077 7  97797751.63043  23883199.750                    23883209.684
 109289595.332 8  85160693.07146  20797093.477                    20797100.852
 106750021.337 8  83181786.515 7  20313836.336                    20313843.438
 11  8 19 18 21 30.0000000  0 10G17G13G24G01G28G19G11G26G08G07
 123902211.724 6  96547228.523 6  23577805.016                    23577815.633
 121009724.582 7  94293203.22744  23027370.453                    23027379.703
 119513321.896 7  93127327.96044  22742624.273                    22742634.402
 119804071.969 7  93353888.491 7  22797956.430                    22797968.605
 117522346.260 7  91575839.92245  22363736.805                    22363744.301
 121305932.977 7  94524214.44345  23083776.805                    23083783.574
 113837943.388 7  88704757.25545  21662587.023                    21662594.680
 125428710.969 7  97736744.81543  23868301.227                    23868311.090
 109233879.720 8  85117278.30046  20786490.664                    20786497.859
 106746561.742 8  83179090.715 8  20313177.828                    20313184.809
 11  8 19 18 22  0.0000000  0 10G17G13G24G01G28G19G11G26G08G07
 123806202.745 7  96472416.467 6  23559535.305                    23559545.410
 121118093.531 7  94377646.43244  23047992.648                    23048001.359
 119454868.691 7  93081780.05544  22731500.602                    22731511.148
 119739845.380 7  93303841.873 7  22785734.844                    22785746.918
 117494797.642 7  91554373.48145  22358494.430                    22358502.445
 121402713.286 7  94599627.61645  23102193.789                    23102200.309
 113812685.159 8  88685075.53345  21657780.516                    21657787.703
 125350861.016 6  97676082.56443  23853485.930                    23853496.695
 109178431.504 8  85074071.90146  20775939.273                    20775947.211
 106743524.210 8  83176723.795 8  20312600.172                    20312606.918
 11  8 19 18 22 30.0000000  0 10G17G13G24G01G28G19G11G26G08G07
 123710404.725 7  96397768.809 6  23541305.820                    23541316.035
 121226591.892 7  94462190.47944  23068638.922                    23068648.594
 119396713.224 7  93036464.18044  22720434.430                    22720444.211
 119675899.592 7  93254014.048 7  22773565.891                    22773578.391
 117467333.358 7  91532972.75645  22353268.461                    22353275.941
 121499715.717 7  94675213.85344  23120653.461                    23120659.574
 113787947.623 8  88665799.54345  21653072.422                    21653080.551
 125273455.305 6  97615766.41943  23838756.133                    23838766.203
 109123252.629 8  85031075.37546  20765439.523                    20765447.195
 106740909.688 8  83174686.491 8  20312102.391                    20312109.598
 11  8 19 18 23  0.0000000  0 10G17G13G24G01G28G19G11G26G08G07
 123614819.583 7  96323287.008 6  23523116.125                    23523126.219
 121335216.268 7  94546832.72244  23089309.539                    23089319.473
 119338858.618 7  92991382.74444  22709424.844                    22709434.988
 119612238.168 7  93204407.805 7  22761451.586                    22761463.840
 117439952.820 7  91511637.28545  22348057.984                    22348065.297
 121596937.789 7  94750971.27444  23139153.758                    23139160.113
 113763732.878 7  88646930.93645  21648465.336                    21648472.707
 125196496.659 6  97555798.68243  23824111.734                    23824121.770
 109068345.873 8  84988290.89546  20754990.891                    20754998.625
 106738719.835 7  83172980.094 8  20311685.539                    20311692.957
 11  8 19 18 23 30.0000000  0 10G17G13G24G01G28G19G11G26G08G07
 123519449.204 7  96248972.592 6  23504967.930                    23504978.641
 121443964.012 7  94631571.06444  23110004.453                    23110013.523
 119281308.051 7  92946538.19544  22698473.102                    22698483.379
 119548863.661 7  93155025.109 7  22749391.516                    22749404.008
 117412655.408 7  91490366.60145  22342863.586                    22342870.836
 121694376.588 7  94826897.57144  23157695.758                    23157701.910
 113740042.869 8  88628471.19045  21643957.180                    21643964.695
 125119987.835 6  97496181.44943  23809552.227                    23809562.590
 109013714.364 8  84945720.89246  20744595.055                    20744602.695
 106736956.291 8  83171605.891 8  20311349.984                    20311357.355
 11  8 19 18 24  0.0000000  0 10G17G13G24G01G28G19G11G26G08G07
 123424295.498 7  96174826.951 6  23486860.125                    23486870.016
 121552831.840 7  94716402.99844  23130721.344                    23130731.055
 119224064.443 7  92901932.86344  22687580.250                    22687590.207
 119485779.060 7  93105868.318 7  22737387.109                    22737399.840
 117385439.893 7  91469159.72545  22337684.758                    22337692.141
 121792029.118 7  94902990.39744  23176278.445                    23176284.457
 113716878.892 7  88610421.33145  21639549.281                    21639557.117
 125043930.866 6  97436916.32643  23795079.633                    23795089.563
 108959359.734 8  84903366.65046  20734251.367                    20734259.219
 106735620.065 7  83170564.662 8  20311095.836                    20311103.109
 11  8 19 18 24 30.0000000  0 10G17G13G24G01G28G19G11G26G08G07
 123329359.868 7  96100851.275 6  23468795.258                    23468804.813
 121661816.562 7  94801326.02344  23151460.398                    23151469.758
 119167130.316 7  92857568.67144  22676745.680                    22676755.488
 119422987.342 7  93056939.764 7  22725438.227                    22725450.328
 117358305.161 7  91448015.80145  22332520.836                    22332528.520
 121889892.911 7  94979247.85144  23194901.477                    23194907.613
 113694242.218 8  88592782.37745  21635241.281                    21635248.996
 124968328.291 6  97378005.26343  23780693.242                    23780702.625
 108905284.305 8  84861229.96146  20723961.164                    20723969.250
 106734712.365 8  83169857.351 8  20310923.328                    20310930.184
 11  8 19 18 25  0.0000000  0 10G17G13G24G01G28G19G11G26G08G07
 123234644.434 7  96027047.161 6  23450770.625                    23450780.617
 121770915.101 7  94886337.71044  23172220.922                    23172230.828
 119110508.932 7  92813448.16744  22665970.914                    22665980.750
 119360491.530 7  93008241.780 7  22713545.914                    22713557.879
 117331250.621 7  91426934.35245  22327372.602                    22327380.781
 121987965.340 7  95055667.88644  23213563.313                    23213570.000
 113672134.838 7  88575555.84845  21631034.336                    21631042.047
 124893182.790 6  97319450.40043  23766392.305                    23766402.355
 108851491.316 8  84819313.35946  20713724.641                    20713732.207
 106734234.813 8  83169485.222 8  20310832.320                    20310839.770
 11  8 19 18 25 30.0000000  0 10G17G13G24G01G28G19G11G26G08G07
 123140151.671 7  95953416.573 6  23432789.172                    23432799.641
 121880124.882 7  94971436.09343  23193002.695                    23193012.402
 119054203.299 7  92769573.70544  22655256.695                    22655266.695
 119298294.926 7  92959776.938 7  22701709.844                    22701721.840
 117304275.745 7  91405914.98645  22322239.305                    22322247.023
 122086243.752 7  95132248.40844  23232265.695                    23232271.766
 113650558.467 8  88558743.09745  21626928.344                    21626935.805
 124818496.781 7  97261253.57643  23752180.563                    23752190.734
 108797983.159 8  84777618.70046  20703542.297                    20703550.113
 106734189.622 8  83169449.991 8  20310823.445                    20310830.867
 11  8 19 18 26  0.0000000  0 10G17G13G24G01G28G19G11G26G08G07
 123045882.780 7  95879960.401 6  23414850.555                    23414860.762
 121989442.317 7  95056618.32943  23213804.664                    23213814.723
 118998215.717 7  92725947.06844  22644602.633                    22644612.375
 119236399.926 7  92911547.099 7  22689931.508                    22689944.047
 117277379.909 7  91384957.20045  22317121.367                    22317129.141
 122184724.636 7  95208986.72344  23251005.836                    23251012.313
 113629514.397 8  88542345.14045  21622923.813                    21622931.621
 124744272.401 7  97203416.44743  23738056.055                    23738066.695
 108744761.912 8  84736147.61346  20693414.820                    20693422.383
 106734576.591 8  83169751.505 8  20310897.320                    20310904.500
 11  8 19 18 26 30.0000000  0 10G17G13G24G01G28G19G11G26G08G07
 122951839.331 7  95806679.917 6  23396954.500                    23396964.266
 122098864.755 7  95141882.41643  23234627.625                    23234637.898
 118942549.468 7  92682570.83644  22634009.031                    22634019.047
 119174809.637 7  92863554.723 7  22678211.547                    22678223.633
 117250561.729 7  91364059.93645  22312018.195                    22312025.098
 122283406.106 7  95285881.31644  23269784.500                    23269790.797
 113609004.493 8  88526363.42845  21619020.969                    21619028.410
 124670512.288 7  97145941.09843  23724020.266                    23724030.086
 108691830.529 8  84694902.38546  20683342.148                    20683349.785
 106735397.852 7  83170391.451 8  20311053.516                    20311060.836
 11  8 19 18 27  0.0000000  0 10G17G13G24G01G28G19G11G26G08G07
 122858022.926 7  95733576.341 6  23379102.211                    23379111.527
 122208388.903 7  95227225.75943  23255469.586                    23255479.270
 118887207.413 7  92639447.22044  22623478.141                    22623488.004
 119113526.809 7  92815801.912 7  22666549.328                    22666561.852
 117223820.463 7  91343222.60945  22306929.570                    22306936.313
 122382284.688 7  95362929.51744  23288600.172                    23288606.984
 113589029.423 8  88510798.46245  21615220.148                    21615227.734
 124597218.889 7  97088829.38343  23710073.266                    23710082.539
 108639190.827 8  84653884.44246  20673325.078                    20673333.137
 106736654.567 8  83171370.699 8  20311292.984                    20311299.930
 11  8 19 18 27 30.0000000  0 10G17G13G24G01G28G19G11G26G08G07
 122764436.205 7  95660651.719 6  23361292.695                    23361302.246
 122318012.225 7  95312646.37443  23276330.750                    23276340.535
 118832192.800 7  92596578.74744  22613009.109                    22613019.094
 119052555.083 7  92768291.512 7  22654947.453                    22654959.047
 117197155.610 7  91322444.83145  22301855.320                    22301862.652
 122481358.227 7  95440129.61944  23307453.391                    23307460.258
 113569591.539 8  88495652.08545  21611520.992                    21611528.707
 124524394.772 7  97032083.36943  23696215.250                    23696224.563
 108586845.938 8  84613096.22946  20663364.211                    20663372.051
 106738348.901 7  83172690.946 8  20311615.164                    20311622.480
 11  8 19 18 28  0.0000000  0 10G17G13G24G01G28G19G11G26G08G07
 122671080.470 7  95587907.092 6  23343527.695                    23343537.523
 122427731.026 7  95398141.38343  23297209.719                    23297219.125
 118777507.913 7  92553967.17544  22602602.961                    22602612.500
 118991896.496 7  92721025.127 7  22643404.172                    22643416.395
 117170566.490 7  91301726.04445  22296795.547                    22296802.938
 122580623.793 6  95517479.36044  23326343.406                    23326349.801
 113550692.024 8  88480925.22945  21607924.805                    21607931.566
 124452041.755 7  96975704.46943  23682446.117                    23682456.066
 108534798.071 8  84572539.45846  20653459.820                    20653467.777
 106740481.221 8  83174352.485 8  20312020.789                    20312028.418
 11  8 19 18 28 30.0000000  0 10G17G13G24G01G28G19G11G26G08G07
 122577957.443 7  95515343.820 6  23325806.422                    23325816.844
 122537542.522 7  95483708.64244  23318106.617                    23318115.906
 118723155.994 7  92511615.08244  22592259.734                    22592270.125
 118931554.205 7  92674005.208 7  22631921.469                    22631934.070
 117144051.407 7  91281064.96045  22291749.742                    22291757.059
 122680078.355 7  95594976.35544  23345269.117                    23345275.059
 113532331.947 8  88466618.70545  21604431.242                    21604438.246
 124380162.612 7  96919694.77743  23668768.148                    23668778.203
 108483049.563 8  84532215.94946  20643612.453                    20643620.379
 106743052.762 8  83176356.272 8  20312510.500                    20312517.488
 11  8 19 18 29  0.0000000  0 10G17G13G24G01G28G19G11G26G08G07
 122485068.762 7  95442963.135 6  23308130.602                    23308140.070
 122647443.957 7  95569345.96644  23339019.625                    23339029.930
 118669139.739 7  92469524.52844  22581980.906                    22581990.777
 118871531.029 7  92627233.940 7  22620499.305                    22620511.164
 117117609.542 7  91260460.91845  22286718.156                    22286725.566
 122779719.135 6  95672618.46144  23364229.945                    23364236.250
 113514513.013 8  88452733.85445  21601039.719                    21601047.258
 124308759.502 7  96864056.03943  23655180.297                    23655190.301
 108431602.989 8  84492127.70746  20633822.664                    20633830.367
 106746064.810 8  83178703.307 8  20313084.094                    20313090.680
 11  8 19 18 29 30.0000000  0 10G17G13G24G01G28G19G11G26G08G07
 122392416.345 7  95370766.567 6  23290499.141                    23290509.168
 122757431.922 7  95655050.70943  23359949.742                    23359960.289
 118615462.073 7  92427697.80944  22571766.172                    22571776.676
 118811829.949 7  92580713.663 7  22609138.711                    22609150.547
 117091240.906 8  91239913.94445  22281700.094                    22281707.902
 122879543.594 7  95750403.70244  23383225.523                    23383232.750
 113497236.286 8  88439271.49445  21597752.242                    21597759.578
 124237834.845 7  96808790.10443  23641684.102                    23641694.336
 108380460.852 8  84452276.68946  20624090.227                    20624098.422
 106749518.707 8  83181394.647 8  20313740.930                    20313747.832
 11  8 19 18 30  0.0000000  0 10G17G13G24G01G28G19G11G26G08G07
 122300002.352 7  95298755.763 6  23272913.313                    23272923.254
 122867503.605 7  95740820.68943  23380895.469                    23380906.313
 118562125.926 7  92386137.20144  22561616.773                    22561626.816
 118752454.341 7  92534447.014 7  22597839.617                    22597851.770
 117064944.630 7  91219423.36845  22276696.414                    22276703.609
 122979548.981 7  95828329.92644  23402256.406                    23402262.746
 113480503.563 8  88426233.02945  21594568.086                    21594575.137
 124167391.096 7  96753898.90143  23628279.219                    23628288.543
 108329626.178 8  84412665.27046  20614416.930                    20614424.363
 106753416.195 8  83184431.636 7  20314482.766                    20314489.781
 11  8 19 18 30 30.0000000  0 10G17G13G24G01G28G19G11G26G08G07
 122207828.164 7  95226931.846 7  23255373.141                    23255383.328
 122977656.174 7  95826653.68643  23401856.883                    23401867.500
 118509134.037 7  92344844.87944  22551532.867                    22551542.676
 118693406.583 7  92488435.817 7  22586603.328                    22586615.160
 117038719.883 8  91198988.51545  22271705.836                    22271713.184
 123079732.746 7  95906395.13644  23421320.461                    23421327.566
 113464315.815 8  88413619.22045  21591487.492                    21591495.258
 124097430.494 7  96699384.15243  23614965.266                    23614975.742
 108279101.308 8  84373295.23546  20604802.484                    20604810.188
 106757758.171 8  83187814.987 8  20315308.820                    20315315.770
 11  8 19 18 31  0.0000000  0 10G17G13G24G01G28G19G11G26G08G07
 122115895.440 7  95155296.069 6  23237879.172                    23237888.133
 123087886.230 7  95912547.04543  23422833.867                    23422844.313
 118456488.921 7  92303822.74544  22541514.711                    22541525.297
 118634689.441 7  92442682.239 7  22575430.109                    22575441.914
 117012565.599 8  91178608.56045  22266728.773                    22266736.215
 123180092.240 7  95984597.26344  23440418.586                    23440425.203
 113448674.482 8  88401431.18245  21588510.727                    21588518.328
 124027955.410 7  96645247.74143  23601745.234                    23601755.301
 108228888.546 8  84334168.40946  20595247.227                    20595255.121
 106762545.799 8  83191545.611 8  20316219.945                    20316226.754
 11  8 19 18 31 30.0000000  0 10G17G13G24G01G28G19G11G26G08G07
 122024206.136 7  95083849.971 6  23220431.016                    23220441.184
 123198191.084 7  95998498.70643  23443824.117                    23443833.887
 118404193.746 7  92263073.29244  22531562.813                    22531573.145
 118576306.153 7  92397188.806 7  22564319.680                    22564331.652
 116986481.183 7  91158283.06145  22261764.922                    22261772.262
 123280624.549 7  96062934.07244  23459549.492                    23459555.863
 113433581.160 8  88389670.16245  21585638.930                    21585646.574
 123958967.896 6  96591491.29743  23588617.344                    23588627.441
 108178990.446 8  84295286.77446  20585751.969                    20585759.863
 106767780.366 8  83195624.481 8  20317215.961                    20317223.059
 11  8 19 18 32  0.0000000  0 10G17G13G24G01G28G19G11G26G08G07
 121932761.848 7  95012594.786 6  23203029.313                    23203038.859
 123308567.463 6  96084506.09643  23464827.906                    23464838.250
 118352251.065 7  92222598.51344  22521678.820                    22521689.043
 118518259.235 7  92351957.486 7  22553273.867                    22553285.770
 116960465.660 7  91138011.23945  22256814.758                    22256821.863
 123381326.929 7  96141403.41544  23478712.359                    23478719.270
 113419036.535 8  88378336.69145  21582871.109                    21582878.613
 123890470.035 6  96538116.37543  23575582.813                    23575592.430
 108129409.151 8  84256651.99446  20576317.242                    20576324.730
 106773462.668 8  83200052.234 8  20318297.234                    20318304.188
 11  8 19 18 32 30.0000000  0 10G17G13G24G01G28G19G11G26G08G07
 121841564.188 7  94941531.766 6  23185675.414                    23185685.156
 123419012.358 7  96170566.85943  23485845.180                    23485856.070
 118300664.005 7  92182400.84744  22511861.930                    22511872.105
 118460551.538 7  92306990.479 7  22542292.523                    22542304.531
 116934518.211 8  91117792.46345  22251876.930                    22251884.027
 123482196.642 7  96220003.13544  23497907.000                    23497913.527
 113405042.199 8  88367432.02745  21580207.773                    21580215.258
 123822464.484 7  96485125.08244  23562641.414                    23562651.859
 108080147.406 8  84218266.22446  20566942.500                    20566950.359
 106779594.204 8  83204830.050 8  20319463.961                    20319471.305
 11  8 19 18 33  0.0000000  0 10G17G13G24G01G28G19G11G26G08G07
 121750614.902 7  94870662.298 6  23168368.352                    23168377.984
 123529523.143 7  96256678.95243  23506875.289                    23506885.102
 118249435.249 7  92142482.36344  22502113.227                    22502123.762
 118403185.673 7  92262289.841 7  22531376.039                    22531387.387
 116908638.096 8  91097626.16245  22246951.891                    22246959.273
 123583231.103 7  96298731.22144  23517133.469                    23517139.973
 113391599.258 8  88356957.01145  21577650.016                    21577657.180
 123754953.118 6  96432518.88743  23549794.477                    23549804.746
 108031207.797 8  84180131.46146  20557629.852                    20557637.492
 106786175.994 8  83209958.701 8  20320716.656                    20320723.586
 11  8 19 18 33 30.0000000  0 10G17G13G24G01G28G19G11G26G08G07
 121659915.827 7  94799987.785 6  23151108.820                    23151118.473
 123640096.472 7  96342839.80643  23527916.836                    23527926.336
 118198567.541 7  92102845.21344  22492433.922                    22492444.602
 118346164.941 7  92217858.147 7  22520525.344                    22520537.395
 116882824.721 7  91077511.85645  22242039.758                    22242046.652
 123684427.507 7  96377585.50644  23536389.969                    23536396.914
 113378708.716 8  88346912.44545  21575196.680                    21575204.184
 123687938.339 6  96380299.63843  23537041.813                    23537052.008
 107982592.664 8  84142249.53946  20548378.734                    20548386.469
 106793209.356 8  83215439.227 8  20322054.984                    20322061.914
 11  8 19 18 34  0.0000000  0 10G17G13G24G01G28G19G11G26G08G07
 121569468.532 7  94729509.475 6  23133897.086                    23133906.676
 123750729.728 7  96429047.36144  23548969.711                    23548979.430
 118148063.686 7  92063491.60244  22482822.445                    22482833.215
 118289492.003 7  92173697.449 7  22509740.781                    22509752.691
 116857077.055 7  91057448.74745  22237140.383                    22237147.594
 123785783.104 7  96456563.82144  23555677.523                    23555684.262
 113366371.884 8  88337299.34145  21572849.203                    21572856.695
 123621422.302 6  96328469.01743  23524384.375                    23524394.234
 107934304.805 8  84104622.62846  20539189.758                    20539197.355
 106800695.223 8  83221272.352 8  20323479.445                    20323486.625
 11  8 19 18 34 30.0000000  0 10G17G13G24G01G28G19G11G26G08G07
 121479274.555 7  94659228.533 6  23116733.805                    23116742.688
 123861419.585 7  96515299.02143  23570033.273                    23570043.336
 118097926.378 7  92024423.62344  22473282.250                    22473292.660
 118233169.645 7  92129809.948 7  22499023.227                    22499034.934
 116831394.877 7  91037436.67145  22232252.680                    22232260.016
 123887295.651 7  96535664.46144  23574995.117                    23575001.410
 113354590.107 8  88328118.75145  21570607.484                    21570614.844
 123555407.050 6  96277028.61043  23511821.844                    23511831.801
 107886346.674 8  84067252.66846  20530063.820                    20530071.363
 106808634.746 8  83227458.978 8  20324990.352                    20324997.895
 11  8 19 18 35  0.0000000  0 10G17G13G24G01G28G19G11G26G08G07
 121389335.475 7  94589146.201 6  23099618.469                    23099627.770
 123972163.265 6  96601592.60043  23591106.836                    23591117.309
 118048158.307 7  91985643.33644  22463811.844                    22463821.574
 118177200.519 7  92086197.680 7  22488372.250                    22488384.105
 116805776.936 8  91017474.64845  22227378.195                    22227385.336
 123988962.334 7  96614885.19944  23594341.414                    23594347.973
 113343364.180 8  88319371.28845  21568471.320                    21568478.832
 123489894.709 6  96225980.07443  23499355.156                    23499365.492
 107838720.486 8  84030141.35346  20521000.523                    20521008.223
 106817029.049 8  83233999.976 8  20326587.555                    20326594.637
 11  8 19 18 35 30.0000000  0 10G17G13G24G01G28G19G11G26G08G07
 121299653.095 7  94519263.902 6  23082552.680                    23082562.012
 124082957.499 7  96687925.59843  23612190.734                    23612201.387
 117998762.231 7  91947152.93344  22454412.109                    22454421.656
 118121587.546 7  92042862.925 7  22477789.578                    22477801.422
 116780222.583 8  90997562.16045  22222515.227                    22222522.277
 124090780.216 6  96694223.74344  23613716.906                    23613723.379
 113332695.404 8  88311057.96545  21566440.938                    21566448.297
 123424887.547 7  96175325.20243  23486984.477                    23486994.395
 107791428.813 8  83993290.69646  20512001.469                    20512009.191
 106825879.021 8  83240896.043 8  20328271.758                    20328278.852
 11  8 19 18 36  0.0000000  0 10G17G13G24G01G28G19G11G26G08G07
 121210229.199 7  94449583.021 6  23065535.656                    23065545.367
 124193799.300 7  96774295.64743  23633283.117                    23633293.676
 117949740.589 7  91908954.30144  22445083.383                    22445093.734
 118066333.092 7  91999807.552 7  22467274.477                    22467286.758
 116754731.036 8  90977698.62045  22217663.898                    22217671.258
 124192746.767 6  96773678.12844  23633120.906                    23633127.020
 113322584.525 8  88303179.37045  21564516.961                    21564523.949
 123360387.555 7  96125065.50243  23474711.070                    23474720.520
 107744474.080 8  83956702.58046  20503066.320                    20503073.961
 106835185.713 8  83248147.987 8  20330042.586                    20330049.902
 11  8 19 18 36 30.0000000  0 10G17G13G24G01G28G19G11G26G08G07
 121121065.461 7  94380104.869 6  23048568.664                    23048577.602
 124304686.351 7  96860700.94743  23654384.375                    23654395.195
 117901096.392 7  91871049.78644  22435826.797                    22435836.938
 118011440.540 7  91957034.169 7  22456828.914                    22456840.816
 116729301.893 8  90957883.71245  22212825.086                    22212832.457
 124294859.551 6  96853246.46844  23652551.961                    23652558.406
 113313032.912 8  88295736.57545  21562698.961                    21562706.500
 123296396.999 7  96075202.77343  23462534.125                    23462544.000
 107697859.142 8  83920379.25146  20494195.977                    20494203.527
 106844950.667 8  83255757.036 8  20331901.328                    20331908.348
 11  8 19 18 37  0.0000000  0 10G17G13G24G01G28G19G11G26G08G07
 121032163.357 7  94310830.579 6  23031650.508                    23031660.207
 124415615.302 7  96947138.91043  23675493.914                    23675504.531
 117852832.140 7  91833441.32744  22426642.055                    22426652.086
 117956912.280 7  91914544.660 7  22446452.781                    22446464.539
 116703934.116 8  90938116.62445  22207997.953                    22208004.867
 124397115.773 6  96932926.58344  23672010.523                    23672017.230
 113304041.729 8  88288730.47045  21560988.469                    21560995.668
 123232917.861 7  96025738.54643  23450454.328                    23450463.973
 107651586.311 8  83884322.49746  20485390.531                    20485397.727
 106855174.633 8  83263723.749 8  20333846.914                    20333853.207
 11  8 19 18 37 30.0000000  0 10G17G13G24G01G28G19G11G26G08G07
 120943524.681 7  94241761.558 6  23014783.258                    23014792.742
 124526583.344 7  97033607.34243  23696609.766                    23696620.867
 117804950.833 7  91796131.26644  22417530.578                    22417540.586
 117902751.324 7  91872341.360 7  22436146.055                    22436158.016
 116678627.065 8  90918396.84845  22203182.570                    22203189.211
 124499512.963 6  97012716.53344  23691496.469                    23691503.488
 113295611.840 8  88282161.73545  21559383.945                    21559391.641
 123169952.266 7  95976674.47443  23438472.180                    23438481.551
 107605658.127 8  83848534.30246  20476650.344                    20476657.910
 106865859.027 8  83272049.228 8  20335879.703                    20335887.020
 11  8 19 18 38  0.0000000  0 10G17G13G24G01G28G19G11G26G08G07
 120855151.019 7  94172899.062 6  22997965.828                    22997976.078
 124637587.421 7  97120103.80543  23717734.031                    23717745.008
 117757454.832 7  91759121.42244  22408492.336                    22408501.785
 117848960.316 7  91830426.332 7  22425910.430                    22425922.094
 116653380.045 7  90898723.85445  22198378.109                    22198385.398
 124602048.535 6  97092614.31344  23711008.148                    23711015.441
 113287743.966 8  88276030.92845  21557887.313                    21557894.555
 123107502.234 7  95928012.11843  23426588.477                    23426597.891
 107560077.222 8  83813016.71046  20467976.695                    20467984.285
 106877004.391 8  83280733.911 8  20338000.688                    20338008.082
 11  8 19 18 38 30.0000000  0 10G17G13G24G01G28G19G11G26G08G07
 120767043.731 7  94104244.104 7  22981200.156                    22981209.719
 124748624.865 6  97206626.31343  23738864.219                    23738874.930
 117710346.647 7  91722413.79644  22399527.844                    22399537.359
 117795541.995 7  91788801.697 7  22415745.039                    22415756.504
 116628192.479 7  90879097.19545  22193584.680                    22193591.711
 124704719.443 6  97172617.57244  23730545.969                    23730552.844
 113280439.053 8  88270338.79545  21556496.664                    21556504.328
 123045569.684 7  95879753.04343  23414802.758                    23414812.875
 107514845.918 8  83777771.54246  20459369.633                    20459377.504
 106888611.461 8  83289778.366 8  20340209.719                    20340216.605
 11  8 19 18 39  0.0000000  0 10G17G13G24G01G28G19G11G26G08G07
 120679204.637 7  94035798.152 7  22964484.906                    22964494.297
 124859692.248 6  97293172.12743  23759999.570                    23760009.945
 117663628.952 7  91686010.43544  22390637.852                    22390648.348
 117742498.602 7  91747469.231 7  22405651.172                    22405662.957
 116603063.471 7  90859516.16745  22188802.813                    22188810.047
 124807523.349 7  97252724.45044  23750109.016                    23750115.926
 113273698.266 8  88265086.25045  21555213.719                    21555221.625
 122984156.695 7  95831898.78143  23403116.438                    23403125.969
 107469966.370 8  83742800.46146  20450829.023                    20450836.805
 106900681.585 8  83299183.643 8  20342506.438                    20342513.480
 11  8 19 18 39 30.0000000  0 10G17G13G24G01G28G19G11G26G08G07
 120591635.062 7  93967562.199 6  22947821.172                    22947830.230
 124970786.642 6  97379738.98743  23781139.375                    23781150.477
 117617304.353 7  91649913.39944  22381822.813                    22381832.484
 117689832.886 7  91706431.036 7  22395629.055                    22395640.883
 116577992.094 7  90839980.05445  22184031.922                    22184038.969
 124910457.410 7  97332932.74744  23769696.930                    23769703.766
 113267521.909 8  88260273.51045  21554038.883                    21554046.449
 122923264.904 7  95784450.63443  23391528.836                    23391538.344
 107425440.862 8  83708105.26046  20442356.078                    20442363.871
 106913215.071 8  83308949.973 7  20344891.359                    20344898.367
 11  8 19 18 40  0.0000000  0 10G17G13G24G01G28G19G11G26G08G07
 120504336.863 7  93899537.703 7  22931208.352                    22931217.875
 125081905.534 6  97466324.90143  23802285.250                    23802296.324
 117571375.944 7  91614125.08844  22373082.289                    22373092.215
 117637547.902 7  91665689.512 7  22385679.867                    22385691.082
 116552978.146 8  90820488.67545  22179271.875                    22179279.063
 125013519.305 6  97413240.64644  23789309.047                    23789315.816
 113261911.530 8  88255901.77745  21552970.969                    21552978.852
 122862896.436 6  95737410.28344  23380041.570                    23380050.754
 107381272.872 8  83673688.63846  20433951.227                    20433959.434
 106926213.458 8  83319078.559 8  20347364.961                    20347372.043
 11  8 19 18 40 30.0000000  0 10G17G13G24G01G28G19G11G26G08G07
 120417311.428 7  93831725.752 7  22914648.164                    22914657.434
 125193045.748 6  97552927.44843  23823434.523                    23823445.617
 117525845.892 7  91578647.15245  22364418.695                    22364428.547
 117585646.438 7  91625246.861 7  22375803.078                    22375814.824
 116528020.713 8  90801041.34145  22174523.117                    22174530.059
 125116706.600 6  97493646.27544  23808944.961                    23808951.188
 113256867.853 8  88251971.64945  21552011.438                    21552018.973
 122803053.647 7  95690779.57744  23368653.875                    23368663.223
 107337464.579 8  83639552.30146  20425614.930                    20425622.863
 106939677.692 8  83329570.154 7  20349927.156                    20349934.375
 11  8 19 18 41  0.0000000  0 10G17G13G24G01G28G19G11G26G08G07
 120330560.629 7  93764127.820 6  22898139.648                    22898149.277
 125304204.474 6  97639544.39843  23844587.406                    23844598.977
 117480717.115 7  91543481.92744  22355830.844                    22355840.805
 117534130.950 7  91585104.956 7  22366000.547                    22366011.605
 116503119.216 8  90781637.59745  22169784.156                    22169791.664
 125220016.558 6  97574147.46344  23828603.891                    23828611.129
 113252391.679 8  88248483.73245  21551159.445                    21551166.723
 122743738.280 7  95644559.85444  23357366.688                    23357375.934
 107294018.264 8  83605698.03646  20417347.148                    20417355.168
 106953608.844 8  83340425.575 8  20352578.094                    20352585.605
 11  8 19 18 41 30.0000000  0 10G17G13G24G01G28G19G11G26G08G07
 120244085.733 7  93696744.851 7  22881683.969                    22881693.625
 125415378.982 7  97726173.68143  23865743.609                    23865755.191
 117435991.868 7  91508631.11744  22347320.203                    22347330.270
 117483003.983 7  91545265.811 7  22356270.672                    22356282.410
 116478272.864 8  90762276.80845  22165056.000                    22165063.199
 125323446.621 6  97654742.24644  23848286.172                    23848293.641
 113248483.570 8  88245438.47445  21550415.414                    21550423.172
 122684952.137 6  95598752.50144  23346179.797                    23346189.184
 107250936.540 8  83572127.86746  20409149.383                    20409157.168
 106968007.450 8  83351645.255 8  20355318.109                    20355325.363
 11  8 19 18 42  0.0000000  0 10G17G13G24G01G28G19G11G26G08G07
 120157888.131 7  93629577.973 6  22865281.453                    22865290.406
 125526566.161 6  97812812.77743  23886902.492                    23886913.563
 117391672.948 7  91474096.92944  22338886.227                    22338895.969
 117432268.196 7  91505731.468 7  22346615.867                    22346627.633
 116453481.020 8  90742958.50545  22160338.398                    22160345.832
 125426994.206 6  97735428.58844  23867991.086                    23867998.500
 113245144.462 8  88242836.58145  21549780.289                    21549787.738
 122626697.021 6  95553358.93643  23335093.977                    23335103.773
 107208221.660 8  83538843.54646  20401020.875                    20401028.473
 106982874.451 8  83363229.912 8  20358147.445                    20358154.461
 11  8 19 18 42 30.0000000  0 10G17G13G24G01G28G19G11G26G08G07
 120071969.686 7  93562628.629 6  22848931.336                    22848940.605
 125637763.227 7  97899459.63343  23908063.133                    23908073.934
 117347762.718 7  91439881.20445  22330529.891                    22330539.941
 117381926.313 7  91466504.052 7  22337036.367                    22337047.738
 116428743.149 8  90723682.24845  22155630.805                    22155637.891
 125530656.387 6  97816204.24244  23887716.922                    23887724.340
 113242375.166 8  88240678.70045  21549253.344                    21549261.359
 122568974.981 6  95508380.74943  23324109.680                    23324119.387
 107165876.180 8  83505847.06346  20392962.734                    20392970.672
 106998210.838 8  83375180.327 7  20361066.055                    20361073.043
 11  8 19 18 43  0.0000000  0 10G17G13G24G01G28G19G11G26G08G07
 119986331.728 7  93495897.807 6  22832634.656                    22832643.652
 125748967.040 6  97986111.72543  23929224.477                    23929235.512
 117304263.717 7  91405985.93445  22322253.031                    22322262.781
 117331980.818 7  91427585.527 7  22327531.523                    22327543.477
 116404058.383 8  90704447.38045  22150933.719                    22150940.672
 125634431.135 6  97897067.58744  23907463.992                    23907472.410
 113240176.052 8  88238965.11945  21548834.961                    21548842.289
 122511787.722 6  95463819.30043  23313227.398                    23313236.699
 107123902.253 8  83473140.11446  20384975.188                    20384983.250
 107014017.325 8  83387497.052 8  20364073.758                    20364080.930
 11  8 19 18 43 30.0000000  0 10G17G13G24G01G28G19G11G26G08G07
 119900975.938 7  93429386.897 6  22816391.758                    22816401.238
 125860175.083 6  98072767.12643  23950386.336                    23950398.039
 117261178.460 7  91372413.04744  22314053.742                    22314064.195
 117282434.210 7  91388977.826 7  22318103.828                    22318115.012
 116379425.980 8  90685253.30845  22146246.211                    22146253.121
 125738315.667 6  97978016.51444  23927233.008                    23927240.707
 113238547.970 7  88237696.50345  21548524.844                    21548532.629
 122455136.778 6  95419675.74243  23302447.109                    23302457.234
 107082302.659 8  83440724.84346  20377059.180                    20377067.164
 107030294.586 8  83400180.619 7  20367171.047                    20367178.375
 11  8 19 18 44  0.0000000  0 10G17G13G24G01G28G19G11G26G08G07
 119815903.556 7  93363096.797 6  22800203.359                    22800212.805
 125971384.365 6  98159423.49543  23971549.258                    23971559.945
 117218509.626 7  91339164.65145  22305934.359                    22305943.938
 117233289.284 7  91350683.132 7  22308751.281                    22308763.309
 116354845.513 8  90666099.70145  22141568.781                    22141576.043
 125842307.587 6  98059049.08743  23947022.320                    23947029.430
 113237491.664 8  88236873.43045  21548324.398                    21548331.719
 122399024.424 6  95375951.88243  23291769.281                    23291779.172
 107041080.021 8  83408603.30246  20369215.008                    20369222.531
 107047043.522 8  83413231.710 7  20370358.141                    20370365.777
 11  8 19 18 44 30.0000000  0 10G17G13G24G01G28G19G11G26G08G07
 119731116.100 7  93297028.719 6  22784068.891                    22784077.852
 126082591.836 6  98246078.46643  23992711.313                    23992722.379
 117176259.427 7  91306242.45844  22297893.813                    22297903.883
 117184548.750 7  91312703.527 7  22299475.906                    22299487.934
 116330316.168 8  90646985.93445  22136900.555                    22136908.301
 125946404.461 6  98140163.48143  23966831.813                    23966838.180
 113237007.663 8  88236496.30545  21548231.930                    21548239.633
 122343452.208 7  95332648.89444  23281194.164                    23281204.008
 107000236.342 8  83376777.06346  20361442.547                    20361450.574
 107064265.010 8  83426651.021 7  20373635.109                    20373642.883
 11  8 19 18 45  0.0000000  0 10G17G13G24G01G28G19G11G26G08G07
 119646615.253 7  93231184.002 7  22767988.938                    22767998.266
 126193794.598 6  98332729.73842  24013871.859                    24013883.652
 117134430.518 7  91273648.56144  22289934.055                    22289944.547
 117136214.875 7  91275040.807 7  22290278.516                    22290290.137
 116305837.618 8  90627911.74645  22132242.430                    22132249.750
 126050603.671 6  98221357.57843  23986660.016                    23986667.008
 113237096.655 8  88236565.67445  21548248.758                    21548256.211
 122288421.746 6  95289768.06343  23270722.070                    23270731.816
 106959774.170 8  83345248.09946  20353742.773                    20353750.781
 107081959.886 8  83440439.210 8  20377002.773                    20377010.176
 11  8 19 18 45 30.0000000  0 10G17G13G24G01G28G19G11G26G08G07
 119562401.895 7  93165563.266 6  22751963.328                    22751972.586
 126304989.638 6  98419375.00842  24035032.641                    24035044.121
 117093025.067 7  91241384.61745  22282055.508                    22282065.281
 117088290.139 7  91237696.888 7  22281158.969                    22281170.344
 116281408.817 8  90608876.33645  22127594.188                    22127601.746
 126154902.084 7  98302629.01944  24006507.711                    24006514.117
 113237758.898 8  88237081.71145  21548375.008                    21548382.516
 122233934.826 7  95247310.75744  23260353.578                    23260363.535
 106919695.395 8  83314017.88446  20346116.211                    20346123.609
 107100128.042 8  83454596.191 8  20380460.023                    20380467.348
 11  8 19 18 46  0.0000000  0 10G17G13G24G01G28G19G11G26G08G07
 119478478.026 7  93100168.113 7  22735993.258                    22736002.246
 126416174.615 6  98506012.35843  24056190.859                    24056202.094
 117052045.741 7  91209452.69745  22274256.633                    22274266.832
 117040777.194 7  91200673.843 7  22272117.422                    22272128.762
 116257029.393 8  90589879.39245  22122954.844                    22122962.164
 126259297.853 7  98383976.30444  24026373.508                    24026379.645
 113238995.254 7  88238045.11745  21548610.172                    21548617.551
 122179993.126 6  95205278.30844  23250088.664                    23250098.754
 106880003.296 8  83283088.97946  20338562.570                    20338570.734
 107118771.013 8  83469123.152 7  20384007.555                    20384015.273
 11  8 19 18 46 30.0000000  0 10G17G13G24G01G28G19G11G26G08G07
 119394845.280 7  93034999.802 7  22720078.273                    22720087.430
 126527346.609 6  98592639.64243  24077345.664                    24077357.938
 117011495.097 7  91177854.82944  22266540.742                    22266550.316
 116993678.617 7  91163973.697 7  22263154.648                    22263166.879
 116232698.622 8  90570920.36545  22118324.820                    22118331.609
 126363788.403 7  98465397.44444  24046257.344                    24046263.855
 113240806.070 8  88239456.13845  21548955.047                    21548962.074
 122126598.605 7  95163672.20844  23239927.688                    23239937.777
 106840700.582 8  83252463.49146  20331083.648                    20331091.602
 107137889.445 8  83484020.614 8  20387646.016                    20387653.113
 11  8 19 18 47  0.0000000  0 10G17G13G24G01G28G19G11G26G08G07
 119311504.411 7  92970058.937 7  22704219.031                    22704228.715
 126638503.024 6  98679254.77643  24098498.867                    24098510.863
 116971375.403 7  91146592.77844  22258905.891                    22258915.395
 116946996.701 7  91127598.213 7  22254271.609                    22254283.246
 116208415.685 8  90551998.60845  22113703.828                    22113711.180
 126468371.094 7  98546890.39744  24066159.164                    24066165.832
 113243192.041 8  88241315.33645  21549409.016                    21549416.219
 122073752.679 6  95122493.60044  23229871.219                    23229881.711
 106801789.141 8  83222142.88346  20323679.141                    20323687.199
 107157483.849 8  83499288.947 7  20391374.563                    20391381.719
 11  8 19 18 47 30.0000000  0 10G17G13G24G01G28G19G11G26G08G07
 119228457.257 7  92905346.912 7  22688415.852                    22688425.262
 126749640.300 6  98765854.98343  24119647.594                    24119659.570
 116931689.038 7  91115668.36445  22251354.133                    22251363.805
 116900734.178 7  91091549.521 7  22245468.164                    22245479.453
 116184180.324 7  90533113.91945  22109091.742                    22109099.359
 126573043.612 7  98628453.32344  24086077.242                    24086084.004
 113246153.567 7  88243623.03245  21549972.336                    21549979.598
 122021457.043 6  95081743.78344  23219920.570                    23219930.238
 106763271.126 8  83192128.85546  20316349.672                    20316357.340
 107177555.124 8  83514928.879 7  20395193.953                    20395201.305
 11  8 19 18 48  0.0000000  0 10G17G13G24G01G28G19G11G26G08G07
 119145704.962 7  92840864.669 7  22672668.586                    22672677.426
 126860755.938 6  98852438.35443  24140792.367                    24140804.801
 116892438.292 7  91085083.38845  22243884.719                    22243894.332
 116854893.097 7  91055829.233 7  22236744.883                    22236756.016
 116159991.824 7  90514265.74945  22104488.758                    22104496.461
 126677803.394 7  98710084.23943  24106012.156                    24106019.105
 113249691.044 7  88246379.49445  21550645.477                    21550653.105
 121969713.189 7  95041423.92144  23210073.938                    23210082.844
 106725149.019 8  83162423.31646  20309095.156                    20309103.180
 107198103.576 8  83530940.622 8  20399104.203                    20399111.637
